[[{"header":{"parameterUnit":"m.s-1","parameterCategory":1,"la1":30.6,"la2":29.2853,"lo1":-89.7004,"lo2":-87.6739,"dy":0.0162,"dx":0.0183,"nx":112,"ny":82,"refTime":"2023-05-12T12:00:00:Z","depth":0,"parameterNumber":2,"parameterNumberName":"U-component_of_WINDS"},"data":[0.0,0.0,0.0,0.0,0.0,0.0,0.0,0.0,0.0,0.0,0.0,0.0,0.0,0.0,0.0,0.0,0.0,0.0,0.0,0.0,0.0,0.0,0.0,0.0,0.0,0.0,0.0,0.0,0.0,0.0,0.0,0.0,0.0,0.0,0.0,0.0,0.0,0.0,0.0,0.0,0.0,0.0,0.0,0.0,0.0,0.0,0.0,0.0,0.0,0.0,0.0,0.0,0.0,0.0,0.0,0.0,0.0,0.0,0.0,0.0,0.0,0.0,0.0,0.0,0.0,0.0,0.0,0.0,0.0,0.0,0.0,0.0,0.0,0.0,0.0,0.0,0.0,0.0,0.0,0.0,0.0,0.0,0.0,0.0,0.0,0.0,0.0,0.0,0.0,0.0,3.7859,3.7435,3.7488,3.7524,3.7327,3.7524,3.7466,3.7027,0.0,0.0,0.0,0.0,0.0,0.0,0.0,0.0,0.0,0.0,0.0,0.0,0.0,0.0,0.0,0.0,0.0,0.0,0.0,0.0,0.0,0.0,0.0,0.0,0.0,0.0,0.0,0.0,0.0,0.0,0.0,0.0,0.0,0.0,0.0,0.0,0.0,0.0,0.0,0.0,0.0,0.0,0.0,0.0,0.0,0.0,0.0,0.0,0.0,0.0,0.0,0.0,0.0,0.0,0.0,0.0,0.0,0.0,0.0,0.0,0.0,0.0,0.0,0.0,0.0,0.0,0.0,0.0,0.0,0.0,0.0,0.0,0.0,0.0,0.0,0.0,0.0,0.0,0.0,0.0,0.0,0.0,0.0,0.0,0.0,0.0,0.0,0.0,0.0,0.0,0.0,0.0,0.0,0.0,0.0,0.0,0.0,0.0,0.0,0.0,0.0,0.0,0.0,0.0,3.7416,3.6973,3.7566,3.7608,3.6577,3.7256,3.7541,3.7009,0.0,0.0,0.0,0.0,0.0,0.0,0.0,0.0,0.0,0.0,0.0,0.0,0.0,0.0,0.0,0.0,0.0,0.0,0.0,0.0,0.0,0.0,0.0,0.0,0.0,0.0,0.0,0.0,0.0,0.0,0.0,0.0,0.0,0.0,0.0,0.0,0.0,0.0,0.0,0.0,0.0,0.0,0.0,0.0,0.0,0.0,0.0,0.0,0.0,0.0,0.0,0.0,0.0,0.0,0.0,0.0,0.0,0.0,0.0,0.0,0.0,0.0,0.0,0.0,0.0,0.0,0.0,0.0,0.0,0.0,0.0,0.0,0.0,0.0,0.0,0.0,0.0,0.0,0.0,0.0,0.0,0.0,0.0,0.0,0.0,0.0,0.0,0.0,0.0,0.0,0.0,0.0,0.0,0.0,0.0,0.0,0.0,0.0,0.0,0.0,0.0,0.0,0.0,3.7844,3.7897,3.8086,3.8448,3.8562,3.8237,3.8556,3.8596,3.8292,3.809,0.0,0.0,0.0,0.0,0.0,0.0,0.0,0.0,0.0,0.0,0.0,0.0,0.0,0.0,0.0,0.0,0.0,0.0,0.0,0.0,0.0,0.0,0.0,0.0,0.0,0.0,0.0,0.0,0.0,0.0,0.0,0.0,0.0,0.0,0.0,0.0,0.0,0.0,0.0,0.0,0.0,0.0,0.0,0.0,0.0,0.0,0.0,0.0,0.0,0.0,0.0,0.0,0.0,0.0,0.0,0.0,0.0,0.0,0.0,0.0,0.0,0.0,0.0,0.0,0.0,0.0,0.0,0.0,0.0,0.0,0.0,0.0,0.0,0.0,0.0,0.0,0.0,0.0,0.0,0.0,0.0,0.0,0.0,0.0,0.0,0.0,0.0,0.0,0.0,0.0,0.0,0.0,0.0,0.0,0.0,0.0,0.0,0.0,0.0,0.0,0.0,0.0,3.844,3.8764,3.9423,3.939,3.9426,3.9651,3.962,3.9494,3.9305,3.8911,0.0,0.0,0.0,0.0,0.0,0.0,0.0,0.0,0.0,0.0,0.0,0.0,0.0,0.0,0.0,0.0,0.0,0.0,0.0,0.0,0.0,0.0,0.0,0.0,0.0,0.0,0.0,0.0,0.0,0.0,0.0,0.0,0.0,0.0,0.0,0.0,0.0,0.0,0.0,0.0,0.0,0.0,0.0,0.0,0.0,0.0,0.0,0.0,0.0,0.0,0.0,0.0,0.0,0.0,0.0,0.0,0.0,0.0,0.0,0.0,0.0,0.0,0.0,0.0,0.0,0.0,0.0,0.0,0.0,0.0,0.0,0.0,0.0,0.0,0.0,0.0,0.0,0.0,0.0,0.0,0.0,0.0,0.0,0.0,0.0,0.0,0.0,0.0,0.0,0.0,0.0,0.0,0.0,0.0,0.0,0.0,0.0,0.0,0.0,0.0,0.0,0.0,3.9477,3.9834,4.0274,4.0001,3.9633,3.937,3.9494,3.9494,3.9305,3.9441,0.0,0.0,0.0,0.0,0.0,0.0,0.0,0.0,0.0,0.0,0.0,0.0,0.0,0.0,0.0,0.0,0.0,0.0,0.0,0.0,0.0,0.0,0.0,0.0,0.0,0.0,0.0,0.0,0.0,0.0,0.0,0.0,0.0,0.0,0.0,0.0,0.0,0.0,0.0,0.0,0.0,0.0,0.0,0.0,0.0,0.0,0.0,0.0,0.0,0.0,0.0,0.0,0.0,0.0,0.0,0.0,0.0,0.0,0.0,0.0,0.0,0.0,0.0,0.0,0.0,0.0,0.0,0.0,0.0,0.0,0.0,0.0,0.0,0.0,0.0,0.0,0.0,0.0,0.0,0.0,0.0,0.0,0.0,0.0,0.0,0.0,0.0,0.0,0.0,0.0,0.0,0.0,0.0,0.0,0.0,0.0,0.0,0.0,0.0,0.0,0.0,0.0,3.9815,4.0415,0.0,4.0807,4.0606,4.0735,4.0813,4.0813,4.0744,0.0,0.0,0.0,0.0,0.0,0.0,0.0,0.0,0.0,0.0,0.0,0.0,0.0,0.0,0.0,0.0,0.0,0.0,0.0,0.0,0.0,0.0,0.0,0.0,0.0,0.0,0.0,0.0,0.0,0.0,0.0,0.0,0.0,0.0,0.0,0.0,0.0,0.0,0.0,0.0,0.0,0.0,0.0,0.0,0.0,0.0,0.0,0.0,0.0,0.0,0.0,0.0,0.0,0.0,0.0,0.0,0.0,0.0,0.0,0.0,0.0,0.0,0.0,0.0,0.0,0.0,0.0,0.0,0.0,0.0,0.0,0.0,0.0,0.0,0.0,0.0,0.0,0.0,0.0,0.0,0.0,0.0,0.0,0.0,0.0,0.0,0.0,0.0,0.0,0.0,0.0,0.0,0.0,0.0,0.0,0.0,0.0,0.0,0.0,0.0,0.0,0.0,3.9967,4.058,4.1233,0.0,4.1749,4.1627,4.1778,4.1788,4.1788,4.1788,0.0,0.0,0.0,0.0,0.0,0.0,0.0,0.0,0.0,0.0,0.0,0.0,0.0,0.0,0.0,0.0,0.0,0.0,0.0,0.0,0.0,0.0,0.0,0.0,0.0,0.0,0.0,0.0,0.0,0.0,0.0,0.0,0.0,0.0,0.0,0.0,0.0,0.0,0.0,0.0,0.0,0.0,0.0,0.0,0.0,0.0,0.0,0.0,0.0,0.0,0.0,0.0,0.0,0.0,0.0,0.0,0.0,0.0,0.0,0.0,0.0,0.0,0.0,0.0,0.0,0.0,0.0,0.0,0.0,0.0,0.0,0.0,0.0,0.0,0.0,0.0,0.0,0.0,0.0,0.0,0.0,0.0,0.0,0.0,0.0,0.0,0.0,0.0,0.0,0.0,0.0,0.0,0.0,0.0,0.0,0.0,0.0,0.0,0.0,0.0,0.0,0.0,4.1488,4.2008,4.2388,4.2757,4.2792,4.2657,4.2239,4.2198,4.2198,0.0,0.0,0.0,0.0,0.0,0.0,0.0,0.0,0.0,0.0,0.0,0.0,0.0,0.0,0.0,0.0,0.0,0.0,0.0,0.0,0.0,0.0,0.0,0.0,0.0,0.0,0.0,0.0,0.0,0.0,0.0,0.0,0.0,0.0,0.0,0.0,0.0,0.0,0.0,0.0,0.0,0.0,0.0,0.0,0.0,0.0,0.0,0.0,0.0,0.0,0.0,0.0,0.0,0.0,0.0,0.0,0.0,0.0,0.0,0.0,0.0,0.0,0.0,0.0,0.0,0.0,0.0,0.0,0.0,0.0,0.0,0.0,0.0,0.0,0.0,0.0,0.0,0.0,0.0,0.0,0.0,0.0,0.0,0.0,0.0,0.0,0.0,0.0,0.0,0.0,0.0,0.0,0.0,0.0,0.0,0.0,0.0,0.0,0.0,0.0,0.0,0.0,0.0,4.1633,4.2483,4.3096,4.323,4.2959,4.2657,4.2239,4.2198,4.2092,4.1788,0.0,0.0,0.0,0.0,0.0,0.0,0.0,0.0,0.0,0.0,0.0,0.0,0.0,0.0,0.0,0.0,0.0,0.0,0.0,0.0,0.0,0.0,0.0,0.0,0.0,0.0,0.0,0.0,0.0,0.0,0.0,0.0,0.0,0.0,0.0,0.0,0.0,0.0,0.0,0.0,0.0,0.0,0.0,0.0,0.0,0.0,0.0,0.0,0.0,0.0,0.0,0.0,0.0,0.0,0.0,0.0,0.0,0.0,0.0,0.0,0.0,0.0,0.0,0.0,0.0,0.0,0.0,0.0,0.0,0.0,0.0,0.0,0.0,0.0,0.0,0.0,0.0,0.0,0.0,0.0,0.0,0.0,0.0,0.0,0.0,0.0,0.0,0.0,0.0,0.0,0.0,0.0,0.0,0.0,0.0,0.0,0.0,0.0,0.0,0.0,0.0,0.0,4.2104,4.3043,4.3594,4.3406,4.3177,4.2885,4.2462,4.2279,4.2092,4.1856,0.0,0.0,0.0,0.0,0.0,0.0,0.0,0.0,0.0,0.0,0.0,0.0,0.0,0.0,0.0,0.0,0.0,0.0,0.0,0.0,0.0,0.0,0.0,0.0,0.0,0.0,0.0,0.0,0.0,0.0,0.0,0.0,0.0,0.0,0.0,0.0,0.0,0.0,0.0,0.0,0.0,0.0,0.0,0.0,0.0,0.0,0.0,0.0,0.0,0.0,0.0,0.0,0.0,0.0,0.0,0.0,0.0,0.0,0.0,0.0,0.0,0.0,0.0,0.0,0.0,0.0,0.0,0.0,0.0,0.0,0.0,0.0,0.0,0.0,0.0,0.0,0.0,0.0,0.0,0.0,0.0,0.0,0.0,0.0,0.0,0.0,0.0,0.0,0.0,0.0,0.0,0.0,0.0,0.0,0.0,0.0,0.0,0.0,0.0,0.0,0.0,0.0,4.2701,4.3508,4.386,4.3508,4.344,4.3248,4.2829,4.2422,4.2157,4.2175,0.0,0.0,0.0,0.0,0.0,0.0,0.0,0.0,0.0,0.0,0.0,0.0,0.0,0.0,0.0,0.0,0.0,0.0,0.0,0.0,0.0,0.0,0.0,0.0,0.0,0.0,0.0,0.0,0.0,0.0,0.0,0.0,0.0,0.0,0.0,0.0,0.0,0.0,0.0,0.0,0.0,0.0,0.0,0.0,0.0,0.0,0.0,0.0,0.0,0.0,0.0,0.0,0.0,0.0,0.0,0.0,0.0,0.0,0.0,0.0,3.5493,0.0,0.0,0.0,0.0,0.0,0.0,0.0,0.0,0.0,0.0,0.0,0.0,0.0,0.0,0.0,0.0,0.0,0.0,0.0,0.0,0.0,0.0,0.0,0.0,0.0,0.0,0.0,0.0,0.0,0.0,0.0,0.0,0.0,0.0,0.0,0.0,0.0,0.0,0.0,0.0,0.0,4.2774,4.3508,4.3974,4.3892,4.3594,4.3248,4.2829,4.2422,4.205,4.1762,4.1648,0.0,0.0,0.0,0.0,0.0,0.0,0.0,0.0,0.0,0.0,0.0,0.0,0.0,0.0,0.0,0.0,0.0,0.0,0.0,0.0,0.0,0.0,0.0,0.0,0.0,0.0,0.0,0.0,0.0,0.0,0.0,0.0,0.0,0.0,0.0,0.0,0.0,0.0,0.0,0.0,0.0,0.0,0.0,0.0,0.0,0.0,0.0,0.0,0.0,0.0,0.0,0.0,0.0,0.0,0.0,0.0,0.0,0.0,0.0,0.0,3.5968,0.0,0.0,0.0,0.0,0.0,0.0,0.0,0.0,0.0,0.0,0.0,0.0,0.0,0.0,0.0,0.0,0.0,0.0,0.0,0.0,0.0,0.0,0.0,0.0,0.0,0.0,0.0,0.0,0.0,0.0,0.0,0.0,0.0,0.0,0.0,0.0,0.0,0.0,0.0,0.0,4.3069,4.3627,4.4005,4.4005,4.3474,4.3032,4.281,4.2239,4.1831,4.1604,4.1604,0.0,0.0,0.0,0.0,0.0,0.0,0.0,0.0,0.0,0.0,0.0,0.0,0.0,0.0,0.0,0.0,0.0,0.0,0.0,0.0,0.0,0.0,0.0,0.0,0.0,0.0,0.0,0.0,0.0,0.0,0.0,0.0,0.0,0.0,0.0,0.0,0.0,0.0,0.0,0.0,0.0,0.0,0.0,0.0,0.0,0.0,0.0,0.0,0.0,0.0,0.0,0.0,0.0,3.5501,3.5493,3.5493,3.5661,3.5718,3.5718,3.5872,3.6315,3.6988,3.7873,0.0,0.0,0.0,0.0,0.0,0.0,0.0,0.0,0.0,0.0,0.0,0.0,0.0,0.0,0.0,0.0,0.0,0.0,0.0,0.0,0.0,0.0,0.0,0.0,4.2135,4.2145,4.1969,0.0,0.0,0.0,0.0,0.0,0.0,0.0,0.0,0.0,0.0,0.0,4.3371,4.3744,4.4005,4.4005,4.3318,4.2904,4.2904,4.2239,4.1788,4.1719,4.1719,4.1675,0.0,0.0,0.0,0.0,0.0,0.0,0.0,0.0,0.0,0.0,0.0,0.0,0.0,0.0,0.0,0.0,0.0,0.0,0.0,0.0,0.0,0.0,0.0,0.0,0.0,0.0,0.0,0.0,0.0,0.0,0.0,0.0,3.5522,3.536,0.0,0.0,0.0,0.0,0.0,0.0,0.0,0.0,0.0,0.0,0.0,0.0,0.0,3.5374,3.5515,3.5495,3.5507,3.5507,3.5507,3.5493,3.5512,3.6219,3.6546,3.6584,3.7334,0.0,3.7892,3.8757,0.0,0.0,0.0,0.0,0.0,0.0,0.0,0.0,0.0,0.0,0.0,0.0,0.0,0.0,0.0,0.0,0.0,0.0,0.0,0.0,0.0,0.0,4.3897,4.3867,4.3769,4.3608,0.0,4.2876,4.2743,4.3015,4.3387,0.0,0.0,0.0,0.0,0.0,0.0,0.0,4.3406,4.3744,4.4005,4.4005,4.3594,4.3318,4.3318,4.2904,4.2501,4.2115,4.2133,4.1984,4.1604,4.1604,0.0,0.0,0.0,0.0,0.0,0.0,0.0,0.0,0.0,0.0,0.0,0.0,0.0,0.0,0.0,0.0,0.0,0.0,0.0,0.0,0.0,0.0,0.0,0.0,0.0,0.0,0.0,0.0,0.0,3.5534,3.5476,3.5281,3.5119,3.4963,0.0,0.0,0.0,0.0,0.0,0.0,0.0,0.0,0.0,3.533,3.5281,3.533,3.5515,3.5844,3.6013,3.6013,3.6473,3.6684,3.6703,3.7194,3.743,3.7488,3.8354,3.8719,3.8757,3.9142,3.9758,4.0489,0.0,0.0,0.0,0.0,4.0304,4.0233,4.0441,4.0441,4.0304,4.0101,0.0,0.0,0.0,0.0,0.0,0.0,0.0,0.0,0.0,0.0,4.3726,4.3493,4.3406,4.3334,4.3105,4.3096,4.3203,0.0,4.3477,4.3484,4.3231,0.0,0.0,0.0,0.0,4.4026,4.3767,4.3892,4.4005,4.4005,4.3627,4.3406,4.3406,4.3032,4.2619,4.2257,4.2198,4.2008,4.1604,4.1604,4.1604,0.0,0.0,0.0,0.0,0.0,0.0,0.0,0.0,0.0,0.0,0.0,0.0,0.0,0.0,0.0,0.0,0.0,0.0,0.0,0.0,0.0,0.0,0.0,0.0,0.0,0.0,0.0,0.0,3.5463,3.5402,3.5216,3.5136,3.5034,0.0,0.0,0.0,0.0,0.0,0.0,3.5049,3.4996,3.5126,3.5541,3.5474,3.5624,3.5971,3.6398,3.6632,3.6651,3.7242,3.7509,3.7546,3.7955,3.8137,3.8194,3.9054,3.9438,3.9438,3.9554,3.995,4.0489,4.0441,4.0339,4.0214,4.0356,4.0304,4.0139,4.0356,4.0304,4.0101,3.9922,4.0049,4.0346,4.084,0.0,0.0,0.0,0.0,4.3846,4.3437,4.3316,4.3211,4.2867,4.2829,4.2848,4.2696,4.2922,4.3286,0.0,4.3484,4.3415,4.3935,0.0,0.0,0.0,0.0,4.4278,4.4048,4.4005,4.4005,4.4005,4.3744,4.3542,4.3542,4.3177,4.2772,4.24,4.2239,4.2008,4.1604,4.1604,4.1604,4.1604,0.0,0.0,0.0,0.0,0.0,0.0,0.0,0.0,0.0,0.0,0.0,0.0,0.0,0.0,0.0,0.0,0.0,0.0,0.0,0.0,0.0,0.0,0.0,0.0,0.0,0.0,0.0,0.0,0.0,3.5207,3.5304,0.0,0.0,0.0,0.0,3.4908,3.467,3.4649,3.4889,3.4851,3.5249,3.6231,3.6177,3.6521,3.7299,3.7277,3.7236,3.7255,3.7313,3.7332,3.7351,3.8186,3.8567,3.8605,3.9423,3.9783,3.9804,4.0262,4.045,4.0473,4.0286,4.0214,4.0214,4.0214,4.0042,3.9861,4.012,4.0081,3.9901,3.9819,4.0802,4.1996,4.2095,4.2941,0.0,0.0,4.3511,4.3214,4.2996,4.2886,4.2829,4.281,4.2792,4.2696,4.232,4.24,4.2987,0.0,4.3956,4.3504,4.3919,0.0,4.2864,4.2864,4.3214,4.3597,4.3955,4.4005,4.4005,4.4005,4.3974,4.3974,4.3974,4.3594,4.3212,4.281,4.2422,4.2008,4.1604,4.1604,4.1604,4.1604,4.1604,0.0,0.0,0.0,0.0,0.0,0.0,0.0,0.0,0.0,0.0,0.0,0.0,0.0,0.0,0.0,0.0,0.0,0.0,0.0,0.0,0.0,0.0,0.0,0.0,0.0,0.0,0.0,0.0,3.5102,3.5155,0.0,3.4754,3.4831,3.487,3.4851,3.5382,3.5761,3.587,3.6292,3.6711,3.7072,3.7015,3.7089,3.7332,3.769,3.7886,3.7886,3.8432,3.8719,3.8719,3.9183,3.938,3.9399,3.9683,3.9797,3.9819,3.9984,4.0062,4.0024,3.9983,3.9943,3.9943,3.9943,3.9882,3.9819,3.9922,3.9816,3.9727,4.0171,4.1079,4.2085,4.2716,4.3567,4.4218,4.3868,4.3642,4.3371,4.2698,4.2465,4.236,4.2092,4.2008,4.1984,4.1831,4.205,4.2633,4.3664,4.3276,4.2987,4.354,4.3614,4.357,4.355,4.3944,4.4168,4.4029,4.4005,4.4005,4.4005,4.4005,4.4005,4.4005,4.3627,4.3212,4.2847,4.2422,4.2008,4.1604,4.1604,4.1604,4.1604,4.1604,4.1604,0.0,0.0,0.0,0.0,0.0,0.0,0.0,0.0,0.0,0.0,0.0,0.0,0.0,0.0,0.0,0.0,0.0,0.0,0.0,0.0,0.0,0.0,0.0,0.0,0.0,0.0,3.5391,3.5032,3.5331,3.5434,3.5068,3.5394,3.5625,3.5625,3.6234,3.6596,3.6596,3.7069,3.7465,3.7726,3.7662,3.7728,3.7924,3.8346,3.8527,3.8502,3.9114,3.9401,3.9376,3.9537,3.959,3.9548,3.9548,3.9548,3.9585,3.9868,4.0,3.9986,3.9845,3.9797,3.9797,3.9797,3.9943,4.0136,4.0349,4.0334,4.0285,4.0838,4.1567,4.2389,4.3071,4.3774,4.4277,4.3804,4.3557,4.3283,4.2501,4.2198,4.2026,4.1762,4.1648,4.1604,4.1604,4.1874,4.2252,4.2792,4.2637,4.2611,4.3268,4.3268,4.3252,4.3469,4.3832,4.4013,4.3952,4.3974,4.4005,4.4005,4.4005,4.4005,4.4005,4.375,4.336,4.281,4.278,4.2528,4.2026,4.2236,4.2271,4.2008,4.2008,4.2131,4.2377,0.0,0.0,0.0,0.0,0.0,0.0,0.0,0.0,0.0,0.0,0.0,0.0,0.0,0.0,0.0,0.0,0.0,0.0,0.0,0.0,0.0,0.0,0.0,3.5064,3.5277,3.5345,3.5091,3.593,3.6457,3.6326,3.68,3.7125,3.719,3.7103,3.7042,3.7042,3.7079,3.7435,3.8203,3.8165,3.848,3.921,3.9183,3.9156,3.9101,3.9183,3.9156,3.9101,3.9221,3.9193,3.9138,3.9175,3.9175,3.9231,4.0085,4.0438,4.0402,4.001,3.9851,3.9851,3.9851,4.0222,4.0821,4.1465,4.1649,4.1619,4.1782,4.2361,4.3044,4.3175,4.3631,4.3999,4.3508,4.3195,4.2884,4.2432,4.2103,4.1917,4.1917,4.1762,4.1604,4.1604,4.1762,4.1917,4.1917,4.2068,4.2448,4.3239,4.2351,4.1788,4.24,4.2657,0.0,4.3719,4.3897,4.3974,4.4011,4.4011,4.4011,4.4029,4.4035,4.3695,4.2918,4.3543,4.357,4.2868,4.3518,4.357,4.2851,4.2851,4.3202,4.3904,0.0,0.0,0.0,0.0,0.0,0.0,0.0,0.0,0.0,0.0,0.0,0.0,0.0,0.0,0.0,0.0,0.0,0.0,0.0,0.0,0.0,0.0,3.6738,3.6039,3.6144,3.6374,3.6634,3.6901,3.6994,3.6817,3.6953,3.7014,3.6972,3.7529,3.7866,3.7866,3.8465,3.8889,3.907,3.8947,3.8987,3.921,3.9156,3.9202,3.932,3.9229,3.9183,3.9202,3.9835,4.0105,4.0067,4.0661,4.0903,4.0921,4.1163,4.1256,4.1266,4.1148,4.1118,4.1118,4.1118,4.1213,4.1371,4.1556,4.1619,4.1712,4.2445,4.2809,4.3108,4.3695,4.3972,4.3968,4.3301,4.3051,4.2884,4.2432,4.2246,4.2187,4.2187,4.2163,4.2121,4.2121,4.2163,4.2187,4.2187,4.2228,4.2282,4.231,4.1903,4.1762,4.2198,4.232,0.0,4.3424,4.3526,4.3781,4.4354,4.4428,4.4667,4.5256,4.4747,4.442,4.4527,4.4147,4.3799,4.3605,4.3781,4.3799,4.3605,4.3605,4.3693,0.0,0.0,0.0,0.0,0.0,0.0,0.0,0.0,0.0,0.0,0.0,0.0,0.0,0.0,0.0,0.0,0.0,0.0,0.0,0.0,0.0,0.0,3.7509,3.7508,3.73,3.712,3.708,3.7237,3.7553,3.769,3.7486,3.7754,3.7935,3.7953,3.8459,3.8746,3.8746,3.9207,3.9469,3.9476,3.9354,3.9301,3.9328,3.9275,3.9442,3.9842,3.9796,3.9918,4.0253,4.0775,4.0989,4.096,4.1415,4.159,4.1627,4.1962,4.2092,0.0,0.0,0.0,0.0,0.0,4.2092,4.2147,4.2482,4.2612,4.2698,4.3301,4.345,4.3465,4.3899,4.4017,4.3841,4.3284,4.3142,4.305,4.2652,4.2472,4.2409,4.2409,4.2369,4.2287,4.2287,4.2369,4.2409,4.2409,4.2409,0.0,4.2656,4.2232,4.2019,4.2315,4.2624,4.3005,4.3579,4.4107,4.4563,4.5058,4.5274,4.5582,4.6043,4.5588,0.0,0.0,0.0,4.4869,4.4869,4.4571,0.0,0.0,0.0,4.4601,4.5059,0.0,0.0,0.0,4.4019,4.3494,0.0,0.0,0.0,0.0,0.0,0.0,0.0,0.0,0.0,0.0,0.0,0.0,0.0,0.0,0.0,0.0,3.7737,3.808,3.866,3.8212,3.7737,3.7494,3.8109,3.8461,3.8278,3.8854,3.9283,3.9391,3.9469,3.9495,3.9495,0.0,0.0,0.0,0.0,3.9575,3.9626,3.9642,4.0,4.0673,4.0645,4.0999,4.1716,4.18,4.1837,4.1837,4.189,4.1869,4.1924,4.263,4.2946,4.2853,4.2147,4.1869,4.1962,4.2667,4.2946,4.3039,4.3745,0.0,0.0,4.4165,4.4073,4.3929,4.3974,4.3828,4.3612,4.3338,4.3267,4.3196,4.2957,4.2786,4.2631,4.2631,4.249,4.2369,4.2369,4.2602,4.2775,4.2775,4.2847,4.3134,4.3854,4.3112,4.253,4.2781,4.3396,4.389,4.4108,4.5073,4.5773,4.5902,0.0,0.0,4.6687,4.6537,4.615,4.5486,4.5932,4.6172,4.6172,4.5589,4.5536,4.6221,4.5572,4.5698,4.659,4.6637,4.6572,4.6424,4.5459,4.4818,0.0,0.0,0.0,0.0,0.0,0.0,0.0,0.0,0.0,0.0,0.0,0.0,0.0,0.0,0.0,3.9334,3.938,3.9499,3.9627,3.9399,3.919,3.9142,3.9269,3.9333,3.9252,3.9376,3.9425,3.9418,3.9469,3.9495,3.9495,3.9546,3.9546,3.952,4.0113,4.045,4.045,4.0998,4.1381,4.1613,0.0,0.0,4.1792,4.2464,4.2733,4.2694,4.3401,4.3639,4.3559,4.3708,4.3763,4.3745,4.3596,4.354,4.3559,4.3708,4.3763,4.3782,4.3949,4.4055,4.4165,4.4255,4.4147,4.3942,4.3795,4.3579,0.0,4.3069,4.2995,4.2957,4.292,4.2844,4.2844,4.2844,4.2806,4.2768,4.2768,4.333,4.3821,4.3821,4.4307,4.4853,4.4957,4.4043,4.3507,4.4192,4.4407,4.4623,4.5015,4.5261,4.5724,4.6576,4.6763,4.7075,4.7755,4.7246,4.6898,4.6877,4.646,4.6172,4.6172,4.6032,4.6081,4.6172,4.6081,4.6178,4.659,4.6842,4.6572,4.592,4.5717,4.5442,0.0,0.0,0.0,0.0,0.0,0.0,0.0,0.0,0.0,0.0,0.0,3.8865,0.0,0.0,3.9703,3.9703,3.975,3.9754,3.9754,3.9656,3.9596,3.9571,3.9546,3.952,3.9444,3.9469,3.9495,3.9444,3.952,3.9733,4.0127,4.0146,4.0333,4.0746,4.1113,4.1319,4.1346,4.1651,4.2034,4.2455,4.236,4.2555,4.3013,4.3346,4.3543,4.361,4.3949,4.4104,4.4085,4.4036,4.4005,4.4005,4.4005,4.4005,4.4005,4.4005,4.4005,4.4005,4.4005,4.4085,4.4184,4.4135,4.3974,4.3763,4.3545,4.3303,4.3069,4.292,4.2882,4.2882,4.2882,4.2882,4.2991,4.3389,4.3498,4.3607,4.4005,4.4421,4.4693,4.4693,4.5037,4.5436,4.5834,4.54,4.4982,4.4982,4.5222,4.5473,4.5665,4.6132,4.6676,4.7179,4.7472,4.7771,4.8174,4.7674,4.7204,4.6944,4.659,4.6319,4.6239,4.6319,4.6398,4.6398,4.6512,4.6749,4.6944,4.7098,4.676,4.5953,4.5953,4.5597,0.0,0.0,0.0,0.0,0.0,0.0,0.0,0.0,3.8634,3.9476,3.9552,3.9469,3.9577,3.9571,3.9546,3.9596,3.9602,3.9602,3.9602,3.9602,3.9652,3.9745,3.9614,3.9495,3.9444,3.9645,3.9764,3.9764,3.9946,4.0347,4.1004,4.0971,4.1271,4.1972,4.2115,4.2208,4.2262,4.2331,4.2688,4.3258,4.32,4.3543,4.4214,4.4085,4.4116,4.4255,4.4116,4.4104,4.4135,4.4085,4.4005,4.4005,4.4005,4.4005,4.4055,4.4005,4.4005,4.4005,4.4036,4.4135,4.4184,4.3961,4.3781,4.3579,4.3373,4.3087,4.2882,4.2882,4.3009,4.3118,4.3118,4.3244,4.3516,4.4168,4.4331,4.4512,4.5164,4.5417,4.5526,4.5526,4.5653,4.5979,4.6631,4.6739,4.6522,4.5852,4.6205,4.6501,4.6501,4.7252,4.7838,4.7879,4.8231,4.8402,4.8288,4.7816,4.7309,4.6731,4.6684,4.659,4.6368,4.6542,4.6684,4.6684,4.6888,4.7116,4.7302,4.7302,4.6908,4.6098,4.6098,4.558,3.5349,3.5943,3.6768,3.7638,3.7902,3.8259,0.0,0.0,3.9519,3.9807,3.9708,3.9577,3.9596,3.9577,3.9577,3.9602,3.9602,3.9602,3.9602,3.9602,3.9858,4.0572,4.0027,3.9596,3.9596,4.0234,4.0666,4.0666,4.1323,4.1773,4.1867,4.186,4.1897,4.1991,4.275,4.3163,4.3144,4.3802,4.4158,4.4252,4.4125,4.4151,4.4285,4.4214,4.4184,4.4214,4.4184,4.4135,4.4036,4.4135,4.4104,4.4005,4.4005,4.4085,4.4165,4.4036,4.4005,4.4005,4.4135,4.4244,4.4255,4.4036,4.386,4.3646,4.3373,4.3087,4.2882,4.2882,4.3407,4.3969,4.3969,4.4494,4.5055,4.5146,4.5164,4.5182,4.5273,4.5852,4.6377,4.6377,4.6939,4.7464,4.7554,4.7572,4.7554,4.7464,4.767,4.7889,4.7889,4.8252,4.8569,4.8818,4.8906,4.8748,4.8234,4.7674,4.7232,4.698,4.6952,4.6934,4.6888,4.6952,4.6952,4.6952,4.698,4.7116,4.7302,4.7302,4.6908,4.6098,4.6098,4.558,3.6889,3.7287,0.0,0.0,3.8883,3.9077,3.9532,3.9626,3.9626,3.9703,3.9754,3.9777,3.9777,3.9777,3.9777,0.0,3.9679,3.9602,3.9602,3.999,4.0422,4.076,4.0929,4.1004,4.1004,4.1304,4.1511,4.1511,4.1804,4.2224,4.2731,4.2769,4.2975,4.3444,4.382,4.4008,4.4008,4.383,4.399,4.4383,4.3876,4.3866,4.4285,4.4244,4.4153,4.4085,4.4184,4.4135,4.4005,4.4055,4.4104,4.4104,4.4104,4.4165,4.4244,4.4165,4.4147,4.4177,4.4226,4.4195,4.4085,4.3828,4.3612,4.3408,4.3124,4.3321,4.3588,4.3588,4.4168,4.4802,4.4802,4.5037,4.5417,4.5888,4.5997,4.6124,4.6613,4.6975,4.721,4.721,4.7482,4.7717,4.7717,4.7847,4.7933,4.7933,4.8035,4.8114,4.8114,4.8383,4.866,4.8767,4.8767,4.8605,4.8194,4.7897,4.7585,4.7187,4.7187,4.7098,4.698,4.7116,4.7187,4.7187,4.7338,4.7443,4.7511,4.7214,4.6753,4.6098,4.5749,4.5284,3.8272,0.0,0.0,3.9275,3.9495,3.9552,3.9546,3.9602,3.9679,3.9679,3.9826,3.9979,3.9979,3.9979,3.9958,3.9914,3.9777,3.975,3.9921,4.0422,4.0966,4.1436,4.1999,4.2468,4.2667,4.2506,4.2374,4.2374,4.2581,4.2975,4.3595,4.3632,4.3895,4.4496,4.4515,4.4515,4.4515,4.3933,4.3905,4.4411,4.3802,4.3811,4.4314,4.4274,4.4165,4.4055,4.4165,4.4135,4.4005,4.4036,4.4085,4.4135,4.4135,4.4195,4.4285,4.4244,4.4274,4.4314,4.4314,4.4177,4.3974,4.373,4.3624,4.3579,4.3321,4.3788,4.4421,4.4421,4.5001,4.5635,4.5635,4.5798,4.6106,4.6703,4.683,4.6993,4.7572,4.7717,4.7717,4.7717,4.7717,4.7717,4.7717,4.7893,4.8096,4.8174,4.8289,4.8327,4.8327,4.866,4.8855,4.8855,4.8785,4.8605,4.8365,4.8192,4.7937,4.756,4.7432,4.732,4.7223,4.7338,4.7407,4.7407,4.7615,4.7717,4.7717,4.7302,4.6753,4.6098,4.5699,4.5178,3.9288,0.0,3.9458,3.9502,3.9495,3.952,3.9577,3.9754,3.9892,3.9892,4.006,4.0196,4.0196,4.0196,4.0139,3.9935,3.9892,4.0087,4.0697,4.0778,4.1398,4.3031,4.3238,4.3576,0.0,4.3726,4.3257,4.3257,4.3989,4.4458,4.4477,4.4477,4.4477,4.4515,4.4515,4.4515,4.4515,4.4496,4.4477,4.4515,4.4393,4.4364,4.4383,4.4344,4.4274,4.4184,4.4274,4.4177,4.4005,4.4135,4.4135,4.4005,4.4005,4.4116,4.4285,4.4285,4.4285,4.4314,4.4354,4.4218,4.3974,4.3744,4.4044,4.4401,4.4118,4.4621,4.5254,4.5254,4.5852,4.6468,4.6468,4.7047,4.7645,4.7663,4.7663,4.7681,4.7699,4.7717,4.7717,4.7717,4.7717,4.7717,4.7717,4.7893,4.8174,4.8346,4.873,4.8974,4.8974,4.9262,4.9459,4.9459,4.9179,4.8974,4.8974,4.8458,4.8096,4.8075,4.7829,4.7675,4.7675,4.7657,4.7699,4.7699,4.7717,4.7717,4.7717,4.7657,4.7151,4.6098,4.6098,4.5528,3.9705,3.9758,3.9758,3.9773,3.9773,3.975,3.9684,3.9851,4.0001,3.9918,4.0633,4.1242,4.1142,4.1209,4.1209,4.1034,4.0463,4.0245,4.0908,4.141,4.2121,4.3163,4.3764,0.0,0.0,0.0,0.0,4.4102,4.4364,4.4515,4.4515,4.4515,4.4515,4.4515,4.4515,4.4515,4.4515,4.397,4.397,4.4515,4.4487,4.444,4.4383,4.4383,4.4344,4.4274,4.4244,4.4226,4.4177,4.4116,4.4147,4.4248,4.4207,4.4296,4.443,4.443,4.4767,4.5171,4.4627,4.4632,4.4817,4.4572,4.4906,4.5296,4.501,4.5454,4.6106,4.6106,4.6685,4.7301,4.7301,4.7518,4.7717,4.7717,4.7717,4.7717,4.7801,4.7819,4.7842,4.7888,4.7888,4.7888,4.7888,4.8345,4.885,4.9309,4.9265,4.9188,4.9327,4.9427,4.9509,4.9509,4.9377,4.9276,4.9137,4.8952,4.8692,4.8365,4.8251,4.8053,4.7861,4.7759,4.7717,4.7717,4.7717,4.7717,4.7717,4.7345,4.6799,4.6098,4.5749,4.5284,3.9975,3.9954,3.9954,3.9911,3.9889,3.9889,3.9851,4.0041,4.029,4.052,4.1293,4.1975,4.2133,4.2281,4.2184,4.1585,4.0997,4.0825,4.1411,4.1898,4.2611,4.3736,4.4339,4.4632,0.0,0.0,0.0,4.4515,4.4515,4.4515,4.4515,4.4515,4.4515,4.4515,4.4515,4.4515,4.4515,4.3989,4.3989,4.4515,4.4515,4.4487,4.4458,4.4458,4.4401,4.4344,4.4285,4.4285,4.4285,4.4177,4.4207,4.4373,4.4314,4.4541,4.489,4.489,4.5425,4.6054,4.5228,4.5308,4.5717,4.5404,4.5734,4.6119,4.5827,4.6287,4.6939,4.6939,4.7301,4.7717,4.7717,4.7717,4.7717,4.7759,4.7759,4.7801,4.7925,4.7925,4.7947,4.7992,4.7992,4.7992,4.7992,4.8495,4.9071,4.9636,4.9529,4.9408,4.9604,4.9653,4.9653,4.9653,4.9593,4.9544,4.945,4.9309,4.908,4.8829,4.8567,4.8327,4.8111,4.7929,4.7824,4.7824,4.7824,4.7824,4.7824,4.745,4.6999,4.6466,4.595,4.5477,4.0137,4.0117,4.0077,3.9954,3.9933,3.9956,4.0081,4.0306,4.0739,4.1615,4.2034,4.2443,0.0,0.0,4.2976,4.1609,4.1437,4.1648,4.2172,4.2227,4.2899,0.0,0.0,0.0,0.0,0.0,0.0,4.4524,0.0,4.4515,4.4515,4.4515,4.4515,4.4515,4.4515,4.4515,4.4515,4.4515,4.4515,4.4515,4.4515,4.4515,4.4515,4.4515,4.4487,4.4411,4.4383,4.4373,4.4314,4.4314,4.4314,4.4314,4.4352,4.4867,4.56,4.5656,4.6259,4.6936,4.611,4.6188,4.6624,4.6289,4.6544,4.6962,4.6662,4.7102,4.7699,4.7699,4.7717,4.7717,4.7717,4.7717,4.7759,4.7861,4.7902,4.7925,4.801,4.7992,4.7992,4.8032,4.8032,4.8032,4.8032,4.8402,4.8869,4.9365,4.9529,4.9703,4.9879,4.9898,4.9898,4.9898,4.9807,4.9759,4.9898,4.948,4.929,4.9405,4.8829,4.8495,4.8477,4.8192,4.7992,4.7992,4.7992,4.7992,4.7992,4.7925,4.7663,4.7194,4.6578,4.6098,4.0253,4.0253,4.0234,4.0215,4.0234,4.0269,4.0252,4.0973,4.1718,4.1853,4.31,4.4208,0.0,0.0,0.0,4.2873,4.1691,0.0,4.2614,4.2619,0.0,4.4706,0.0,4.487,4.4846,4.487,0.0,0.0,4.4712,4.4605,4.4515,4.4515,4.4515,4.4515,4.4515,4.4515,4.4515,4.4515,4.4515,4.4515,4.4515,4.4515,4.4515,4.4515,4.4487,4.4468,4.4411,4.4411,4.443,4.4344,4.4373,4.4515,4.5057,4.5442,4.5744,4.64,4.7151,4.7856,4.7631,4.7658,4.7754,4.7481,4.7853,4.8362,4.7842,4.7849,4.7974,4.7741,4.7717,4.7717,4.7819,4.7861,4.7842,4.7929,4.797,4.801,4.813,4.8148,4.8169,4.8229,4.8229,4.8288,4.8532,4.8881,4.9271,4.9637,4.9948,5.0089,4.9906,4.9898,4.9898,4.9898,4.9871,4.9898,5.0031,4.9703,4.9461,4.9314,4.89,4.8532,4.8306,4.8111,4.7992,4.7992,4.7992,4.7992,4.7992,4.797,4.771,4.7194,4.6671,4.6244,4.0438,4.0438,4.0438,4.0438,4.0477,4.0626,4.0988,4.1618,4.2306,4.3052,4.41,0.0,4.5179,4.4636,0.0,0.0,0.0,0.0,4.2749,4.2794,4.3264,0.0,4.508,0.0,4.4991,4.5057,4.5033,0.0,4.4821,4.4745,4.4685,4.4685,4.4685,4.4685,4.4685,4.4659,4.4578,4.4542,4.4515,4.4515,4.4515,4.4515,4.4515,4.4515,4.4515,4.4515,0.0,4.4487,4.4505,4.4805,4.4955,4.5115,4.5884,4.6457,4.6861,4.735,4.8044,4.8776,4.8776,4.8776,4.8727,4.8404,4.8636,4.8906,4.8458,4.8365,4.8346,4.8132,4.8192,4.8271,4.8288,4.821,4.8172,4.8269,4.8172,4.813,4.8208,4.8247,4.8247,4.8306,4.8439,4.8586,4.8781,4.908,4.9405,4.9757,4.9955,5.0095,5.0063,5.0082,5.0082,5.0082,5.0012,5.0057,5.0182,4.9814,4.9598,4.9512,4.9034,4.8658,4.8476,4.8249,4.8151,4.8151,4.8151,4.8151,4.8151,4.809,4.7933,4.7656,4.716,4.6707,4.0609,4.0609,4.0609,4.0609,4.0657,4.0965,4.1887,4.2205,4.2794,4.4533,0.0,4.5241,4.5754,4.5231,4.4355,4.3203,0.0,4.1976,4.2618,4.2771,4.3408,4.4954,4.5241,4.5256,4.5148,4.5213,4.5192,4.4967,4.4943,4.4919,4.4895,4.4895,4.4895,4.4895,4.4895,4.4846,4.4738,4.4605,4.4551,4.4551,4.4542,4.4542,4.4551,4.4515,4.4515,4.4542,4.4515,4.4571,4.4721,4.5416,4.5772,4.596,4.6824,4.7594,4.8194,4.8326,4.8852,4.9509,4.9509,4.949,4.949,4.9179,4.9061,4.9027,4.8767,4.8765,4.8816,4.8694,4.8832,4.8978,4.8866,4.8728,4.8603,4.8746,4.8569,4.8382,4.8439,4.8421,4.8421,4.8421,4.8694,4.8866,4.8866,4.9145,4.9483,4.9757,4.983,4.9981,5.0259,5.0302,5.0302,5.0302,5.0207,5.0182,5.0302,4.9895,4.9655,4.973,4.9145,4.8781,4.8746,4.8458,4.8306,4.8306,4.8306,4.8306,4.8306,4.8247,4.8247,4.8306,4.7747,4.7345,4.0679,4.0679,4.0679,4.0679,4.0771,4.109,4.1915,4.2785,0.0,0.0,4.5518,4.5865,4.5214,4.444,4.3602,4.2662,4.1707,4.1323,4.2036,4.2657,4.3374,0.0,4.4938,4.5338,4.5275,4.5297,0.0,0.0,4.5213,4.5148,4.4895,4.4895,4.4895,4.4895,4.4895,4.4895,4.4889,4.4846,4.4821,4.4821,4.4738,4.4719,4.4821,4.4605,4.4551,4.4659,4.457,0.0,4.551,4.5641,4.6129,4.6861,4.7669,4.8082,4.8288,4.9002,4.9377,4.9509,4.9509,4.9563,4.9653,4.9471,4.9409,4.9358,4.9169,4.9118,4.9099,4.8963,4.8945,4.9011,4.9099,4.9099,4.9099,4.9177,4.9145,4.9113,4.9126,4.9145,4.9145,4.9145,4.9158,4.919,4.919,4.9483,4.973,4.9784,5.0051,5.0236,5.0302,5.0302,5.0302,5.0302,5.0278,5.0278,5.0302,4.9955,4.9646,4.9405,4.9034,4.8694,4.8402,4.8344,4.8306,4.8306,4.8306,4.8306,4.8306,4.8267,4.8267,4.8306,4.7834,4.7567,4.0906,4.0898,4.0898,4.0898,4.0961,4.1343,4.2629,0.0,0.0,0.0,4.5625,4.5492,4.5041,4.3903,0.0,4.2479,4.1613,4.1253,4.1993,4.2703,0.0,4.4109,4.4901,4.538,0.0,4.5338,4.5338,4.5297,4.5297,4.5235,4.5125,4.5103,4.5103,4.5103,4.5057,4.4991,4.4991,4.4919,4.4895,4.4895,4.4821,4.4821,4.4914,4.4789,4.4745,4.4833,4.5092,4.5452,4.5866,4.6665,4.7256,4.7706,4.8551,4.8931,4.9028,4.9442,4.9653,4.9721,4.9721,4.975,4.9788,4.9721,4.9721,4.9692,4.9588,4.9598,4.9655,4.9521,4.9589,4.9674,4.9684,4.9579,4.9531,4.9541,4.9424,4.9314,4.9345,4.9345,4.9375,4.9405,4.9551,4.9664,4.9664,4.9943,5.0149,5.0125,5.0259,5.0325,5.0302,5.0302,5.0302,5.0302,5.0302,5.0302,5.0302,4.9981,4.973,4.957,4.924,4.89,4.855,4.8569,4.8458,4.8306,4.8306,4.8306,4.8306,4.8306,4.8306,4.8306,4.8075,4.7816,4.1051,4.11,4.11,4.11,4.1234,4.1791,4.3352,4.3844,0.0,4.5975,4.5604,4.4937,4.4758,4.345,4.2337,0.0,4.1542,4.1301,4.187,4.2714,4.3453,0.0,4.4891,0.0,4.54,4.5399,0.0,4.5319,4.5317,4.5317,4.5297,4.5297,4.5297,4.5297,4.5192,4.5148,4.5148,4.5057,4.4986,4.4986,4.4943,4.4943,4.4967,4.4938,4.5033,4.5242,4.5741,4.618,4.6596,4.7777,4.8407,4.8633,4.9329,4.9653,4.975,4.975,4.9816,4.9898,4.9898,4.9925,4.9933,4.9933,4.9906,4.9925,4.9933,5.0031,5.0082,5.0005,5.0158,5.0278,5.0182,5.0044,4.991,4.9929,4.973,4.957,4.9608,4.9636,4.9636,4.9692,4.9943,5.0111,5.0111,5.0333,5.0478,5.0435,5.0435,5.0412,5.0325,5.0325,5.0302,5.0302,5.0302,5.0302,5.0302,5.0051,4.9884,4.9784,4.9541,4.9271,4.8934,4.885,4.8694,4.8402,4.8344,4.8306,4.8306,4.8306,4.8306,4.8306,4.8306,4.8075,4.0893,4.1108,4.1108,4.1108,4.1693,4.2536,4.3473,0.0,4.5149,4.6104,4.5616,4.4755,4.3961,4.304,4.2142,4.1342,0.0,4.1094,4.1117,4.248,4.3412,4.3225,0.0,0.0,4.5419,4.54,4.54,4.54,4.538,4.5359,4.5297,4.5297,4.5297,4.5297,4.5297,4.5297,4.5297,4.5275,4.5256,4.5275,4.5148,4.5148,4.5235,4.4991,4.5404,4.6259,4.6215,4.7055,0.0,4.8526,4.9037,4.9757,4.9833,4.9871,4.9898,4.9898,4.9898,4.9898,4.9898,4.9978,5.0082,5.0082,5.0005,4.9906,5.0057,5.0082,5.0133,5.0231,5.0278,5.0302,5.0278,5.0278,5.0259,5.0325,5.0325,5.0325,5.0374,5.0396,5.0396,5.0416,5.0438,5.0459,5.0459,5.05,5.05,5.05,5.05,5.0478,5.0412,5.039,5.0367,5.0302,5.0302,5.0302,5.0302,5.0278,5.012,4.983,4.9757,4.9599,4.9271,4.8967,4.8781,4.8746,4.8476,4.8306,4.8306,4.8306,4.8306,4.8306,4.8306,4.8267,4.0147,4.0374,4.0483,4.0971,4.176,4.2624,4.3495,0.0,4.5243,4.6111,4.5194,4.4119,4.3766,4.255,4.1492,4.116,0.0,0.0,4.1007,4.2415,4.3374,4.3175,4.4619,0.0,0.0,0.0,4.5438,4.54,4.54,4.538,4.5361,4.5319,4.5297,4.5297,4.5297,4.5297,4.5297,4.5297,4.5297,4.5297,4.5254,4.5254,4.5297,4.5192,4.5627,4.6469,4.6868,4.7713,0.0,4.9205,4.9576,4.9898,4.9898,4.9952,5.0031,5.0031,5.0082,5.0139,5.0139,5.0182,5.0231,5.0231,5.0163,5.0158,5.0207,5.0231,5.0231,5.0278,5.0302,5.0302,5.0302,5.0325,5.039,5.0438,5.0457,5.0478,5.0562,5.0562,5.0563,5.0623,5.0623,5.0623,5.0623,5.0623,5.0603,5.0582,5.0562,5.054,5.0478,5.0435,5.039,5.0348,5.0325,5.0302,5.0302,5.0302,5.0236,5.012,5.01,4.9857,4.9314,4.9177,4.89,4.8495,4.8364,4.8306,4.8306,4.8306,4.8306,4.8306,4.8306,4.8306,3.9275,3.9699,4.0045,4.0603,4.176,4.2941,0.0,0.0,4.5486,4.584,4.4726,4.3613,4.3359,4.2128,4.1111,0.0,0.0,4.1169,4.1379,4.2604,4.3626,0.0,0.0,4.6034,0.0,4.5667,4.5495,4.5438,4.5419,4.5419,4.54,4.5361,4.5319,4.5338,4.5317,4.5297,4.5297,4.5297,4.5297,4.5297,4.5297,4.5297,4.5297,4.5545,4.6099,4.694,4.7709,4.85,0.0,4.9791,5.0031,5.0031,5.0031,4.993,4.9796,4.9796,4.9868,4.9939,4.9939,5.0092,5.0302,5.0302,5.0302,5.0325,5.0302,5.0302,5.0302,5.0302,5.0302,5.0325,5.0348,5.0393,5.0457,5.0521,5.0521,5.0542,5.0623,5.0623,5.0643,5.0683,5.0702,5.0702,5.0702,5.0702,5.0683,5.0623,5.0623,5.0603,5.0542,5.0478,5.0435,5.0412,5.0325,5.0302,5.0302,5.0302,5.0302,5.0302,5.0302,5.0076,4.9618,4.9512,4.9177,4.8623,4.8495,4.8402,4.8306,4.8306,4.8306,4.8306,4.8306,4.8306,3.8379,3.9238,3.9901,3.9906,4.1813,4.3683,0.0,0.0,4.6036,4.5195,4.4316,4.3437,4.2578,4.1758,4.1172,4.1113,4.1094,0.0,4.2261,4.3144,4.4247,0.0,0.0,4.7101,4.691,4.6105,4.5568,4.5495,4.5495,0.0,4.54,4.54,4.54,4.5398,4.5338,4.5297,4.5297,4.5297,4.5297,4.5297,4.5297,4.5297,4.5316,4.6118,4.6959,4.7837,4.8716,4.9538,0.0,5.0302,5.0302,5.0302,5.0302,4.9805,4.9098,4.9098,4.9098,4.9098,4.9098,4.9633,5.0302,5.0302,5.0348,5.039,5.0325,5.0302,5.0302,5.0302,5.0348,5.0412,5.0478,5.05,5.0521,5.0582,5.0603,5.0623,5.0683,5.0702,5.0702,5.0702,5.0702,5.0702,5.0702,5.0702,5.0702,5.0702,5.0702,5.0663,5.0603,5.0542,5.0478,5.0412,5.0325,5.0302,5.0302,5.0302,5.0302,5.0302,5.0302,5.0302,5.0302,4.9981,4.9646,4.9302,4.8949,4.8623,4.8306,4.8306,4.8306,4.8306,4.8306,4.8306,3.82,3.9235,4.0173,4.1328,4.3105,4.4589,4.4581,4.5489,4.6049,4.5182,4.4314,4.3437,4.2558,4.1738,4.1191,4.1172,4.1621,0.0,0.0,0.0,0.0,4.4957,4.5801,4.6278,0.0,0.0,4.57,4.5586,4.5568,4.5568,4.555,4.5495,4.5457,4.54,4.538,4.538,4.538,4.5379,4.5378,4.5378,4.5317,4.5297,4.5316,4.6137,4.6978,4.7818,4.8086,4.8697,4.9423,4.885,4.8602,4.8602,4.8602,4.8449,4.822,4.822,4.822,4.822,4.8264,4.8436,4.8764,4.9362,4.9576,4.969,5.0265,5.0457,5.0457,5.0457,5.0438,5.0478,5.0542,5.0582,5.0582,5.0643,5.0663,5.0663,5.0702,5.0702,5.0702,5.0702,5.0702,5.0702,5.0702,5.0702,5.0702,5.0702,5.0702,5.0683,5.0663,5.0563,5.05,5.0478,5.0371,5.0302,5.0302,5.0302,5.0302,5.0302,5.0302,5.0212,4.9955,4.9857,4.9646,4.9333,4.9209,4.9001,4.8658,4.8658,4.8532,4.8306,4.8306,4.8306,0.0,3.8756,3.981,4.149,4.3227,0.0,0.0,4.5662,4.5968,4.4758,4.4069,4.3337,4.2129,4.1523,4.1191,4.1191,4.1875,4.2383,0.0,0.0,0.0,4.5092,0.0,0.0,0.0,4.5978,4.5735,4.564,4.564,4.5622,4.5586,4.5568,4.5513,4.5476,4.5419,4.54,4.54,4.54,4.54,4.54,4.536,4.5339,4.5359,4.6179,4.6827,4.7363,4.7665,4.8124,0.0,4.8028,4.7799,4.7799,4.7799,4.7608,4.7322,4.7343,4.7343,4.7365,4.7491,4.7722,4.8068,4.8663,4.9084,4.9468,5.0063,5.0356,5.05,5.0521,5.0542,5.0542,5.0623,5.0643,5.0643,5.0683,5.0702,5.0702,5.0702,5.0702,5.0702,5.0702,5.0702,5.0702,5.0702,5.0702,5.0702,5.0702,5.0702,5.0702,5.0702,5.0584,5.05,5.05,5.0371,5.0302,5.0302,5.0302,5.0302,5.0302,5.0302,5.0212,5.0,4.9981,4.983,4.9483,4.9483,4.9333,4.9001,4.9001,4.8816,4.8495,4.8495,4.8439,0.0,3.7995,3.9068,4.0742,4.2483,0.0,0.0,0.0,0.0,4.4052,4.3704,4.3166,4.1425,4.1152,4.1191,4.1191,4.1914,4.2461,0.0,4.3203,0.0,0.0,4.6709,0.0,4.7112,4.6327,4.578,4.5709,4.5709,4.5693,4.5603,4.5622,4.5622,4.5622,4.5495,4.5419,4.5419,4.5419,4.5419,4.5419,4.54,4.54,4.5419,4.6241,4.6604,0.0,4.7401,4.7723,4.7723,4.7646,4.7627,4.7627,4.7649,4.7133,4.6447,4.6509,4.653,4.657,4.6752,4.732,4.7973,4.8164,4.8819,4.953,4.9664,5.0101,5.0544,5.0624,5.0624,5.0643,5.0702,5.0702,5.0702,5.0702,5.0702,5.0702,5.0702,5.0702,5.0702,5.0702,5.0702,5.0702,5.0702,5.0702,5.0702,5.0702,5.0702,5.0702,5.0702,5.0584,5.05,5.0521,5.0393,5.0302,5.0325,5.0302,5.0302,5.0302,5.0302,5.0302,5.0302,5.0302,5.0144,4.983,4.983,4.9646,4.9333,4.9314,4.9145,4.885,4.885,4.8694,3.7572,0.0,3.977,4.1443,4.3201,4.461,0.0,0.0,0.0,0.0,0.0,4.3163,4.1418,4.1108,4.1129,4.1129,4.2401,4.3164,4.248,0.0,0.0,4.6131,4.641,4.6728,4.727,4.654,4.5968,4.5789,4.578,4.5764,4.5668,4.569,4.5693,4.5693,4.5605,4.555,4.555,4.5495,4.5476,4.5476,4.5419,4.54,4.5419,4.6282,4.6684,4.6684,4.6875,4.697,4.6913,4.6242,4.5955,4.5975,4.6087,4.5986,4.583,4.5935,4.5979,4.5993,4.61,4.6261,4.6545,4.7222,4.8048,4.8759,4.879,4.9776,5.0889,5.0912,5.0879,5.0841,5.0841,5.0794,5.0702,5.0702,5.0702,5.0702,5.0702,5.0702,5.0702,5.0702,5.0702,5.0702,5.0702,5.0702,5.0702,5.0702,5.0702,5.0702,5.0702,5.0584,5.0523,5.0625,5.044,5.0329,5.0423,5.0352,5.0302,5.0302,5.0302,5.0302,5.0302,5.0302,5.0259,5.0169,4.9929,4.9757,4.9674,4.9424,4.9271,4.9158,4.9158,4.9145,3.7553,3.8476,3.9461,4.1577,4.2847,4.3677,0.0,0.0,0.0,0.0,0.0,4.318,4.1426,4.1074,4.1061,4.1097,4.2199,0.0,0.0,0.0,4.5761,4.6241,4.6651,4.6876,0.0,4.6426,4.6073,4.5906,4.5852,4.5808,4.5735,4.5722,4.5687,4.5687,4.5671,4.5637,4.5586,4.5568,4.555,4.555,4.5513,4.5495,4.5514,4.5937,4.6148,4.6148,4.6129,4.6148,4.6164,4.5683,4.5524,4.5587,4.566,4.5703,4.5703,4.5796,4.5852,4.5863,4.5969,4.6024,4.6154,4.6629,4.7389,4.8082,4.8082,4.8978,5.0062,5.0363,5.0416,5.0472,5.0855,5.0924,5.0875,5.0831,5.0854,5.0895,5.0895,5.0895,5.0895,5.0895,5.0837,5.0798,5.0829,5.0777,5.0721,5.0775,5.074,5.0721,5.0775,5.0701,5.0663,5.0736,5.0587,5.0466,5.0462,5.0393,5.0325,5.0302,5.0302,5.0302,5.0302,5.0302,5.0302,5.0302,5.012,5.0025,5.0025,4.9857,4.9674,4.9541,4.9541,4.9363,3.7187,3.7885,3.8752,4.1246,4.1965,4.2277,0.0,0.0,0.0,0.0,0.0,0.0,0.0,4.1039,0.0,0.0,0.0,0.0,4.4726,4.5527,4.6055,4.6445,4.7022,0.0,4.6482,4.6289,4.6166,4.6039,4.5979,4.5919,4.5838,4.577,4.5715,4.5715,4.5715,4.5668,4.562,4.5622,4.5622,4.562,4.5603,4.5622,4.5603,4.555,4.5513,4.5513,0.0,0.0,4.5634,4.563,4.5698,4.5832,4.5844,4.5856,4.5856,4.5919,4.5959,4.5969,4.6091,4.6211,4.63,4.63,4.6807,4.7393,4.7393,4.7881,4.8562,4.9282,4.9551,4.9817,5.0635,5.0863,5.0908,5.1,5.1064,5.1103,5.1103,5.1103,5.1103,5.1103,5.1006,5.0945,5.1018,5.0883,5.0793,5.0906,5.081,5.0794,5.0902,5.0867,5.0835,5.0835,5.075,5.0625,5.0459,5.0435,5.039,5.0325,5.0302,5.0302,5.0302,5.0302,5.0302,5.0302,5.0302,5.0302,5.0302,5.0302,5.0144,4.9884,4.9884,4.9589,3.6498,3.7344,3.8396,4.0273,4.1382,4.2059,0.0,0.0,0.0,0.0,0.0,0.0,0.0,4.1081,4.1097,0.0,0.0,4.2153,0.0,0.0,4.4922,4.7148,0.0,4.6734,4.7322,4.6715,4.625,4.6189,4.6165,4.6098,4.5982,4.5902,4.5829,4.58,4.5731,4.57,4.5684,4.569,4.569,4.5684,4.5637,4.564,4.5693,4.5622,4.5586,4.5586,0.0,4.5752,4.578,4.584,4.5878,4.5899,4.6005,4.6057,4.6064,4.6181,4.624,4.624,4.6269,4.6277,4.63,4.63,4.6397,4.6495,4.6495,4.6593,4.6862,4.7704,4.8396,4.9075,4.993,5.0088,5.0183,5.0906,5.1081,5.1109,5.1109,5.1109,5.1109,5.1109,5.1089,5.1063,5.1064,5.1057,5.1017,5.0981,5.0971,5.0961,5.0979,5.0985,5.0978,5.0976,5.0816,5.068,5.0664,5.0502,5.039,5.039,5.0325,5.0302,5.0302,5.0302,5.0302,5.0302,5.0302,5.0302,5.0302,5.0302,5.0259,5.0236,5.0236,5.0169,3.6296,3.7204,3.8207,3.9432,4.0466,4.1186,0.0,0.0,0.0,0.0,0.0,0.0,0.0,0.0,4.1052,4.1052,0.0,4.2541,4.4703,4.5058,4.5898,0.0,0.0,4.7675,4.7612,4.7655,4.7305,4.6328,4.666,4.6661,4.6085,4.599,4.5916,4.5805,4.5757,4.5757,4.5757,4.575,4.5754,4.57,4.5668,4.5671,4.5687,4.5712,4.5706,4.5708,0.0,4.5898,4.5959,4.6007,4.6049,4.6112,4.6181,4.6211,4.6211,4.6273,4.63,4.63,4.63,4.6306,4.6293,4.6293,4.6293,4.6293,4.6303,4.63,4.6378,4.6788,4.7489,4.8318,4.9178,4.9706,5.0126,5.0518,5.0951,5.1269,5.1269,5.1269,5.1269,5.1269,5.1206,5.1191,5.1245,5.1162,5.1103,5.1117,5.1045,5.1031,5.1102,5.1039,5.0991,5.0998,5.0874,5.0752,5.0664,5.0563,5.0457,5.0348,5.0325,5.0302,5.0302,5.0302,5.0302,5.0302,5.0302,5.0302,5.0302,5.0302,5.0302,5.0302,5.0302,5.0212,3.6012,3.7034,3.8019,3.8635,0.0,0.0,0.0,0.0,0.0,0.0,0.0,0.0,0.0,4.1006,0.0,4.1017,4.1792,4.2949,4.4477,4.5444,4.664,4.8398,4.8593,4.8417,4.7949,4.8515,4.8262,4.6719,4.7187,4.7104,4.6172,4.6064,4.5988,4.5858,4.5858,4.5858,4.5858,4.5868,4.5819,4.5712,4.5715,4.5735,4.5754,4.578,4.5815,4.584,4.5905,4.6007,4.6091,4.6138,4.6211,4.63,4.63,4.63,4.63,4.63,4.63,4.63,4.63,4.6293,4.6305,4.6305,4.6305,4.6303,4.6295,4.6306,4.6303,4.629,4.6773,4.75,4.8379,4.9082,4.9648,4.9849,5.0523,5.1113,5.1113,5.1269,5.1406,5.1406,5.1328,5.1289,5.1387,5.1273,5.1193,5.124,5.1162,5.1125,5.118,5.1113,5.1031,5.0991,5.0923,5.0825,5.0623,5.0625,5.0585,5.0325,5.0302,5.0302,5.0302,5.0302,5.0302,5.0302,5.0302,5.0302,5.0302,5.0302,5.0302,5.0302,5.0302,5.0169,3.5286,3.6523,3.7819,3.7876,3.9218,0.0,0.0,0.0,0.0,0.0,0.0,0.0,0.0,4.1057,4.1085,4.1085,4.183,4.2728,4.3668,0.0,4.5743,4.7491,4.7688,4.7981,4.8723,4.8866,4.8516,4.7578,4.7558,4.7187,4.6249,4.6182,4.6143,4.6085,4.6085,4.6085,4.6085,4.6085,4.5974,4.58,4.5727,4.5773,4.5866,4.5819,4.5827,4.59,4.6037,4.6095,4.6107,4.6231,4.6296,4.63,4.63,4.63,4.63,4.63,4.63,4.63,4.63,4.63,4.6308,4.6308,4.6308,4.6308,4.6308,4.6301,4.6306,4.6307,4.6347,4.6582,4.7461,4.7734,4.7988,4.8808,4.9668,5.0293,5.0293,5.0879,5.1406,5.1406,5.1387,5.1387,5.1406,5.1386,5.1386,5.1386,5.1382,5.1332,5.1217,5.1198,5.1103,5.0928,5.0902,5.0825,5.0623,5.0769,5.0733,5.0416,5.0325,5.0302,5.0302,5.0302,5.0302,5.0302,5.0302,5.0302,5.0302,5.0302,5.0302,5.0302,5.0302,5.0302,3.5198,3.6504,3.7852,3.78,0.0,0.0,0.0,0.0,0.0,0.0,0.0,0.0,0.0,0.0,4.0961,4.1081,4.183,4.2708,4.3587,4.4445,4.5659,4.7383,4.8086,4.8532,4.8864,4.9846,4.9658,4.7731,4.8102,4.7754,4.6285,4.6197,4.6169,4.6102,4.6095,4.6105,4.6102,4.6095,4.6066,4.5977,4.597,4.5984,4.6023,4.6047,4.6072,4.6084,4.6176,4.6221,4.623,4.6277,4.63,4.63,4.63,4.6306,4.6295,4.6295,4.6268,4.6241,4.6241,4.6209,4.6186,4.6186,4.6186,4.6186,4.6186,4.6179,4.6186,4.6171,4.6219,4.6328,4.6699,4.7187,4.7676,4.8008,4.8769,4.9531,5.0078,5.0449,5.0801,5.1308,5.1406,5.1406,5.1406,5.1406,5.1406,5.1406,5.14,5.1375,5.1322,5.125,5.1162,5.1078,5.1011,5.0926,5.0874,5.0918,5.0889,5.0715,5.0527,5.0396,5.0302,5.0396,5.0396,5.0302,5.0377,5.0377,5.0302,5.0302,5.0302,5.0302,5.0302,5.0302,3.5075,3.6172,3.7368,0.0,0.0,0.0,0.0,0.0,0.0,0.0,0.0,0.0,0.0,0.0,0.0,0.0,4.1792,4.2674,4.3567,4.4445,4.5656,4.7393,4.8349,4.897,4.9243,5.0575,5.0442,4.815,4.8543,4.8121,4.6328,4.623,4.6208,4.6158,4.616,4.6152,4.615,4.6163,4.6152,4.6153,4.6154,4.6141,4.6123,4.6181,4.621,4.6221,4.6278,4.6306,4.6305,4.6295,4.6309,4.6309,4.6303,4.6282,4.6268,4.6276,4.6225,4.617,4.6162,4.6141,4.6095,4.6095,4.6095,4.6095,4.6095,4.6095,4.6095,4.6076,4.6103,4.6143,4.617,4.6676,4.7187,4.7186,4.7868,4.865,4.9258,4.9805,5.0351,5.0918,5.123,5.1406,5.1406,5.1406,5.1406,5.1406,5.1402,5.1369,5.1346,5.1269,5.1172,5.1141,5.1084,5.1042,5.1008,5.1081,5.1078,5.0932,5.0764,5.0606,5.0423,5.0508,5.0527,5.0442,5.0527,5.0527,5.0442,5.0442,5.0442,5.0442,5.0442,5.0399,3.4812,3.5437,3.627,0.0,0.0,0.0,0.0,0.0,0.0,0.0,0.0,4.0694,4.0694,0.0,0.0,4.0981,4.1734,4.2616,4.3564,4.4445,4.5636,4.7373,4.8291,4.9111,5.0008,5.0887,5.0672,4.8935,4.888,4.8138,4.6417,4.63,4.63,4.63,4.63,4.6309,4.6301,4.6309,4.6309,4.6301,4.6301,4.6277,4.6201,4.6201,4.623,4.6308,4.6308,4.6308,4.6308,4.6305,4.6301,4.6301,4.6309,4.6269,4.6209,4.6201,4.6169,4.6096,4.6099,4.6104,4.6104,4.6104,4.6104,4.6104,4.6104,4.6104,4.609,4.602,4.6005,4.5984,4.592,4.6104,4.6307,4.6306,4.6963,4.7598,4.7597,4.8965,5.0176,5.0195,5.084,5.1387,5.1406,5.1406,5.1406,5.1406,5.1406,5.1347,5.1224,5.1203,5.1141,5.1023,5.1128,5.115,5.102,5.1253,5.1281,5.1023,5.0998,5.0898,5.0713,5.0696,5.0696,5.0696,5.0696,5.0696,5.0696,5.0696,5.0696,5.0696,5.0696,5.0624,3.4464,3.5174,0.0,0.0,0.0,0.0,0.0,0.0,0.0,0.0,0.0,4.0593,4.0681,0.0,0.0,4.0857,4.1594,4.2296,4.2655,4.346,4.4451,4.5633,4.6515,4.7608,4.9052,4.9969,5.0262,4.9755,4.9169,4.8369,4.7276,4.6632,4.63,4.63,4.63,4.6303,4.6309,4.6303,4.6303,4.6309,4.6309,4.6289,4.6269,4.6269,4.6273,4.6308,4.6308,4.6308,4.6308,4.6308,4.6308,4.6308,4.6255,4.6222,4.6205,4.6145,4.61,4.6034,4.6035,4.5969,4.5877,4.5877,4.5877,4.5877,4.5877,4.5877,4.5877,4.5858,4.5889,4.5912,4.5849,4.5912,4.6011,4.6029,4.6284,4.6713,4.7327,4.7942,4.8729,4.9961,5.0391,5.0742,5.1308,5.1406,5.1406,5.1406,5.1406,5.1386,5.1347,5.1347,5.132,5.1294,5.1313,5.1327,5.1291,5.1352,5.1366,5.1281,5.1281,5.1132,5.0774,5.0867,5.0835,5.0696,5.0835,5.0835,5.0696,5.0696,5.0696,5.0696,5.0696,5.0694,3.4213,3.4703,0.0,0.0,0.0,0.0,0.0,0.0,0.0,0.0,0.0,4.0519,4.0621,4.0615,0.0,4.0749,4.1197,4.1704,4.2152,4.2714,4.3428,4.4339,4.5234,4.6456,4.8154,4.9091,4.9735,5.0067,4.9286,4.8447,4.7647,4.6768,4.63,4.63,4.63,4.63,4.63,4.63,4.63,4.63,4.63,4.6293,4.6305,4.6307,4.6307,4.6307,4.6306,4.6306,4.6307,4.6278,4.6251,4.6245,4.6182,4.6138,4.6123,4.6085,4.6007,4.593,4.593,4.5858,4.58,4.5805,4.5805,4.5805,4.5771,4.5757,4.5757,4.575,4.578,4.5806,4.575,4.5755,4.5803,4.5894,4.5957,4.617,4.6761,4.7227,4.784,4.8939,4.9705,5.0311,5.084,5.1191,5.1406,5.1406,5.1406,5.1406,5.1406,5.1406,5.1405,5.1408,5.1398,5.1394,5.1394,5.1394,5.141,5.1391,5.14,5.1289,5.1058,5.1049,5.1017,5.0898,5.1015,5.1015,5.0898,5.0898,5.0898,5.0898,5.0898,5.0894,3.4049,0.0,0.0,0.0,0.0,0.0,0.0,0.0,4.0158,4.0177,0.0,4.0473,4.0489,4.0489,4.0549,4.0655,4.0681,4.0982,4.184,4.2085,4.248,4.3371,4.4222,4.5437,4.7194,4.8154,4.9029,4.9926,4.9321,4.8599,4.7877,4.7002,4.6495,4.6417,4.6417,4.6378,4.63,4.63,4.63,4.63,4.63,4.63,4.63,4.6295,4.6301,4.6301,4.6306,4.6287,4.627,4.6228,4.6181,4.6174,4.6088,4.6046,4.5993,4.5974,4.5896,4.58,4.58,4.58,4.58,4.5795,4.5781,4.5781,4.5715,4.57,4.57,4.569,4.5693,4.5673,4.5622,4.5586,4.5654,4.5819,4.5874,4.5914,4.6059,4.6698,4.7327,4.753,4.8811,4.9935,5.0156,5.0801,5.1308,5.1387,5.1406,5.1406,5.1406,5.1406,5.1406,5.14,5.1405,5.1394,5.1394,5.1394,5.1394,5.1394,5.1391,5.1394,5.1394,5.1265,5.121,5.1194,5.1202,5.1202,5.1202,5.1202,5.1202,5.1202,5.1202,5.1132,0.0,3.3788,0.0,0.0,0.0,0.0,0.0,3.9331,3.9724,4.0061,4.0214,4.0304,4.0473,4.0489,4.0504,4.0534,4.0549,4.0646,4.0951,4.1036,4.1432,4.2468,4.2766,4.3587,4.5391,4.6913,4.8138,4.9006,4.9543,4.9738,4.9572,4.8732,4.7955,4.7264,4.7292,4.6983,4.63,4.63,4.63,4.63,4.63,4.63,4.63,4.6303,4.6293,4.6301,4.6306,4.624,4.6141,4.6124,4.605,4.5969,4.5882,4.5858,4.5835,4.5789,4.5765,4.5795,4.5746,4.5746,4.5795,4.5731,4.5715,4.5715,4.5715,4.57,4.57,4.569,4.5693,4.5673,4.5622,4.5586,4.5603,4.5654,4.5727,4.5822,4.5859,4.6046,4.6458,4.7283,4.7728,4.8434,4.9863,5.0264,5.0602,5.1308,5.1406,5.1406,5.1406,5.1406,5.1406,5.1406,5.1394,5.1394,5.1394,5.1394,5.1394,5.1394,5.141,5.1396,5.1394,5.1265,5.1201,5.119,5.1206,5.1202,5.1202,5.1202,5.1202,5.1202,5.1189,5.119,0.0,0.0,0.0,0.0,0.0,0.0,3.8667,3.9017,3.9253,3.9632,3.9962,4.0233,4.0304,4.0406,4.0489,4.0489,4.0489,4.0519,4.0588,4.0655,4.092,4.1513,4.1629,4.2389,4.4196,4.5518,4.6782,4.8084,4.8981,4.9469,4.9483,4.905,4.8582,4.8147,4.8152,4.7767,4.6889,4.6869,4.6679,4.6292,4.6292,4.6264,4.6211,4.6273,4.6257,4.6206,4.6206,4.6142,4.5997,4.5972,4.5919,4.5849,4.5773,4.5742,4.5742,4.5719,4.5715,4.5731,4.558,4.5526,4.5526,4.5362,4.5323,4.5343,4.5437,4.5362,4.5323,4.5586,4.5568,4.5495,4.5568,4.5586,4.5586,4.5586,4.5651,4.5712,4.5786,4.5829,4.6033,4.6571,4.7067,4.7699,4.8638,4.9528,5.04,5.1269,5.1406,5.1406,5.1406,5.1406,5.1406,5.1406,5.1403,5.1394,5.1394,5.1394,5.1394,5.1394,5.1394,5.141,5.1396,5.133,5.1284,5.1248,5.1259,5.1249,5.1249,5.1219,5.1208,5.1208,5.1208,5.122,0.0,0.0,0.0,0.0,0.0,0.0,3.8571,3.8822,3.8892,3.9165,3.9656,4.0061,4.0081,4.0267,4.0441,4.0492,4.0473,4.0473,4.0473,4.0579,4.0674,4.0742,4.0848,4.1517,4.3025,4.4064,4.5286,4.6852,4.7963,4.8691,4.8971,4.9003,4.9009,4.9028,4.8983,4.8496,4.7513,4.7482,4.7053,4.625,4.624,4.6177,4.6076,4.6176,4.6176,4.6076,4.6072,4.5998,4.5886,4.5822,4.5802,4.5761,4.5712,4.5684,4.5684,4.5684,4.5668,4.5616,4.5361,4.5265,4.5206,4.4966,4.4872,4.4896,4.5074,4.4985,4.4872,4.5342,4.5302,4.518,4.54,4.5495,4.5531,4.5531,4.5568,4.5637,4.5742,4.5771,4.5794,4.5863,4.6678,4.7411,4.7591,4.899,5.039,5.1267,5.1406,5.1406,5.1406,5.1406,5.1406,5.1406,5.1406,5.1404,5.1405,5.1398,5.1394,5.1394,5.1394,5.1394,5.1394,5.1396,5.1369,5.1323,5.1281,5.1284,5.1276,5.124,5.119,5.119,5.1197,5.1229,0.0,0.0,0.0,0.0,0.0,0.0,0.0,0.0,3.8862,0.0,3.9165,3.9537,3.9922,4.0042,4.0139,4.0379,4.0413,4.0413,4.0413,4.043,4.0454,4.0538,4.0565,4.0713,4.1059,4.2616,4.3967,4.4846,4.6608,4.8261,4.9605,4.9827,4.9926,4.9926,4.9757,4.8966,4.7513,4.7389,4.688,4.6041,4.5979,4.5938,4.5928,4.5949,4.594,4.592,4.5939,4.5875,4.5808,4.5794,4.5727,4.5637,4.562,4.5603,4.5603,4.5603,4.5494,4.5342,4.5243,4.5096,4.4943,4.4849,4.48,4.48,4.4868,4.4825,4.48,4.4891,4.4872,4.4849,4.4915,4.5074,4.5243,4.5243,4.5438,4.5603,4.562,4.5637,4.5668,4.578,4.6581,4.7495,4.8385,4.9357,5.0321,5.1265,5.1402,5.1406,5.1406,5.1406,5.1406,5.1406,5.1406,5.1406,5.1406,5.1391,5.1394,5.1394,5.1394,5.1394,5.1394,5.139,5.141,5.1386,5.1261,5.122,5.1206,5.1194,5.1194,5.1194,5.12,5.1211,3.2975,0.0,0.0,0.0,0.0,0.0,3.7558,0.0,3.8792,3.8792,3.8892,3.9082,3.9432,3.9757,4.0042,4.0158,4.0307,4.0398,4.0398,4.0398,4.0425,4.0496,4.0496,4.0544,4.0692,4.1823,4.2908,4.3724,4.5495,4.7043,4.8167,4.9248,4.9815,4.9823,4.973,4.9128,4.795,4.742,4.6698,4.5886,4.5863,4.5828,4.5783,4.579,4.5803,4.5835,4.5835,4.5775,4.5684,4.5684,4.5651,4.5586,4.5586,4.5513,4.5381,4.5381,4.5222,4.4988,4.4825,4.4701,4.4599,4.4402,4.4346,4.4374,4.4519,4.4484,4.4402,4.472,4.4676,4.4599,4.4751,4.4891,4.5007,4.5118,4.5263,4.5419,4.5513,4.5568,4.5654,4.5771,4.6125,4.6717,4.769,4.8572,4.9484,5.0469,5.0998,5.1322,5.1386,5.1406,5.1406,5.1406,5.1406,5.1406,5.1406,5.1404,5.1394,5.1394,5.1394,5.1394,5.1394,5.1394,5.141,5.1396,5.133,5.131,5.1316,5.1312,5.1315,5.1315,5.1276,5.1284,0.0,0.0,0.0,0.0,0.0,0.0,0.0,0.0,3.8546,0.0,3.867,3.8762,3.8961,3.9427,3.9794,3.9859,4.01,4.0271,4.0271,4.0326,4.0394,4.0446,4.045,4.05,4.0596,4.1164,4.1865,4.271,4.4244,4.5568,4.6568,4.8101,4.9141,4.9586,4.956,4.9135,4.8314,4.7182,4.6332,4.5708,4.5708,4.5665,4.561,4.5626,4.5642,4.5692,4.5742,4.57,4.5586,4.5586,4.5586,4.5586,4.5513,4.5381,4.5201,4.5118,4.4919,4.4676,4.4465,4.4346,4.4279,4.4079,4.4005,4.4048,4.425,4.4151,4.4079,4.4465,4.4457,4.4346,4.4546,4.465,4.4726,4.4872,4.5007,4.518,4.5457,4.5568,4.5637,4.5727,4.5742,4.6051,4.7008,4.7699,4.8554,4.9777,5.0464,5.098,5.1304,5.1346,5.1367,5.1406,5.1406,5.1406,5.1406,5.1406,5.1405,5.1411,5.1398,5.1394,5.1394,5.1394,5.1406,5.1405,5.1406,5.139,5.1377,5.1375,5.1362,5.1362,5.1316,5.1342,0.0,0.0,0.0,0.0,0.0,0.0,0.0,0.0,0.0,3.8135,3.8451,3.8707,3.8719,3.8931,3.9219,3.9483,3.9762,3.9935,3.9935,4.0138,4.031,4.031,4.031,4.031,4.031,4.0466,4.0864,4.1552,4.2684,4.3984,4.5503,4.6572,4.7884,4.9548,4.9408,4.9003,4.8314,4.6477,4.5565,4.5507,4.5457,4.5419,4.5419,4.5419,4.5419,4.5438,4.5568,4.5603,4.5586,4.5586,4.5586,4.5568,4.5322,4.5222,4.518,4.4896,4.465,4.4411,4.4383,4.4221,4.4036,4.3986,4.4005,4.4005,4.4036,4.4005,4.4005,4.4017,4.4017,4.4017,4.4048,4.4221,4.443,4.4346,4.4572,4.4943,4.5495,4.5586,4.5603,4.5603,4.5603,4.594,4.6922,4.7143,4.7779,4.9543,4.9839,5.019,5.1098,5.1216,5.1265,5.1386,5.1406,5.1406,5.1406,5.1406,5.1406,5.1406,5.1394,5.1394,5.1394,5.1394,5.1394,5.1394,5.1394,5.1372,5.1308,5.13,5.13,5.13,5.13,5.1342,0.0,0.0,0.0,0.0,0.0,3.4235,3.4993,3.6132,3.7198,3.7959,3.8219,3.8401,3.8658,3.8921,3.9129,3.9219,3.9477,3.9717,3.9892,3.9996,4.0098,4.0291,4.031,4.031,4.031,4.0327,4.069,4.1437,4.2391,4.3404,4.4461,4.5899,4.6973,4.7588,4.8084,4.7949,4.7146,4.5916,4.5301,4.5301,4.5277,4.5317,4.5398,4.5399,4.54,4.54,4.5263,4.5342,4.5532,4.54,4.5342,4.5322,4.5052,4.4849,4.4657,4.4572,4.4374,4.4151,4.4151,4.4079,4.4005,4.4005,4.4005,4.4005,4.4005,4.4005,4.4005,4.4005,4.4005,4.4005,4.4005,4.4048,4.4109,4.4221,4.443,4.4676,4.4919,4.5243,4.5495,4.5513,4.555,4.5663,4.6073,4.6593,4.741,4.8657,4.9298,5.0008,5.0945,5.1148,5.1213,5.1274,5.1342,5.1404,5.1406,5.1406,5.1406,5.1406,5.1404,5.14,5.1391,5.1402,5.1394,5.1394,5.1394,5.1386,5.1366,5.1366,5.1366,5.1366,5.1355,5.1385,0.0,0.0,0.0,0.0,0.0,3.3358,3.4106,0.0,3.6416,3.7488,3.7913,3.8168,3.8419,3.8695,3.8931,3.895,3.9192,3.9408,3.9537,3.9721,3.9914,4.0077,4.0176,4.0234,4.0234,4.0234,4.0444,4.0978,4.1838,0.0,4.3538,4.4894,4.5927,4.6481,4.7073,4.7089,4.6511,4.5652,4.5213,4.5235,4.5213,4.5275,4.5378,4.5378,4.5319,4.5201,4.503,4.5118,4.5342,4.5118,4.5052,4.5052,4.4776,4.4546,4.4402,4.4289,4.4151,4.4005,4.4005,4.4005,4.4005,4.4005,4.4005,4.4005,4.4005,4.4005,4.4005,4.3974,4.3974,4.3942,4.3929,4.3865,4.3846,4.4017,4.4192,4.4346,4.4411,4.4872,4.5282,4.5322,4.5419,4.5513,4.5531,4.6049,4.6756,4.7664,4.8546,4.9428,5.041,5.0858,5.1135,5.1195,5.1288,5.1357,5.1402,5.1406,5.1406,5.1406,5.1406,5.1406,5.1403,5.1396,5.1408,5.1405,5.1402,5.1405,5.1391,5.1402,5.1394,5.1394,5.14,5.1386,0.0,0.0,0.0,0.0,0.0,0.0,3.3654,0.0,3.5784,3.6667,3.747,3.8016,3.8018,3.8267,3.851,3.8658,3.8921,3.9055,3.8896,3.9396,3.9739,3.9717,3.9933,4.0077,4.0117,4.0117,4.0117,4.0117,4.09,4.1779,4.2657,4.3536,4.4779,4.6462,4.6481,4.6481,4.65,4.5614,4.5213,4.5297,4.5213,4.5213,4.5297,4.5297,4.5109,4.4776,4.4849,4.4962,4.5052,4.4776,4.4726,4.4751,4.4493,4.4402,4.4374,4.4109,4.4005,4.4005,4.4005,4.4005,4.4005,4.4005,4.4005,4.4005,4.4005,4.4005,4.3974,4.3929,4.3897,4.3865,4.3804,4.3719,4.3634,4.3753,4.3897,4.3986,4.4079,4.4546,4.4985,4.5007,4.5263,4.5457,4.5419,4.5513,4.5876,4.6685,4.7511,4.8428,4.9459,5.0326,5.094,5.1177,5.1195,5.1254,5.1371,5.1381,5.1387,5.1387,5.1406,5.1406,5.1406,5.1406,5.1406,5.1402,5.1398,5.1382,5.1386,5.1394,5.1394,5.1398,5.14,5.1364,3.119,0.0,0.0,0.0,0.0,0.0,0.0,0.0,3.3886,3.554,3.6075,3.6535,3.7648,3.7929,3.8117,3.8433,3.8559,3.8646,3.8818,3.8971,3.9216,3.9651,3.9781,3.987,4.0077,4.0117,4.0117,0.0,4.0917,4.1776,4.2595,4.4005,4.5322,4.6454,4.5881,4.5862,4.6492,4.5608,4.5148,4.5148,4.5148,4.5057,4.4943,4.4929,4.4795,4.4493,4.4336,4.4308,4.4374,4.4346,4.4374,4.443,4.4151,4.4079,4.4091,4.4036,4.4005,4.4005,4.4005,4.4005,4.4005,4.4005,4.4005,4.4005,4.4005,4.4005,4.3974,4.3929,4.3897,4.3865,4.3701,4.3634,4.36,4.36,4.3615,4.3649,4.3682,4.3999,4.4402,4.4849,4.5007,4.5159,4.5362,4.5419,4.5764,4.6666,4.6993,4.7722,4.9256,4.976,5.0211,5.0914,5.1033,5.1064,5.1106,5.1206,5.1262,5.1269,5.1348,5.1406,5.1406,5.1355,5.1322,5.1325,5.1289,5.1252,5.1258,5.1346,5.1404,5.1406,5.1355,5.1323,0.0,0.0,0.0,0.0,0.0,0.0,3.2321,3.2787,3.3413,0.0,3.5647,3.6217,3.7064,3.7487,3.7809,3.7982,3.8186,3.8368,3.8554,3.8688,3.8876,3.9208,3.9458,3.967,3.9826,3.9954,4.0015,4.0015,4.0513,4.1333,4.2533,4.3866,4.5011,4.5871,4.5414,4.5418,4.5891,4.5373,4.5103,4.5103,4.4972,4.4833,4.4707,4.4617,4.4438,4.4125,4.403,4.3923,4.386,4.3905,4.3968,4.4079,4.3961,4.3929,4.3942,4.4005,4.4005,4.4005,4.4005,4.4005,4.4005,4.4005,4.4005,4.4005,4.4005,4.4005,4.3974,4.3883,4.3818,4.3701,4.3582,4.3548,4.3548,4.3532,4.3497,4.3497,4.3497,4.3649,4.3936,4.443,4.4624,4.4825,4.5096,4.5201,4.5454,4.611,4.6551,4.73,4.8682,4.9253,4.9859,5.0809,5.0937,5.0972,5.1005,5.1064,5.1135,5.1167,5.1229,5.1288,5.1327,5.1278,5.125,5.1254,5.1214,5.12,5.12,5.1273,5.1313,5.1316,5.1303,5.1297,0.0,0.0,0.0,0.0,0.0,0.0,3.2179,3.2859,3.3598,0.0,3.5466,3.6232,3.6277,3.7002,3.7577,3.7505,3.788,3.8207,3.8274,3.8491,3.8628,3.8615,3.9073,3.9433,3.9483,3.9712,3.9867,3.9889,4.0049,4.0815,4.236,4.3349,4.4205,4.4931,4.5045,4.5103,4.5103,4.5103,4.5061,4.5038,4.4764,4.4572,4.4474,4.4327,4.4084,4.3758,4.3892,4.3781,4.3497,4.3497,4.36,4.3804,4.3851,4.3897,4.3897,4.3974,4.4005,4.4005,4.4005,4.4005,4.4005,4.3974,4.3974,4.4005,4.3955,4.3974,4.3942,4.3767,4.36,4.3497,4.3444,4.3463,4.3497,4.3497,4.3497,4.3497,4.3497,4.3497,4.3582,4.3878,4.4221,4.4519,4.4726,4.4872,4.5074,4.5322,4.6091,4.6954,4.7837,4.8721,4.9642,5.0642,5.0832,5.0898,5.0946,5.097,5.1005,5.1074,5.1072,5.112,5.1189,5.1189,5.1178,5.1177,5.1171,5.1172,5.1162,5.1199,5.12,5.1206,5.1258,5.1291,0.0,0.0,0.0,0.0,0.0,0.0,3.132,3.1568,3.1873,0.0,3.3471,3.4336,3.5249,3.6277,3.7073,3.7432,3.7792,3.807,3.8207,3.8256,3.8368,3.8585,3.8688,3.898,3.9458,3.9551,3.967,3.9889,4.0555,4.1108,4.1449,4.289,4.3847,4.4045,4.4691,4.5057,4.5103,4.5057,4.4881,4.4617,4.4655,4.4365,4.3804,4.3968,4.3846,4.3463,4.3548,4.3548,4.3497,4.3497,4.3548,4.3667,4.3753,4.3851,4.3897,4.3974,4.4005,4.4005,4.4005,4.4005,4.3955,4.3763,4.3828,4.3974,4.373,4.3781,4.3814,4.3303,4.3321,4.3428,4.3105,4.3268,4.3497,4.3497,4.3497,4.3497,4.3497,4.3497,4.3513,4.3582,4.386,4.4181,4.4438,4.4676,4.4872,4.5052,4.5413,4.6033,4.701,4.7857,4.8702,4.9604,5.0317,5.074,5.0757,5.0858,5.0929,5.0943,5.099,5.1056,5.1111,5.1068,5.1057,5.1119,5.101,5.0961,5.0961,5.1131,5.12,5.1191,5.1281,5.1289,0.0,0.0,0.0,3.1225,0.0,0.0,0.0,3.1918,3.2244,3.2614,3.2984,3.3541,3.4525,3.5314,3.6087,3.6907,3.7377,3.7739,3.8003,3.8158,3.8241,3.8368,3.851,3.8718,3.9017,3.9181,3.9313,3.9439,3.9858,4.034,4.092,4.2001,4.2963,4.3729,4.4367,4.4714,4.4739,4.4739,4.4565,4.4194,4.4125,4.3931,4.3579,4.3597,4.3532,4.3394,4.3463,4.3497,4.3497,4.3497,4.3513,4.3566,4.3719,4.3786,4.3749,4.3942,4.3974,4.3942,4.3974,4.3892,4.3795,4.3646,4.3597,4.3597,4.3597,4.3545,4.3371,4.2792,4.2752,4.2846,4.2882,4.3032,4.3268,4.3444,4.3497,4.3497,4.3497,4.3497,4.3497,4.3497,4.3649,4.386,4.4151,4.4289,4.4538,4.4896,4.5049,4.5545,4.6647,4.7185,4.7953,4.9202,4.976,5.0221,5.0644,5.0758,5.0813,5.0817,5.0827,5.0874,5.0938,5.0957,5.0974,5.1003,5.0945,5.0906,5.0906,5.103,5.1105,5.1105,5.1161,5.1211,0.0,0.0,0.0,0.0,0.0,3.2148,0.0,0.0,0.0,3.3038,3.3198,0.0,0.0,0.0,0.0,0.0,0.0,0.0,0.0,3.7948,0.0,3.814,3.8368,3.8541,3.8585,3.8828,3.9008,3.9008,3.9008,3.9397,4.0326,4.0933,4.1894,4.3228,4.3799,4.4149,4.4299,4.4355,4.4194,4.3818,4.3623,4.3508,4.3442,4.3304,4.3286,4.3376,4.3463,4.3497,4.3497,4.3497,4.3497,4.3532,4.3686,4.3719,4.3615,4.3878,4.3961,4.3897,4.391,4.3795,4.3579,4.3477,4.3232,4.3105,4.3338,4.3177,4.2848,4.2306,4.218,4.2257,4.2555,4.275,4.2957,4.3304,4.3444,4.3497,4.3497,4.3497,4.3497,4.3497,4.3497,4.3582,4.3846,4.3974,4.4181,4.4657,4.4825,4.5232,4.6239,4.6608,4.73,4.8663,4.9183,4.9683,5.0375,5.0587,5.0702,5.0702,5.0702,5.072,5.0775,5.0846,5.0897,5.0906,5.0906,5.0906,5.0906,5.0947,5.099,5.1004,5.1069,5.1105,0.0,0.0,0.0,0.0,3.1315,0.0,0.0,0.0,3.2438,3.29,0.0,0.0,0.0,0.0,0.0,0.0,0.0,0.0,3.6859,3.7449,3.7934,3.7934,3.8106,3.8322,3.8491,3.8818,3.9008,3.9008,3.9008,3.9045,3.9193,3.9984,4.0849,4.1725,4.2497,4.323,4.3974,4.3974,4.3818,4.3474,4.356,4.3373,4.2995,4.3269,4.3305,4.3251,4.3428,4.3497,4.3497,4.3497,4.3497,4.3532,4.36,4.3615,4.3615,4.3832,4.3897,4.3865,4.3697,4.3631,4.3511,4.2958,4.2655,4.2555,4.2732,4.2619,4.2266,4.176,4.1888,4.2115,4.1735,4.2297,4.292,4.2975,4.3232,4.3497,4.3497,4.3497,4.3497,4.3497,4.3497,4.3513,4.3548,4.3814,4.403,4.4106,4.4527,4.4887,4.5163,4.6065,4.68,4.7069,4.8452,4.9433,4.9529,5.026,5.0683,5.0702,5.0702,5.0702,5.0701,5.0829,5.0897,5.0906,5.0906,5.0906,5.0906,5.0906,5.0932,5.1004,5.1069,5.1105,0.0,0.0,0.0,0.0,0.0,0.0,3.2396,0.0,3.308,0.0,0.0,0.0,0.0,0.0,0.0,0.0,3.5734,0.0,0.0,0.0,3.7577,0.0,0.0,0.0,3.8186,3.8346,3.8455,3.8523,3.8455,3.8499,3.8759,3.9417,4.032,4.1449,4.2075,4.2793,4.3623,4.3623,4.344,4.3124,4.316,4.3105,4.3012,4.316,4.3233,4.3214,4.3358,4.3446,4.3446,4.3497,4.3497,4.3479,4.3513,4.3548,4.3566,4.3786,4.3734,4.3563,4.3529,4.3356,4.2995,4.2613,4.2454,4.2356,4.211,4.2008,4.1846,4.1328,4.1283,4.1445,4.149,4.1778,4.2157,4.2418,4.2826,4.3142,4.3142,4.3339,4.3497,4.3497,4.3497,4.3497,4.3497,4.3615,4.3763,4.3949,4.4192,4.4402,4.4624,4.5242,4.5884,4.6443,4.7798,4.8837,4.9356,5.0202,5.0702,5.0702,5.0702,5.0683,5.0701,5.0793,5.0863,5.0897,5.0909,5.0906,5.0906,5.0906,5.0921,5.0932,5.0961,5.0976,3.2023,0.0,0.0,0.0,0.0,0.0,0.0,0.0,0.0,0.0,0.0,0.0,0.0,0.0,0.0,0.0,0.0,3.5891,0.0,3.6781,0.0,0.0,0.0,0.0,0.0,3.7967,3.802,3.8106,3.802,3.8086,3.8382,3.88,3.9574,4.0824,4.1442,4.2132,4.2955,4.3156,4.3142,4.2882,4.2882,4.2938,4.3049,4.3322,4.3341,4.3196,4.3542,4.356,4.3376,4.3446,4.3428,4.3339,4.3339,4.325,4.316,4.3479,4.3356,4.3014,4.3069,4.277,4.2356,4.2187,4.2086,4.2008,4.1613,4.148,4.1418,4.1012,4.0888,4.0965,4.1237,4.1401,4.1561,4.1948,4.2378,4.275,4.2882,4.3123,4.3375,4.3479,4.3497,4.3497,4.3497,4.3497,4.3582,4.3846,4.3942,4.4079,4.4279,4.465,4.5166,4.5841,4.6985,4.8087,4.8971,4.9817,5.0433,5.0683,5.0702,5.0683,5.0701,5.0757,5.0793,5.0863,5.0877,5.0909,5.0909,5.089,5.0906,5.0906,5.0906,5.0906,0.0,0.0,0.0,3.1539,0.0,0.0,0.0,0.0,3.2734,0.0,0.0,0.0,0.0,0.0,0.0,0.0,0.0,0.0,0.0,0.0,0.0,0.0,0.0,0.0,0.0,3.7899,3.7899,0.0,3.7899,3.7899,3.7934,3.8003,3.8433,3.9263,4.0094,4.0944,4.1741,4.2539,4.292,4.2882,4.2882,4.2882,4.2956,4.3848,4.3831,4.3141,4.4016,4.3981,4.3394,4.3394,4.3214,4.292,4.292,4.2634,4.232,4.2828,4.2734,4.2306,4.2121,4.1856,4.1648,4.1648,4.1453,4.1255,4.1209,4.1088,4.0918,4.0871,4.0888,4.0871,4.0935,4.1209,4.1516,4.1516,4.1864,4.2338,4.2806,4.292,4.3032,4.341,4.3497,4.3497,4.3497,4.3497,4.3479,4.3513,4.3781,4.4005,4.3986,4.4519,4.4915,4.4934,4.6023,4.7126,4.8068,4.8875,4.974,5.0644,5.0702,5.0683,5.0701,5.0701,5.072,5.0793,5.0863,5.0899,5.0899,5.0893,5.0906,5.0906,5.0906,5.0906,0.0,0.0,3.2191,3.164,0.0,0.0,0.0,0.0,0.0,0.0,0.0,0.0,0.0,0.0,0.0,0.0,0.0,0.0,0.0,0.0,0.0,0.0,0.0,0.0,0.0,0.0,0.0,0.0,3.781,0.0,3.7917,3.7967,3.8363,3.9157,3.9569,4.0401,4.1705,4.1977,4.2375,4.2882,4.2882,4.2882,4.2918,4.3772,4.3815,4.3248,4.4007,4.3837,4.3012,4.2967,4.2693,4.2302,4.24,4.2157,4.1778,4.2279,4.2279,4.2032,4.1813,4.1675,4.1604,4.1604,4.1408,4.1209,4.1209,4.1041,4.0888,4.0888,4.0888,4.0888,4.0888,4.0995,4.1071,4.1071,4.1401,4.1778,4.1948,4.2458,4.292,4.3087,4.3304,4.3497,4.3497,4.3497,4.3497,4.3497,4.3582,4.3682,4.3682,4.4042,4.4402,4.4624,4.5675,4.6593,4.7126,4.8471,4.9702,5.0644,5.0702,5.0702,5.0702,5.0702,5.0701,5.072,5.0793,5.0846,5.0899,5.0897,5.0893,5.0906,5.0906,5.0906,3.1539,3.1853,0.0,3.164,3.2104,0.0,3.1682,0.0,0.0,0.0,0.0,0.0,0.0,0.0,0.0,0.0,0.0,0.0,0.0,3.5847,0.0,0.0,0.0,0.0,0.0,0.0,3.7685,3.7793,3.7721,3.7649,0.0,3.765,3.7882,3.8255,3.8705,3.948,4.0616,4.1061,4.1582,4.2219,4.2354,4.24,4.2436,4.3243,4.34,4.3101,4.3805,4.3643,4.2802,4.2763,4.2347,4.1768,4.1846,4.1648,4.1328,4.1778,4.1796,4.1507,4.1408,4.1335,4.1335,4.1335,4.1226,4.1071,4.1071,4.0995,4.094,4.1198,4.1078,4.094,4.1198,4.1078,4.0888,4.0888,4.1088,4.1328,4.149,4.199,4.2498,4.2844,4.3123,4.3339,4.3497,4.3497,4.3497,4.3497,4.3497,4.3497,4.3497,4.3781,4.4079,4.4289,4.5141,4.5982,4.6646,4.8298,4.9567,5.0202,5.0529,5.0702,5.0702,5.0702,5.0702,5.0702,5.0739,5.0793,5.0829,5.0846,5.0861,5.0858,5.0858,5.0893]},{"header":{"parameterUnit":"m.s-1","parameterCategory":1,"la1":30.6,"la2":29.2853,"lo1":-89.7004,"lo2":-87.6739,"dy":0.0162,"dx":0.0183,"nx":112,"ny":82,"refTime":"2023-05-12T12:00:00:Z","depth":0,"parameterNumber":3,"parameterNumberName":"V-component_of_WINDS"},"data":[0.0,0.0,0.0,0.0,0.0,0.0,0.0,0.0,0.0,0.0,0.0,0.0,0.0,0.0,0.0,0.0,0.0,0.0,0.0,0.0,0.0,0.0,0.0,0.0,0.0,0.0,0.0,0.0,0.0,0.0,0.0,0.0,0.0,0.0,0.0,0.0,0.0,0.0,0.0,0.0,0.0,0.0,0.0,0.0,0.0,0.0,0.0,0.0,0.0,0.0,0.0,0.0,0.0,0.0,0.0,0.0,0.0,0.0,0.0,0.0,0.0,0.0,0.0,0.0,0.0,0.0,0.0,0.0,0.0,0.0,0.0,0.0,0.0,0.0,0.0,0.0,0.0,0.0,0.0,0.0,0.0,0.0,0.0,0.0,0.0,0.0,0.0,0.0,0.0,0.0,1.5779,1.6374,1.6495,1.6511,1.6619,1.6609,1.6976,1.7959,0.0,0.0,0.0,0.0,0.0,0.0,0.0,0.0,0.0,0.0,0.0,0.0,0.0,0.0,0.0,0.0,0.0,0.0,0.0,0.0,0.0,0.0,0.0,0.0,0.0,0.0,0.0,0.0,0.0,0.0,0.0,0.0,0.0,0.0,0.0,0.0,0.0,0.0,0.0,0.0,0.0,0.0,0.0,0.0,0.0,0.0,0.0,0.0,0.0,0.0,0.0,0.0,0.0,0.0,0.0,0.0,0.0,0.0,0.0,0.0,0.0,0.0,0.0,0.0,0.0,0.0,0.0,0.0,0.0,0.0,0.0,0.0,0.0,0.0,0.0,0.0,0.0,0.0,0.0,0.0,0.0,0.0,0.0,0.0,0.0,0.0,0.0,0.0,0.0,0.0,0.0,0.0,0.0,0.0,0.0,0.0,0.0,0.0,0.0,0.0,0.0,0.0,0.0,0.0,1.6172,1.5315,1.5465,1.5771,1.6285,1.6296,1.6714,1.7951,0.0,0.0,0.0,0.0,0.0,0.0,0.0,0.0,0.0,0.0,0.0,0.0,0.0,0.0,0.0,0.0,0.0,0.0,0.0,0.0,0.0,0.0,0.0,0.0,0.0,0.0,0.0,0.0,0.0,0.0,0.0,0.0,0.0,0.0,0.0,0.0,0.0,0.0,0.0,0.0,0.0,0.0,0.0,0.0,0.0,0.0,0.0,0.0,0.0,0.0,0.0,0.0,0.0,0.0,0.0,0.0,0.0,0.0,0.0,0.0,0.0,0.0,0.0,0.0,0.0,0.0,0.0,0.0,0.0,0.0,0.0,0.0,0.0,0.0,0.0,0.0,0.0,0.0,0.0,0.0,0.0,0.0,0.0,0.0,0.0,0.0,0.0,0.0,0.0,0.0,0.0,0.0,0.0,0.0,0.0,0.0,0.0,0.0,0.0,0.0,0.0,0.0,0.0,1.5966,1.5891,1.5484,1.5632,1.6072,1.7024,1.7267,1.7793,1.8573,1.7863,0.0,0.0,0.0,0.0,0.0,0.0,0.0,0.0,0.0,0.0,0.0,0.0,0.0,0.0,0.0,0.0,0.0,0.0,0.0,0.0,0.0,0.0,0.0,0.0,0.0,0.0,0.0,0.0,0.0,0.0,0.0,0.0,0.0,0.0,0.0,0.0,0.0,0.0,0.0,0.0,0.0,0.0,0.0,0.0,0.0,0.0,0.0,0.0,0.0,0.0,0.0,0.0,0.0,0.0,0.0,0.0,0.0,0.0,0.0,0.0,0.0,0.0,0.0,0.0,0.0,0.0,0.0,0.0,0.0,0.0,0.0,0.0,0.0,0.0,0.0,0.0,0.0,0.0,0.0,0.0,0.0,0.0,0.0,0.0,0.0,0.0,0.0,0.0,0.0,0.0,0.0,0.0,0.0,0.0,0.0,0.0,0.0,0.0,0.0,0.0,0.0,0.0,1.5336,1.5367,1.5928,1.6215,1.6837,1.807,1.837,1.8732,1.917,1.8456,0.0,0.0,0.0,0.0,0.0,0.0,0.0,0.0,0.0,0.0,0.0,0.0,0.0,0.0,0.0,0.0,0.0,0.0,0.0,0.0,0.0,0.0,0.0,0.0,0.0,0.0,0.0,0.0,0.0,0.0,0.0,0.0,0.0,0.0,0.0,0.0,0.0,0.0,0.0,0.0,0.0,0.0,0.0,0.0,0.0,0.0,0.0,0.0,0.0,0.0,0.0,0.0,0.0,0.0,0.0,0.0,0.0,0.0,0.0,0.0,0.0,0.0,0.0,0.0,0.0,0.0,0.0,0.0,0.0,0.0,0.0,0.0,0.0,0.0,0.0,0.0,0.0,0.0,0.0,0.0,0.0,0.0,0.0,0.0,0.0,0.0,0.0,0.0,0.0,0.0,0.0,0.0,0.0,0.0,0.0,0.0,0.0,0.0,0.0,0.0,0.0,0.0,1.5154,1.5092,1.6169,1.7083,1.8062,1.899,1.8732,1.8732,1.917,1.8707,0.0,0.0,0.0,0.0,0.0,0.0,0.0,0.0,0.0,0.0,0.0,0.0,0.0,0.0,0.0,0.0,0.0,0.0,0.0,0.0,0.0,0.0,0.0,0.0,0.0,0.0,0.0,0.0,0.0,0.0,0.0,0.0,0.0,0.0,0.0,0.0,0.0,0.0,0.0,0.0,0.0,0.0,0.0,0.0,0.0,0.0,0.0,0.0,0.0,0.0,0.0,0.0,0.0,0.0,0.0,0.0,0.0,0.0,0.0,0.0,0.0,0.0,0.0,0.0,0.0,0.0,0.0,0.0,0.0,0.0,0.0,0.0,0.0,0.0,0.0,0.0,0.0,0.0,0.0,0.0,0.0,0.0,0.0,0.0,0.0,0.0,0.0,0.0,0.0,0.0,0.0,0.0,0.0,0.0,0.0,0.0,0.0,0.0,0.0,0.0,0.0,0.0,1.5684,1.592,0.0,1.7532,1.8612,1.9758,1.9686,1.9686,1.9872,0.0,0.0,0.0,0.0,0.0,0.0,0.0,0.0,0.0,0.0,0.0,0.0,0.0,0.0,0.0,0.0,0.0,0.0,0.0,0.0,0.0,0.0,0.0,0.0,0.0,0.0,0.0,0.0,0.0,0.0,0.0,0.0,0.0,0.0,0.0,0.0,0.0,0.0,0.0,0.0,0.0,0.0,0.0,0.0,0.0,0.0,0.0,0.0,0.0,0.0,0.0,0.0,0.0,0.0,0.0,0.0,0.0,0.0,0.0,0.0,0.0,0.0,0.0,0.0,0.0,0.0,0.0,0.0,0.0,0.0,0.0,0.0,0.0,0.0,0.0,0.0,0.0,0.0,0.0,0.0,0.0,0.0,0.0,0.0,0.0,0.0,0.0,0.0,0.0,0.0,0.0,0.0,0.0,0.0,0.0,0.0,0.0,0.0,0.0,0.0,0.0,0.0,1.6148,1.6087,1.6242,0.0,1.7614,1.8533,1.9704,1.982,1.982,1.982,0.0,0.0,0.0,0.0,0.0,0.0,0.0,0.0,0.0,0.0,0.0,0.0,0.0,0.0,0.0,0.0,0.0,0.0,0.0,0.0,0.0,0.0,0.0,0.0,0.0,0.0,0.0,0.0,0.0,0.0,0.0,0.0,0.0,0.0,0.0,0.0,0.0,0.0,0.0,0.0,0.0,0.0,0.0,0.0,0.0,0.0,0.0,0.0,0.0,0.0,0.0,0.0,0.0,0.0,0.0,0.0,0.0,0.0,0.0,0.0,0.0,0.0,0.0,0.0,0.0,0.0,0.0,0.0,0.0,0.0,0.0,0.0,0.0,0.0,0.0,0.0,0.0,0.0,0.0,0.0,0.0,0.0,0.0,0.0,0.0,0.0,0.0,0.0,0.0,0.0,0.0,0.0,0.0,0.0,0.0,0.0,0.0,0.0,0.0,0.0,0.0,0.0,1.6657,1.5915,1.5848,1.7166,1.7289,1.7669,1.8696,1.8788,1.8788,0.0,0.0,0.0,0.0,0.0,0.0,0.0,0.0,0.0,0.0,0.0,0.0,0.0,0.0,0.0,0.0,0.0,0.0,0.0,0.0,0.0,0.0,0.0,0.0,0.0,0.0,0.0,0.0,0.0,0.0,0.0,0.0,0.0,0.0,0.0,0.0,0.0,0.0,0.0,0.0,0.0,0.0,0.0,0.0,0.0,0.0,0.0,0.0,0.0,0.0,0.0,0.0,0.0,0.0,0.0,0.0,0.0,0.0,0.0,0.0,0.0,0.0,0.0,0.0,0.0,0.0,0.0,0.0,0.0,0.0,0.0,0.0,0.0,0.0,0.0,0.0,0.0,0.0,0.0,0.0,0.0,0.0,0.0,0.0,0.0,0.0,0.0,0.0,0.0,0.0,0.0,0.0,0.0,0.0,0.0,0.0,0.0,0.0,0.0,0.0,0.0,0.0,0.0,1.6715,1.6095,1.5792,1.6163,1.6922,1.7669,1.8696,1.8788,1.9072,1.982,0.0,0.0,0.0,0.0,0.0,0.0,0.0,0.0,0.0,0.0,0.0,0.0,0.0,0.0,0.0,0.0,0.0,0.0,0.0,0.0,0.0,0.0,0.0,0.0,0.0,0.0,0.0,0.0,0.0,0.0,0.0,0.0,0.0,0.0,0.0,0.0,0.0,0.0,0.0,0.0,0.0,0.0,0.0,0.0,0.0,0.0,0.0,0.0,0.0,0.0,0.0,0.0,0.0,0.0,0.0,0.0,0.0,0.0,0.0,0.0,0.0,0.0,0.0,0.0,0.0,0.0,0.0,0.0,0.0,0.0,0.0,0.0,0.0,0.0,0.0,0.0,0.0,0.0,0.0,0.0,0.0,0.0,0.0,0.0,0.0,0.0,0.0,0.0,0.0,0.0,0.0,0.0,0.0,0.0,0.0,0.0,0.0,0.0,0.0,0.0,0.0,0.0,1.6904,1.5879,1.533,1.5798,1.6358,1.7109,1.8133,1.8603,1.9072,1.9629,0.0,0.0,0.0,0.0,0.0,0.0,0.0,0.0,0.0,0.0,0.0,0.0,0.0,0.0,0.0,0.0,0.0,0.0,0.0,0.0,0.0,0.0,0.0,0.0,0.0,0.0,0.0,0.0,0.0,0.0,0.0,0.0,0.0,0.0,0.0,0.0,0.0,0.0,0.0,0.0,0.0,0.0,0.0,0.0,0.0,0.0,0.0,0.0,0.0,0.0,0.0,0.0,0.0,0.0,0.0,0.0,0.0,0.0,0.0,0.0,0.0,0.0,0.0,0.0,0.0,0.0,0.0,0.0,0.0,0.0,0.0,0.0,0.0,0.0,0.0,0.0,0.0,0.0,0.0,0.0,0.0,0.0,0.0,0.0,0.0,0.0,0.0,0.0,0.0,0.0,0.0,0.0,0.0,0.0,0.0,0.0,0.0,0.0,0.0,0.0,0.0,0.0,1.7252,1.5514,1.4675,1.5514,1.5704,1.617,1.7196,1.8226,1.888,1.8888,0.0,0.0,0.0,0.0,0.0,0.0,0.0,0.0,0.0,0.0,0.0,0.0,0.0,0.0,0.0,0.0,0.0,0.0,0.0,0.0,0.0,0.0,0.0,0.0,0.0,0.0,0.0,0.0,0.0,0.0,0.0,0.0,0.0,0.0,0.0,0.0,0.0,0.0,0.0,0.0,0.0,0.0,0.0,0.0,0.0,0.0,0.0,0.0,0.0,0.0,0.0,0.0,0.0,0.0,0.0,0.0,0.0,0.0,0.0,0.0,0.6338,0.0,0.0,0.0,0.0,0.0,0.0,0.0,0.0,0.0,0.0,0.0,0.0,0.0,0.0,0.0,0.0,0.0,0.0,0.0,0.0,0.0,0.0,0.0,0.0,0.0,0.0,0.0,0.0,0.0,0.0,0.0,0.0,0.0,0.0,0.0,0.0,0.0,0.0,0.0,0.0,0.0,1.7282,1.5514,1.4394,1.458,1.533,1.617,1.7196,1.8226,1.9163,1.992,2.0201,0.0,0.0,0.0,0.0,0.0,0.0,0.0,0.0,0.0,0.0,0.0,0.0,0.0,0.0,0.0,0.0,0.0,0.0,0.0,0.0,0.0,0.0,0.0,0.0,0.0,0.0,0.0,0.0,0.0,0.0,0.0,0.0,0.0,0.0,0.0,0.0,0.0,0.0,0.0,0.0,0.0,0.0,0.0,0.0,0.0,0.0,0.0,0.0,0.0,0.0,0.0,0.0,0.0,0.0,0.0,0.0,0.0,0.0,0.0,0.0,0.6342,0.0,0.0,0.0,0.0,0.0,0.0,0.0,0.0,0.0,0.0,0.0,0.0,0.0,0.0,0.0,0.0,0.0,0.0,0.0,0.0,0.0,0.0,0.0,0.0,0.0,0.0,0.0,0.0,0.0,0.0,0.0,0.0,0.0,0.0,0.0,0.0,0.0,0.0,0.0,0.0,1.664,1.5235,1.4298,1.4298,1.5609,1.6734,1.7296,1.8696,1.9729,2.0292,2.0292,0.0,0.0,0.0,0.0,0.0,0.0,0.0,0.0,0.0,0.0,0.0,0.0,0.0,0.0,0.0,0.0,0.0,0.0,0.0,0.0,0.0,0.0,0.0,0.0,0.0,0.0,0.0,0.0,0.0,0.0,0.0,0.0,0.0,0.0,0.0,0.0,0.0,0.0,0.0,0.0,0.0,0.0,0.0,0.0,0.0,0.0,0.0,0.0,0.0,0.0,0.0,0.0,0.0,0.618,0.6338,0.6338,0.6288,0.6298,0.6298,0.6325,0.6403,0.6522,0.6678,0.0,0.0,0.0,0.0,0.0,0.0,0.0,0.0,0.0,0.0,0.0,0.0,0.0,0.0,0.0,0.0,0.0,0.0,0.0,0.0,0.0,0.0,0.0,0.0,1.3285,1.3187,1.3738,0.0,0.0,0.0,0.0,0.0,0.0,0.0,0.0,0.0,0.0,0.0,1.5893,1.4956,1.4298,1.4298,1.5981,1.7008,1.7008,1.8696,1.982,2.0011,2.0011,2.0102,0.0,0.0,0.0,0.0,0.0,0.0,0.0,0.0,0.0,0.0,0.0,0.0,0.0,0.0,0.0,0.0,0.0,0.0,0.0,0.0,0.0,0.0,0.0,0.0,0.0,0.0,0.0,0.0,0.0,0.0,0.0,0.0,0.5944,0.6633,0.0,0.0,0.0,0.0,0.0,0.0,0.0,0.0,0.0,0.0,0.0,0.0,0.0,0.6556,0.5864,0.6099,0.6261,0.6261,0.6261,0.6338,0.6342,0.6386,0.6444,0.6451,0.6583,0.0,0.6681,0.6834,0.0,0.0,0.0,0.0,0.0,0.0,0.0,0.0,0.0,0.0,0.0,0.0,0.0,0.0,0.0,0.0,0.0,0.0,0.0,0.0,0.0,0.0,1.3736,1.3831,1.4011,1.438,0.0,1.4659,1.4198,1.5444,1.5152,0.0,0.0,0.0,0.0,0.0,0.0,0.0,1.5798,1.4956,1.4298,1.4298,1.533,1.5981,1.5981,1.7008,1.8041,1.8972,1.898,1.9355,2.0292,2.0292,0.0,0.0,0.0,0.0,0.0,0.0,0.0,0.0,0.0,0.0,0.0,0.0,0.0,0.0,0.0,0.0,0.0,0.0,0.0,0.0,0.0,0.0,0.0,0.0,0.0,0.0,0.0,0.0,0.0,0.5867,0.6096,0.6938,0.7625,0.8313,0.0,0.0,0.0,0.0,0.0,0.0,0.0,0.0,0.0,0.6788,0.6938,0.6788,0.6103,0.6805,0.7163,0.7163,0.7255,0.7297,0.7301,0.681,0.66,0.661,0.6763,0.6827,0.6834,0.6902,0.701,0.7139,0.0,0.0,0.0,0.0,0.8017,0.8368,0.7404,0.7404,0.8017,0.889,0.0,0.0,0.0,0.0,0.0,0.0,0.0,0.0,0.0,0.0,1.4949,1.5615,1.5798,1.588,1.6546,1.5792,1.5087,0.0,1.5717,1.615,1.8018,0.0,0.0,0.0,0.0,1.5807,1.507,1.458,1.4298,1.4298,1.5235,1.5798,1.5798,1.6734,1.7762,1.8703,1.8788,1.9255,2.0292,2.0292,2.0292,0.0,0.0,0.0,0.0,0.0,0.0,0.0,0.0,0.0,0.0,0.0,0.0,0.0,0.0,0.0,0.0,0.0,0.0,0.0,0.0,0.0,0.0,0.0,0.0,0.0,0.0,0.0,0.0,0.6173,0.6402,0.7165,0.7548,0.8008,0.0,0.0,0.0,0.0,0.0,0.0,0.7851,0.7999,0.7868,0.7231,0.7459,0.741,0.7074,0.7903,0.8289,0.8293,0.8427,0.8487,0.841,0.7808,0.7499,0.7511,0.7591,0.7666,0.7666,0.7152,0.7044,0.7139,0.7404,0.7841,0.8456,0.7753,0.8017,0.8715,0.7753,0.8017,0.889,0.9492,1.0357,1.1284,1.1904,0.0,0.0,0.0,0.0,1.4777,1.5596,1.5873,1.6156,1.7102,1.7196,1.7095,1.7576,1.7016,1.6292,0.0,1.615,1.6665,1.7639,0.0,0.0,0.0,0.0,1.568,1.4418,1.4298,1.4298,1.4298,1.4956,1.5419,1.5419,1.6358,1.739,1.8326,1.8696,1.9255,2.0292,2.0292,2.0292,2.0292,0.0,0.0,0.0,0.0,0.0,0.0,0.0,0.0,0.0,0.0,0.0,0.0,0.0,0.0,0.0,0.0,0.0,0.0,0.0,0.0,0.0,0.0,0.0,0.0,0.0,0.0,0.0,0.0,0.0,0.7403,0.7022,0.0,0.0,0.0,0.0,0.8703,0.9533,0.9609,0.8699,0.8851,0.8707,0.8115,0.8352,0.8599,0.9041,0.9294,0.9457,0.9461,0.939,0.9394,0.9399,0.9521,0.9527,0.9536,0.9647,0.9735,0.9648,0.7826,0.7132,0.7228,0.8105,0.8456,0.8456,0.8456,0.9061,0.9662,0.8711,0.8886,0.9579,0.9836,1.0647,1.1548,1.1181,1.272,0.0,0.0,1.5622,1.648,1.672,1.7001,1.7196,1.7296,1.7289,1.7576,1.8511,1.8326,1.7586,0.0,1.5999,1.6265,1.7522,0.0,1.7318,1.7318,1.648,1.5439,1.4388,1.4298,1.4298,1.4298,1.4394,1.4394,1.4394,1.533,1.6264,1.7296,1.8226,1.9255,2.0292,2.0292,2.0292,2.0292,2.0292,0.0,0.0,0.0,0.0,0.0,0.0,0.0,0.0,0.0,0.0,0.0,0.0,0.0,0.0,0.0,0.0,0.0,0.0,0.0,0.0,0.0,0.0,0.0,0.0,0.0,0.0,0.0,0.0,0.7702,0.7553,0.0,0.9069,0.8927,0.8775,0.8851,0.874,0.8503,0.8117,0.8462,0.8644,0.8559,0.8801,0.9076,0.9394,1.0187,1.0507,1.0507,1.0658,1.0647,1.0647,1.0042,0.9819,0.9823,0.9894,0.9923,0.9836,0.9139,0.8882,0.8965,0.9231,0.9405,0.9405,0.9405,0.9575,0.9836,0.9492,0.9927,1.0738,1.1329,1.1779,1.2167,1.1947,1.2596,1.3624,1.4465,1.5134,1.5893,1.7468,1.8025,1.8419,1.9072,1.9255,1.9355,1.9729,1.9163,1.8427,1.8198,1.7705,1.7586,1.8594,1.8065,1.7604,1.7706,1.6759,1.5641,1.4412,1.4298,1.4298,1.4298,1.4298,1.4298,1.4298,1.5235,1.6264,1.7203,1.8226,1.9255,2.0292,2.0292,2.0292,2.0292,2.0292,2.0292,0.0,0.0,0.0,0.0,0.0,0.0,0.0,0.0,0.0,0.0,0.0,0.0,0.0,0.0,0.0,0.0,0.0,0.0,0.0,0.0,0.0,0.0,0.0,0.0,0.0,0.0,0.624,0.7927,0.7752,0.8099,0.9561,0.9401,0.9213,0.9213,0.9034,0.8871,0.8871,0.9157,0.9428,0.9669,0.9916,1.0197,1.0517,1.1177,1.1595,1.1679,1.1679,1.1671,1.1757,1.1058,1.0794,1.0875,1.0875,1.0875,1.0885,1.0963,1.0999,1.0901,1.0212,0.9923,0.9923,0.9923,1.0144,1.0567,1.0906,1.147,1.2124,1.2388,1.2609,1.2657,1.2554,1.2863,1.3431,1.4657,1.5317,1.6075,1.8041,1.8788,1.9263,1.992,2.0201,2.0292,2.0292,1.9637,1.9144,1.9276,1.8761,1.8528,1.9264,1.8926,1.8471,1.8006,1.7156,1.6128,1.4706,1.4394,1.4298,1.4298,1.4298,1.4298,1.4298,1.5708,1.6753,1.7296,1.8824,1.9944,2.0497,2.06,2.0617,2.0489,2.0489,2.0549,2.0668,0.0,0.0,0.0,0.0,0.0,0.0,0.0,0.0,0.0,0.0,0.0,0.0,0.0,0.0,0.0,0.0,0.0,0.0,0.0,0.0,0.0,0.0,0.0,0.7693,0.6857,0.671,0.8021,0.7473,0.7334,0.8137,0.9346,1.0034,0.9791,1.0552,1.0972,1.0972,1.0983,1.1089,1.1316,1.1577,1.1949,1.2363,1.2448,1.2534,1.2705,1.2448,1.2534,1.2705,1.246,1.2546,1.2717,1.2729,1.2729,1.2747,1.3025,1.3139,1.2933,1.0814,1.0028,1.0028,1.0028,1.0777,1.1898,1.2875,1.3332,1.3423,1.2974,1.2951,1.3057,1.2892,1.3339,1.419,1.5514,1.6365,1.7217,1.845,1.9188,1.9546,1.9546,1.992,2.0292,2.0292,1.992,1.9546,1.9546,1.9171,1.8899,1.9138,1.9861,1.982,1.8326,1.7669,0.0,1.5267,1.4688,1.4394,1.4406,1.4406,1.4406,1.4412,1.6574,1.7765,1.734,1.9844,2.1251,2.0908,2.1225,2.1251,2.09,2.09,2.1071,2.1413,0.0,0.0,0.0,0.0,0.0,0.0,0.0,0.0,0.0,0.0,0.0,0.0,0.0,0.0,0.0,0.0,0.0,0.0,0.0,0.0,0.0,0.0,0.7809,0.799,0.7107,0.7153,0.888,0.8859,0.9138,1.0124,1.0509,1.0789,1.0864,1.1117,1.1216,1.1216,1.1394,1.1612,1.1759,1.2093,1.2292,1.2363,1.2534,1.2454,1.2209,1.2369,1.2448,1.2454,1.2655,1.2838,1.3019,1.3212,1.329,1.3296,1.3375,1.3405,1.3309,1.2777,1.2473,1.2473,1.2473,1.2698,1.3044,1.3302,1.3423,1.3453,1.3078,1.3088,1.318,1.3463,1.3759,1.4286,1.6082,1.6741,1.7217,1.845,1.892,1.9004,1.9004,1.9104,1.9196,1.9196,1.9104,1.9004,1.9004,1.8912,1.8936,1.9393,1.9987,1.992,1.8788,1.8511,0.0,1.5805,1.552,1.5504,1.5816,1.5842,1.5927,1.6137,1.8079,1.897,1.8103,2.0119,2.1362,2.1268,2.1353,2.1362,2.1268,2.1268,2.1311,0.0,0.0,0.0,0.0,0.0,0.0,0.0,0.0,0.0,0.0,0.0,0.0,0.0,0.0,0.0,0.0,0.0,0.0,0.0,0.0,0.0,0.0,0.8487,0.8401,0.8783,0.789,0.7797,0.9371,0.9712,1.0187,1.1193,1.1453,1.1598,1.1603,1.1483,1.1477,1.1477,1.1707,1.1785,1.1693,1.2032,1.2203,1.2118,1.2289,1.2342,1.2371,1.2452,1.2586,1.2692,1.2856,1.3022,1.3112,1.3357,1.3513,1.3525,1.3634,1.3676,0.0,0.0,0.0,0.0,0.0,1.3676,1.3694,1.3803,1.3845,1.377,1.3549,1.3596,1.3809,1.4052,1.4196,1.4669,1.6183,1.656,1.685,1.7885,1.8357,1.855,1.855,1.8643,1.8827,1.8827,1.8643,1.855,1.855,1.855,0.0,1.9103,1.9469,1.9371,1.8619,1.8644,1.8254,1.6838,1.6381,1.633,1.6511,1.6144,1.5918,1.6079,1.8188,0.0,0.0,0.0,2.1884,2.1884,2.1739,0.0,0.0,0.0,2.1633,2.1492,0.0,0.0,0.0,2.2793,2.3738,0.0,0.0,0.0,0.0,0.0,0.0,0.0,0.0,0.0,0.0,0.0,0.0,0.0,0.0,0.0,0.0,0.8886,0.8704,0.9639,0.9086,0.8886,0.9784,1.0211,1.0847,1.1611,1.2064,1.2198,1.2043,1.1785,1.1699,1.1699,0.0,0.0,0.0,0.0,1.1911,1.1738,1.2025,1.2325,1.2727,1.2815,1.2927,1.3053,1.3179,1.3191,1.3191,1.3409,1.3604,1.3622,1.3851,1.3954,1.3924,1.3694,1.3604,1.3634,1.3863,1.3954,1.3984,1.4214,0.0,0.0,1.3925,1.4214,1.4592,1.4394,1.4771,1.5337,1.6096,1.6285,1.6473,1.7138,1.7613,1.7986,1.7986,1.8365,1.8643,1.8643,1.8303,1.8047,1.8047,1.8077,1.8199,1.8502,1.8746,1.8714,1.838,1.8532,1.8517,1.8045,1.7415,1.7,1.6934,0.0,0.0,1.5395,1.7631,1.8881,1.8493,2.1054,2.2644,2.2644,2.2235,2.221,2.2544,2.2227,2.192,2.1725,2.1623,2.1717,2.1895,2.3791,2.5099,0.0,0.0,0.0,0.0,0.0,0.0,0.0,0.0,0.0,0.0,0.0,0.0,0.0,0.0,0.0,1.0081,0.9819,0.9665,0.988,1.0373,1.0776,1.0947,1.1075,1.1278,1.1627,1.1757,1.1866,1.1957,1.1785,1.1699,1.1699,1.1527,1.1527,1.1613,1.1882,1.1982,1.1982,1.2534,1.275,1.2524,0.0,0.0,1.2877,1.3084,1.3269,1.3461,1.3684,1.3969,1.4153,1.4201,1.422,1.4214,1.4165,1.4147,1.4153,1.4201,1.422,1.4226,1.428,1.4208,1.3925,1.3636,1.3919,1.449,1.4867,1.5432,0.0,1.6857,1.7044,1.7138,1.7232,1.7419,1.7419,1.7419,1.7512,1.7606,1.7606,1.7727,1.7816,1.7816,1.8126,1.8236,1.8393,1.8808,1.9257,1.9445,1.9539,1.9287,1.8302,1.8057,1.7896,1.753,1.7252,1.725,1.7382,1.9089,2.0028,1.9778,2.1541,2.2644,2.2644,2.2576,2.2475,2.2644,2.2475,2.2274,2.1725,2.1224,2.1717,2.302,2.342,2.3908,0.0,0.0,0.0,0.0,0.0,0.0,0.0,0.0,0.0,0.0,0.0,1.142,0.0,0.0,1.0824,1.0824,1.0651,1.0559,1.0559,1.0997,1.1354,1.144,1.1527,1.1613,1.1871,1.1785,1.1699,1.1871,1.1613,1.1581,1.1696,1.1701,1.1756,1.1876,1.2081,1.2141,1.2051,1.2535,1.2751,1.2777,1.3153,1.3316,1.3356,1.3667,1.3625,1.3541,1.3962,1.4118,1.4112,1.4202,1.4298,1.4298,1.4298,1.4298,1.4298,1.4298,1.4298,1.4298,1.4298,1.4112,1.3931,1.4022,1.4394,1.4962,1.5527,1.619,1.6857,1.7232,1.7326,1.7326,1.7326,1.7326,1.7369,1.753,1.7574,1.7618,1.7779,1.7947,1.8057,1.8057,1.8196,1.8357,1.8518,1.8805,1.9094,1.9094,1.9429,1.9537,1.9032,1.8873,1.8622,1.8466,1.7867,1.7624,1.7772,1.902,2.0158,2.0901,2.1725,2.2342,2.2552,2.2342,2.2131,2.2131,2.1937,2.1428,2.0901,2.0601,2.131,2.2911,2.2911,2.361,0.0,0.0,0.0,0.0,0.0,0.0,0.0,0.0,1.1444,1.1133,1.1435,1.1785,1.1348,1.144,1.1527,1.1354,1.1262,1.1262,1.1262,1.1262,1.137,1.1679,1.164,1.1699,1.1871,1.1743,1.1684,1.1684,1.1549,1.1569,1.1758,1.1942,1.2029,1.2135,1.2275,1.2303,1.2118,1.2439,1.2746,1.3225,1.3414,1.3625,1.3835,1.4112,1.4016,1.3636,1.4016,1.4118,1.4022,1.4112,1.4298,1.4298,1.4298,1.4298,1.4208,1.4298,1.4298,1.4298,1.4202,1.4022,1.3931,1.4496,1.4968,1.5432,1.6001,1.6756,1.7326,1.7326,1.7377,1.7421,1.7421,1.7472,1.7582,1.7845,1.7911,1.7984,1.8247,1.835,1.8394,1.8394,1.8445,1.8577,1.884,1.8884,1.8796,1.8525,1.8903,1.9261,1.9261,1.8971,1.8603,1.8499,1.7674,1.7259,1.7575,1.8715,1.996,2.142,2.1522,2.1725,2.2241,2.1827,2.1522,2.1522,2.1121,2.0609,2.0078,2.0078,2.0885,2.2484,2.2484,2.3601,1.1486,1.1679,1.1858,1.1958,1.1769,1.1333,0.0,0.0,1.1052,1.0202,1.0733,1.1348,1.1354,1.1348,1.1348,1.1262,1.1262,1.1262,1.1262,1.1262,1.1429,1.1634,1.1478,1.1354,1.1354,1.1537,1.1661,1.1661,1.1849,1.1978,1.2005,1.2102,1.2113,1.214,1.2258,1.2377,1.2371,1.2767,1.308,1.3108,1.3596,1.3709,1.3539,1.3835,1.3931,1.3835,1.3931,1.4022,1.4202,1.4022,1.4118,1.4298,1.4298,1.4112,1.3925,1.4202,1.4298,1.4298,1.4022,1.3738,1.3636,1.4202,1.4675,1.5242,1.6001,1.6756,1.7326,1.7326,1.7538,1.7765,1.7765,1.7977,1.8203,1.824,1.8247,1.8255,1.8291,1.8525,1.8738,1.8738,1.8964,1.9177,1.9213,1.922,1.9213,1.9177,1.8658,1.8144,1.8144,1.7443,1.6723,1.598,1.5773,1.6193,1.7437,1.902,2.0292,2.0917,2.1027,2.1019,2.1121,2.1027,2.1027,2.1027,2.0917,2.0609,2.0078,2.0078,2.0885,2.2484,2.2484,2.3601,1.1543,1.1578,0.0,0.0,1.1702,1.139,1.1149,1.1176,1.1176,1.0824,1.0559,1.0472,1.0472,1.0472,1.0472,0.0,1.0911,1.1262,1.1262,1.1467,1.1591,1.1688,1.1736,1.1758,1.1758,1.1844,1.1903,1.1903,1.2086,1.2108,1.2253,1.2264,1.2323,1.2457,1.2565,1.2619,1.2619,1.2672,1.2822,1.3147,1.3205,1.3307,1.3539,1.3738,1.4027,1.4112,1.3931,1.4022,1.4298,1.4208,1.4118,1.4118,1.4118,1.3925,1.3738,1.3925,1.3919,1.3823,1.3732,1.3829,1.4112,1.4771,1.5337,1.5906,1.6662,1.7174,1.7611,1.7611,1.7845,1.8101,1.8101,1.8196,1.835,1.854,1.8584,1.8635,1.8833,1.8979,1.9074,1.9074,1.9184,1.9279,1.9279,1.8848,1.852,1.852,1.8199,1.7989,1.7989,1.7252,1.6518,1.6199,1.6199,1.6617,1.766,1.8506,1.9346,2.0395,2.0395,2.0601,2.0917,2.0609,2.0395,2.0395,2.0094,1.9894,1.968,2.0285,2.1183,2.2484,2.3185,2.4205,1.1427,0.0,0.0,1.1821,1.1699,1.1435,1.1527,1.1262,1.0911,1.0911,1.0207,0.9506,0.9506,0.9506,0.9593,0.9859,1.0472,1.1024,1.1353,1.1591,1.1747,1.1881,1.2043,1.2178,1.2335,1.2188,1.2151,1.2151,1.221,1.2323,1.2501,1.2511,1.2587,1.2759,1.2764,1.2764,1.2764,1.2597,1.2693,1.305,1.2975,1.3082,1.3443,1.3642,1.3925,1.4208,1.3925,1.4022,1.4298,1.4202,1.4112,1.4022,1.4022,1.3829,1.3539,1.3738,1.3642,1.3443,1.3443,1.3823,1.4394,1.5057,1.577,1.651,1.7174,1.7691,1.7947,1.7947,1.8182,1.8438,1.8438,1.8503,1.8628,1.8869,1.8921,1.8986,1.922,1.9279,1.9279,1.9279,1.9279,1.9279,1.9279,1.8624,1.7982,1.7772,1.7457,1.7351,1.7351,1.6518,1.5992,1.5992,1.6205,1.6617,1.7246,1.7779,1.8401,1.9457,1.9768,2.0086,2.0411,2.0094,1.9879,1.9879,1.948,1.9279,1.9279,2.0078,2.1183,2.2484,2.3285,2.4402,1.108,0.0,1.1408,1.1607,1.1699,1.1613,1.1348,1.0559,0.9946,0.9946,0.9157,0.8544,0.8544,0.8544,0.8807,0.9772,0.9946,1.0367,1.1478,1.1693,1.1871,1.2339,1.2398,1.2495,0.0,1.2538,1.2404,1.2404,1.2614,1.2748,1.2754,1.2754,1.2754,1.2764,1.2764,1.2764,1.2764,1.2759,1.2754,1.2764,1.3044,1.3141,1.3147,1.3346,1.3642,1.3931,1.3642,1.3823,1.4298,1.4022,1.4022,1.4298,1.4298,1.4016,1.3539,1.3539,1.3539,1.3443,1.3244,1.3624,1.4394,1.4956,1.5813,1.6822,1.7601,1.8028,1.8284,1.8284,1.8525,1.8774,1.8774,1.9008,1.925,1.9257,1.9257,1.9264,1.9272,1.9279,1.9279,1.9279,1.9279,1.9279,1.9279,1.8624,1.7772,1.7239,1.6187,1.5559,1.5559,1.4826,1.4299,1.4299,1.5035,1.5559,1.5559,1.7041,1.7982,1.8094,1.884,1.9383,1.9383,1.9376,1.9272,1.9272,1.9279,1.9279,1.9279,1.9376,2.038,2.2484,2.2484,2.3701,1.0361,1.0467,1.0467,1.0564,1.0564,1.0651,1.0819,1.0028,0.9327,0.9676,0.8359,0.7365,0.7904,0.7545,0.7545,0.8349,0.8878,0.9569,1.0389,1.1096,1.1681,1.2377,1.2549,0.0,0.0,0.0,0.0,1.2646,1.2721,1.2764,1.2764,1.2764,1.2764,1.2764,1.2764,1.2764,1.2764,1.2608,1.2608,1.2764,1.2861,1.2953,1.3147,1.3147,1.3346,1.3642,1.3738,1.3732,1.3823,1.4016,1.3919,1.3528,1.3727,1.3437,1.3055,1.3055,1.3155,1.3166,1.3008,1.3539,1.4454,1.513,1.6012,1.7048,1.7843,1.8364,1.8628,1.8628,1.8862,1.9111,1.9111,1.9199,1.9279,1.9279,1.9279,1.9279,1.9071,1.9078,1.8966,1.8743,1.8743,1.8743,1.8743,1.7358,1.5755,1.4256,1.4476,1.4804,1.4611,1.4407,1.4196,1.4196,1.4509,1.4713,1.4905,1.5435,1.6174,1.7127,1.7562,1.8206,1.8974,1.9175,1.9279,1.9279,1.9279,1.9279,1.9279,1.9975,2.1081,2.2484,2.3185,2.4205,0.9689,0.9777,0.9777,0.9951,1.0038,1.0038,1.0028,0.9152,0.838,0.852,0.7188,0.6273,0.7145,0.6602,0.6587,0.8083,0.8527,0.9051,1.0229,1.0933,1.1517,1.1924,1.2088,1.2273,0.0,0.0,0.0,1.2764,1.2764,1.2764,1.2764,1.2764,1.2764,1.2764,1.2764,1.2764,1.2764,1.2614,1.2614,1.2764,1.2764,1.2861,1.2958,1.2958,1.3152,1.3346,1.3539,1.3539,1.3539,1.3823,1.3727,1.3249,1.3443,1.3299,1.3084,1.3084,1.3133,1.3206,1.2969,1.3529,1.4524,1.5413,1.6308,1.7358,1.8167,1.8701,1.8964,1.8964,1.9111,1.9279,1.9279,1.9279,1.9279,1.9175,1.9175,1.9071,1.8757,1.8757,1.8646,1.8422,1.8422,1.8422,1.8422,1.6935,1.512,1.33,1.3619,1.4051,1.364,1.3537,1.3537,1.3537,1.3753,1.3856,1.383,1.4256,1.4888,1.563,1.6486,1.7351,1.8108,1.8639,1.8959,1.8959,1.8959,1.8959,1.8959,1.9776,2.068,2.1667,2.2785,2.38,0.9174,0.9262,0.9345,0.9777,0.9864,0.9685,0.8978,0.8109,0.7183,0.6684,0.5721,0.5305,0.0,0.0,0.604,0.8844,0.8619,0.8852,1.0808,1.1216,1.1194,0.0,0.0,0.0,0.0,0.0,0.0,1.2662,0.0,1.2764,1.2764,1.2764,1.2764,1.2764,1.2764,1.2764,1.2764,1.2764,1.2764,1.2764,1.2764,1.2764,1.2764,1.2764,1.2861,1.305,1.3147,1.3249,1.3443,1.3443,1.3443,1.3443,1.3454,1.3504,1.3507,1.3524,1.3483,1.3459,1.3222,1.3791,1.47,1.5601,1.6596,1.7558,1.8498,1.903,1.9272,1.9272,1.9279,1.9279,1.9279,1.9279,1.9175,1.8974,1.8869,1.8757,1.8429,1.8422,1.8422,1.8318,1.8318,1.8318,1.8318,1.714,1.5761,1.4272,1.3619,1.297,1.2436,1.2441,1.2441,1.2441,1.2881,1.2985,1.2441,1.3722,1.425,1.3701,1.563,1.6698,1.681,1.7779,1.8422,1.8422,1.8422,1.8422,1.8422,1.8757,1.9257,2.0033,2.1473,2.2484,0.874,0.874,0.8828,0.8915,0.8552,0.8193,0.8372,0.6857,0.5585,0.6162,0.4911,0.4062,0.0,0.0,0.0,0.593,0.6324,0.0,0.7898,0.9351,0.0,1.1146,0.0,1.1292,1.1389,1.1292,0.0,0.0,1.198,1.237,1.2764,1.2764,1.2764,1.2764,1.2764,1.2764,1.2764,1.2764,1.2764,1.2764,1.2764,1.2764,1.2764,1.2764,1.2861,1.2856,1.305,1.305,1.3055,1.3346,1.3249,1.2975,1.3346,1.3353,1.3225,1.3415,1.3632,1.3723,1.3658,1.3778,1.4145,1.4971,1.5664,1.6299,1.7769,1.8248,1.8415,1.9168,1.9279,1.9279,1.9078,1.8974,1.8966,1.8639,1.8534,1.8429,1.8115,1.8122,1.801,1.7793,1.7793,1.7575,1.6711,1.553,1.4245,1.3068,1.1991,1.1564,1.2327,1.2441,1.2441,1.2441,1.255,1.2441,1.1896,1.297,1.3717,1.4024,1.5535,1.6829,1.7582,1.8108,1.8422,1.8422,1.8422,1.8422,1.8422,1.8534,1.9034,2.0033,2.1269,2.2181,0.7312,0.7312,0.7312,0.7312,0.6864,0.6435,0.64,0.5294,0.4447,0.481,0.3955,0.0,0.4948,0.4101,0.0,0.0,0.0,0.0,0.725,0.8512,0.969,0.0,1.0511,0.0,1.0801,1.0609,1.0708,0.0,1.1487,1.178,1.2078,1.2078,1.2078,1.2078,1.2078,1.2175,1.2467,1.2667,1.2764,1.2764,1.2764,1.2764,1.2764,1.2764,1.2764,1.2764,0.0,1.2861,1.2867,1.3166,1.321,1.2937,1.3374,1.3431,1.3437,1.3577,1.3776,1.3986,1.3986,1.3986,1.4087,1.503,1.5335,1.5773,1.7041,1.7246,1.7239,1.7996,1.7779,1.745,1.7575,1.7786,1.7891,1.7569,1.7891,1.8115,1.7905,1.7799,1.7799,1.7582,1.7153,1.6611,1.5968,1.4888,1.3701,1.2521,1.1878,1.145,1.1673,1.1678,1.1678,1.1678,1.1891,1.1787,1.124,1.2536,1.329,1.3383,1.5108,1.6399,1.7047,1.7681,1.8003,1.8003,1.8003,1.8003,1.8003,1.822,1.852,1.9013,2.0261,2.1285,0.5617,0.5617,0.5617,0.5617,0.5262,0.4667,0.4126,0.3878,0.365,0.3212,0.0,0.3164,0.4104,0.356,0.3491,0.5209,0.0,0.5713,0.7323,0.812,0.8733,0.9453,0.9513,0.9723,1.0216,0.992,1.0019,1.09,1.0998,1.1096,1.1194,1.1194,1.1194,1.1194,1.1194,1.1389,1.1883,1.237,1.2565,1.2565,1.2667,1.2667,1.2565,1.2764,1.2764,1.2667,1.2764,1.278,1.2824,1.3023,1.3125,1.3179,1.3427,1.3647,1.382,1.3857,1.4008,1.4196,1.4196,1.4191,1.4191,1.5035,1.5351,1.5458,1.6199,1.608,1.5861,1.6293,1.5749,1.5091,1.5642,1.6068,1.638,1.6074,1.6723,1.7371,1.7153,1.7147,1.7147,1.7147,1.6293,1.5642,1.5642,1.4674,1.3491,1.2521,1.2309,1.1769,1.0798,1.0692,1.0692,1.0692,1.1131,1.124,1.0692,1.2209,1.3073,1.263,1.4674,1.5968,1.6074,1.7041,1.7582,1.7582,1.7582,1.7582,1.7582,1.7799,1.7799,1.7582,1.9049,1.9975,0.5085,0.5085,0.5085,0.5085,0.4645,0.4047,0.4036,0.3273,0.0,0.0,0.2485,0.2203,0.3261,0.2523,0.2094,0.2796,0.3282,0.407,0.5254,0.647,0.7648,0.0,0.9245,0.943,0.9727,0.9628,0.0,0.0,0.992,1.0216,1.1194,1.1194,1.1194,1.1194,1.1194,1.1194,1.1296,1.1389,1.1487,1.1487,1.1883,1.1878,1.1487,1.237,1.2565,1.2175,1.257,0.0,1.305,1.3087,1.3227,1.3437,1.3669,1.3787,1.3846,1.4051,1.4159,1.4196,1.4196,1.3862,1.3537,1.4186,1.4401,1.4504,1.4798,1.49,1.4894,1.5204,1.5198,1.4984,1.4894,1.4894,1.4894,1.4567,1.4674,1.4781,1.4669,1.4674,1.4674,1.4674,1.4561,1.4454,1.4454,1.3491,1.263,1.2413,1.1555,1.0907,1.0692,1.0692,1.0692,1.0692,1.0802,1.0802,1.0692,1.1878,1.2955,1.3701,1.5108,1.6293,1.7259,1.7477,1.7582,1.7582,1.7582,1.7582,1.7582,1.7687,1.7687,1.7582,1.8722,1.9339,0.3489,0.3578,0.3578,0.3578,0.3044,0.2619,0.2701,0.0,0.0,0.0,0.1892,0.1787,0.2262,0.1917,0.0,0.1855,0.2363,0.3066,0.4043,0.5432,0.0,0.7976,0.8626,0.913,0.0,0.943,0.943,0.9628,0.9628,0.9821,1.0314,1.0413,1.0413,1.0413,1.0609,1.0801,1.0801,1.1096,1.1194,1.1194,1.1487,1.1487,1.1198,1.1688,1.178,1.1595,1.2294,1.2605,1.272,1.3271,1.355,1.368,1.3922,1.38,1.3597,1.3712,1.3537,1.3207,1.3207,1.3098,1.2876,1.3207,1.3207,1.3315,1.3403,1.329,1.3073,1.3501,1.3171,1.2847,1.2965,1.3285,1.3388,1.3275,1.3706,1.4024,1.3917,1.3917,1.3809,1.3701,1.3161,1.2729,1.2729,1.176,1.1118,1.1227,1.0798,1.0582,1.0692,1.0692,1.0692,1.0692,1.0692,1.0692,1.0692,1.1769,1.263,1.3166,1.4352,1.5535,1.6717,1.6723,1.7041,1.7582,1.7582,1.7582,1.7582,1.7582,1.7582,1.7582,1.8094,1.8715,0.1882,0.2064,0.2064,0.2064,0.171,0.1459,0.1514,0.1435,0.0,0.1405,0.1393,0.1471,0.1563,0.1517,0.1478,0.0,0.1814,0.2345,0.3203,0.4489,0.5721,0.0,0.7815,0.0,0.9031,0.9133,0.0,0.9426,0.9529,0.9529,0.9628,0.9628,0.9628,0.9628,1.0019,1.0216,1.0216,1.0609,1.0904,1.0904,1.0998,1.0998,1.09,1.11,1.1124,1.1175,1.1829,1.2158,1.2268,1.3138,1.3425,1.3487,1.368,1.3537,1.3098,1.3098,1.2767,1.2441,1.2441,1.2332,1.2219,1.2219,1.2327,1.2332,1.2219,1.1896,1.1678,1.2005,1.135,1.0802,1.124,1.1669,1.1982,1.1987,1.263,1.3166,1.2945,1.2837,1.2837,1.262,1.176,1.1109,1.1109,1.0355,0.9926,1.0147,1.0147,1.0257,1.0582,1.0582,1.0692,1.0692,1.0692,1.0692,1.0692,1.1555,1.2091,1.2413,1.3275,1.4245,1.5429,1.5755,1.6293,1.7259,1.7477,1.7582,1.7582,1.7582,1.7582,1.7582,1.7582,1.8094,0.1428,0.1436,0.1436,0.1436,0.1456,0.1392,0.1423,0.0,0.0788,0.0905,0.0896,0.0977,0.1439,0.1503,0.1472,0.1444,0.0,0.1794,0.2785,0.3157,0.418,0.6364,0.0,0.0,0.8726,0.8825,0.8825,0.8825,0.913,0.9331,0.9628,0.9628,0.9628,0.9628,0.9628,0.9628,0.9628,0.9727,0.9723,0.9727,1.0216,1.0216,0.9821,1.0801,1.1005,1.0786,1.1309,1.1732,0.0,1.2211,1.234,1.2521,1.254,1.255,1.2441,1.2441,1.2441,1.2441,1.2441,1.2114,1.1678,1.1678,1.2005,1.2327,1.1787,1.1678,1.1459,1.1021,1.0802,1.0692,1.0802,1.0802,1.0798,1.0582,1.0582,1.0582,1.0249,1.0139,1.0139,1.0143,1.0033,0.9923,0.9923,0.9816,0.9816,0.9816,0.9816,0.9926,1.0257,1.0366,1.0476,1.0692,1.0692,1.0692,1.0692,1.0802,1.1341,1.2309,1.2521,1.3058,1.4245,1.5322,1.5968,1.6074,1.7047,1.7582,1.7582,1.7582,1.7582,1.7582,1.7582,1.7687,0.0876,0.1145,0.1414,0.1431,0.1185,0.1023,0.1329,0.0,0.0987,0.0402,0.0296,0.0385,0.0573,0.0836,0.0996,0.0988,0.0,0.0,0.2957,0.3245,0.4176,0.6164,0.7067,0.0,0.0,0.0,0.8627,0.8825,0.8928,0.9027,0.9126,0.9426,0.9628,0.9628,0.9628,0.9628,0.9628,0.9628,0.9628,0.9628,0.9826,0.9826,0.9628,1.0019,1.022,1.0302,1.0928,1.1345,0.0,1.2154,1.2361,1.2441,1.2441,1.2223,1.1896,1.1896,1.1678,1.1345,1.1345,1.124,1.1021,1.1021,1.1236,1.135,1.1131,1.1021,1.1021,1.0802,1.0692,1.0692,1.0692,1.0582,1.0366,1.0033,1.0036,0.9926,0.9599,0.9599,0.9485,0.9268,0.9268,0.9268,0.9268,0.9268,0.9379,0.9489,0.9599,0.971,0.9926,1.0147,1.0366,1.0472,1.0582,1.0692,1.0692,1.0692,1.0907,1.1341,1.1337,1.22,1.4024,1.4567,1.5535,1.6935,1.7364,1.7582,1.7582,1.7582,1.7582,1.7582,1.7582,1.7582,0.0428,0.078,0.1049,0.1329,0.1185,0.0843,0.0,0.0,0.0397,0.01,0.0,0.0,0.0,0.0276,0.0448,0.0,0.0,0.1348,0.235,0.3073,0.4201,0.0,0.0,0.7497,0.0,0.8361,0.8432,0.8627,0.8726,0.8726,0.8825,0.9126,0.9426,0.943,0.9529,0.9628,0.9628,0.9628,0.9628,0.9628,0.9628,0.9628,0.9628,0.9681,0.9799,0.9977,1.0577,1.0974,0.0,1.1724,1.1896,1.1896,1.1896,1.1642,1.1268,1.1268,1.0941,1.0615,1.0615,1.0647,1.0692,1.0692,1.0692,1.0582,1.0692,1.0692,1.0692,1.0692,1.0692,1.0582,1.0472,1.0253,1.0036,0.9706,0.9706,0.9596,0.9268,0.9268,0.9158,0.8937,0.894,0.894,0.894,0.894,0.8937,0.9268,0.9268,0.9379,0.9596,0.9926,1.0147,1.0257,1.0582,1.0692,1.0692,1.0692,1.0692,1.0692,1.0692,1.1446,1.3063,1.3383,1.4567,1.6505,1.6935,1.7259,1.7582,1.7582,1.7582,1.7582,1.7582,1.7582,0.0084,0.0086,0.0261,0.1132,0.1369,0.0858,0.0,0.0,-0.1306,-0.0197,0.0,0.0,0.0,0.0,0.0,0.0,0.0,0.0,0.0645,0.2261,0.4066,0.0,0.0,0.5992,0.8061,0.813,0.8137,0.8432,0.8432,0.0,0.8825,0.8825,0.8928,0.9236,0.943,0.9628,0.9628,0.9628,0.9628,0.9628,0.9628,0.9628,0.9632,0.9803,0.9981,1.0168,1.0355,1.053,0.0,1.0692,1.0692,1.0692,1.0692,1.0586,1.0436,1.0436,1.0436,1.0436,1.0436,1.055,1.0692,1.0692,1.0472,1.0366,1.0582,1.0692,1.0692,1.0692,1.0472,1.0257,0.9926,0.9816,0.9706,0.9489,0.9379,0.9268,0.8937,0.894,0.894,0.894,0.894,0.894,0.894,0.894,0.894,0.894,0.894,0.9047,0.9379,0.9596,0.9926,1.0257,1.0582,1.0692,1.0692,1.0692,1.0692,1.0692,1.0692,1.0692,1.0692,1.1769,1.2955,1.4137,1.5316,1.6505,1.7582,1.7582,1.7582,1.7582,1.7582,1.7582,-0.05,-0.0514,-0.0438,-0.018,-0.0094,-0.0292,-0.0875,-0.129,-0.1508,-0.1085,-0.0483,0.0,0.0,0.0,0.0,0.0,0.0,0.0,0.0,0.0,0.0,0.4824,0.5522,0.6401,0.0,0.0,0.7238,0.8038,0.8137,0.8137,0.8237,0.8432,0.863,0.8928,0.9027,0.9027,0.9027,0.9232,0.9335,0.9335,0.9529,0.9628,0.9632,0.9807,0.9985,1.0164,1.0221,1.0351,1.0505,1.0383,1.0331,1.0331,1.0331,1.0298,1.0249,1.0249,1.0249,1.0249,1.0039,1.0075,1.0032,0.9931,0.9861,0.9884,0.9998,1.0036,1.0036,1.0036,1.0033,0.9926,0.9596,0.9489,0.9489,0.9158,0.9047,0.9047,0.894,0.894,0.894,0.894,0.894,0.894,0.894,0.894,0.894,0.894,0.894,0.8937,0.9047,0.9485,0.9816,0.9926,1.0363,1.0692,1.0692,1.0692,1.0692,1.0692,1.0692,1.1017,1.1878,1.22,1.2955,1.403,1.446,1.5215,1.6399,1.6399,1.6829,1.7582,1.7582,1.7582,0.0,-0.1015,-0.1042,-0.1086,-0.1132,0.0,0.0,-0.1395,-0.1605,-0.1563,-0.1058,-0.0473,-0.0092,0.0,0.0,0.0,0.0,0.0,0.0,0.0,0.0,0.3054,0.0,0.0,0.0,0.6974,0.7141,0.7842,0.7842,0.7942,0.8038,0.8137,0.8333,0.8531,0.8726,0.8825,0.8825,0.8928,0.9031,0.9031,0.9229,0.9327,0.9331,0.9605,0.9847,0.9959,1.0132,1.0229,0.0,1.0209,1.016,1.016,1.016,1.0119,1.0059,0.9955,0.9955,0.9852,0.9124,0.8953,0.9017,0.8471,0.8324,0.8278,0.8153,0.8879,0.9816,0.9706,0.9596,0.9596,0.9268,0.9158,0.9158,0.8937,0.894,0.894,0.894,0.894,0.894,0.894,0.894,0.894,0.894,0.894,0.894,0.894,0.894,0.894,0.894,0.9375,0.9816,0.9816,1.0363,1.0692,1.0692,1.0692,1.0692,1.0692,1.0692,1.1017,1.1773,1.1769,1.2309,1.3491,1.3491,1.403,1.5215,1.5215,1.5861,1.6935,1.6935,1.7153,0.0,-0.1576,-0.162,-0.1779,-0.1762,0.0,0.0,0.0,0.0,-0.1635,-0.1526,-0.1225,-0.0271,-0.009,-0.009,-0.009,-0.0,0.0,0.0,0.0,0.0,0.0,0.2857,0.0,0.5576,0.6614,0.7353,0.7547,0.7547,0.7646,0.7939,0.7942,0.7942,0.7942,0.8432,0.8726,0.8726,0.8726,0.8726,0.8726,0.8825,0.8825,0.8829,0.9303,0.9482,0.0,0.9967,1.0144,1.0144,1.0128,1.0123,1.0123,1.002,0.9911,0.9661,0.9357,0.9255,0.9052,0.7824,0.7495,0.7491,0.6448,0.6102,0.6082,0.5439,0.7264,0.9482,0.9154,0.9154,0.9158,0.8826,0.8826,0.894,0.894,0.894,0.894,0.894,0.894,0.894,0.894,0.894,0.894,0.894,0.894,0.894,0.894,0.894,0.894,0.894,0.9375,0.9816,0.9706,1.0253,1.0692,1.0582,1.0692,1.0692,1.0692,1.0692,1.0692,1.0692,1.0692,1.1232,1.2309,1.2309,1.2955,1.403,1.4024,1.4674,1.5755,1.5755,1.6293,-0.3701,0.0,-0.3479,-0.3626,-0.321,-0.2631,0.0,0.0,0.0,0.0,0.0,-0.1319,-0.0813,-0.0628,-0.0538,-0.0538,-0.0278,0.0,0.0,0.0,0.0,0.1409,0.1215,0.2142,0.4864,0.4892,0.5441,0.7048,0.7353,0.7453,0.7437,0.7543,0.7646,0.7646,0.8041,0.8237,0.8237,0.8432,0.8531,0.8531,0.8726,0.8825,0.8829,0.9101,0.918,0.918,0.9324,0.9343,0.9332,0.9198,0.9141,0.9041,0.823,0.7902,0.7772,0.6865,0.6564,0.6464,0.5967,0.5783,0.5715,0.5485,0.5474,0.5448,0.5343,0.6002,0.67,0.6364,0.6924,0.7598,0.7598,0.8159,0.894,0.894,0.894,0.894,0.894,0.894,0.894,0.894,0.894,0.894,0.894,0.894,0.894,0.894,0.894,0.894,0.894,0.9375,0.9592,0.8927,0.9919,1.0468,0.9801,1.0359,1.0692,1.0692,1.0692,1.0692,1.0692,1.0692,1.0798,1.1122,1.1987,1.2521,1.2847,1.3706,1.4245,1.4561,1.4561,1.4674,-0.5864,-0.5066,-0.4235,-0.4278,-0.3937,-0.3629,0.0,0.0,0.0,0.0,0.0,-0.1414,-0.1266,-0.1793,-0.2062,-0.1166,-0.0829,0.0,0.0,0.0,0.02,0.0908,0.0916,0.133,0.0,0.2332,0.302,0.5129,0.6342,0.7051,0.7141,0.7344,0.7441,0.7441,0.754,0.7739,0.8038,0.8137,0.8237,0.8237,0.8333,0.8432,0.8435,0.8721,0.8762,0.8762,0.8862,0.8657,0.8244,0.8158,0.7822,0.7322,0.6722,0.6423,0.6423,0.5724,0.5427,0.5327,0.4528,0.3925,0.3531,0.3465,0.3522,0.3679,0.3679,0.3747,0.416,0.5516,0.6079,0.6421,0.6808,0.7838,0.8742,0.8051,0.8396,0.886,0.886,0.886,0.886,0.886,0.885,0.8729,0.7937,0.8383,0.8716,0.8156,0.8491,0.8716,0.8156,0.8484,0.8592,0.8149,0.892,0.9581,0.9809,1.0253,1.0582,1.0692,1.0692,1.0692,1.0692,1.0692,1.0692,1.0692,1.1341,1.1664,1.1664,1.22,1.2847,1.3275,1.3275,1.3922,-0.7566,-0.6255,-0.4758,-0.4791,-0.4689,-0.4537,0.0,0.0,0.0,0.0,0.0,0.0,0.0,-0.278,0.0,0.0,0.0,0.0,-0.0098,0.0,0.0,0.0,0.0923,0.0,0.0406,0.0101,0.0705,0.2614,0.4427,0.5842,0.6851,0.7045,0.7138,0.7138,0.7138,0.7437,0.7839,0.7942,0.7942,0.7839,0.7939,0.7942,0.7939,0.8237,0.8333,0.8333,0.0,0.0,0.7024,0.6921,0.6321,0.5425,0.5325,0.5225,0.5225,0.4826,0.4628,0.4528,0.3324,0.2321,0.1617,0.1617,0.1635,0.1655,0.1655,0.1672,0.2226,0.4962,0.5208,0.4907,0.5545,0.7035,0.8063,0.6601,0.729,0.8208,0.8208,0.8208,0.8208,0.8208,0.8193,0.7955,0.7057,0.7718,0.8045,0.7154,0.7934,0.8159,0.7041,0.7149,0.7371,0.7371,0.7811,0.8585,0.9923,1.0147,1.0366,1.0582,1.0692,1.0692,1.0692,1.0692,1.0692,1.0692,1.0692,1.0692,1.0692,1.0692,1.1232,1.2091,1.2091,1.3171,-0.7426,-0.7174,-0.6857,-0.7011,-0.6277,-0.5537,0.0,0.0,0.0,0.0,0.0,0.0,0.0,-0.1614,-0.1705,0.0,0.0,-0.1104,0.0,0.0,0.0,0.0,0.0,0.0612,0.1446,0.0612,0.0101,0.0504,0.0806,0.2618,0.6258,0.6553,0.6645,0.6845,0.7039,0.7238,0.7338,0.7543,0.7543,0.7338,0.7739,0.7842,0.7646,0.7942,0.8038,0.8038,0.0,0.6634,0.6434,0.5527,0.5024,0.4824,0.3924,0.3524,0.3423,0.2521,0.212,0.212,0.1919,0.1717,0.1617,0.1617,0.162,0.1624,0.1624,0.1627,0.1739,0.2187,0.2007,0.1607,0.1744,0.3832,0.5718,0.5014,0.5031,0.5146,0.5146,0.5146,0.5146,0.5146,0.5144,0.5931,0.8202,0.7062,0.6151,0.6599,0.6824,0.6596,0.5808,0.5922,0.6146,0.6485,0.7368,0.8254,0.8706,0.9702,1.0366,1.0366,1.0582,1.0692,1.0692,1.0692,1.0692,1.0692,1.0692,1.0692,1.0692,1.0692,1.0798,1.0907,1.0907,1.1122,-0.7632,-0.7485,-0.734,-0.7486,-0.7044,-0.6523,0.0,0.0,0.0,0.0,0.0,0.0,0.0,0.0,-0.2241,-0.2241,0.0,-0.1207,-0.0585,-0.0197,0.0,0.0,0.0,0.0208,0.0727,0.0312,0.0,0.0,0.0,0.1324,0.4539,0.5749,0.6453,0.6539,0.6736,0.6736,0.6736,0.7042,0.7144,0.7238,0.7437,0.754,0.7441,0.765,0.7444,0.6933,0.0,0.5534,0.4628,0.4126,0.3624,0.3022,0.2521,0.2321,0.2321,0.1818,0.1617,0.1617,0.1617,0.1415,0.1212,0.1212,0.1212,0.1212,0.1516,0.1617,0.162,0.1634,0.1036,0.0422,0.0429,0.141,0.2627,0.2979,0.2559,0.2014,0.2014,0.2014,0.2014,0.2014,0.2124,0.2459,0.3808,0.4589,0.4583,0.3687,0.4578,0.5139,0.4808,0.5252,0.5697,0.581,0.6811,0.7925,0.8933,0.9485,1.0036,1.0472,1.0582,1.0692,1.0692,1.0692,1.0692,1.0692,1.0692,1.0692,1.0692,1.0692,1.0692,1.0692,1.0692,1.1017,-0.7655,-0.7535,-0.739,-0.7597,0.0,0.0,0.0,0.0,0.0,0.0,0.0,0.0,0.0,-0.2688,0.0,-0.2509,-0.1916,-0.1312,-0.1165,-0.0694,-0.0305,-0.0211,-0.0212,-0.0211,-0.0209,-0.0106,0.0,0.0,0.0,0.0719,0.2319,0.4943,0.6361,0.6445,0.6445,0.6445,0.6445,0.6651,0.6848,0.7036,0.7138,0.7141,0.7144,0.7353,0.6745,0.5527,0.5636,0.4734,0.3324,0.2923,0.2321,0.1617,0.1617,0.1617,0.1617,0.1617,0.1617,0.1617,0.1617,0.1212,0.0606,0.0606,0.0606,0.0707,0.1111,0.1415,0.1516,0.1313,0.0612,0.0,0.0,0.0,0.0217,0.1197,0.0661,0.0,0.0,0.0,0.0,0.0,0.0,0.0,0.0,0.1903,0.2795,0.1006,0.2234,0.3575,0.414,0.4697,0.5139,0.5697,0.6591,0.7709,0.9268,0.904,0.9261,1.0582,1.0692,1.0692,1.0692,1.0692,1.0692,1.0692,1.0692,1.0692,1.0692,1.0692,1.0692,1.0692,1.0692,1.1122,-0.75,-0.7597,-0.7694,-0.7706,-0.7357,0.0,0.0,0.0,0.0,0.0,0.0,0.0,0.0,-0.2152,-0.1524,-0.1524,-0.1461,-0.1492,-0.143,0.0,-0.1298,-0.0933,-0.0832,-0.0838,-0.085,-0.032,0.0,0.0,0.0,0.0103,0.0202,0.4142,0.6382,0.6374,0.6374,0.6374,0.6374,0.6374,0.6461,0.6437,0.6936,0.7147,0.7059,0.7359,0.6237,0.4218,0.4636,0.4438,0.3629,0.2322,0.1718,0.1617,0.1617,0.1617,0.1617,0.1617,0.1617,0.1617,0.1617,0.0909,0.0101,0.0101,0.0101,0.0101,0.0101,0.0808,0.1415,0.0404,0.0101,0.0,0.0,0.0,0.0,0.0106,0.0108,0.0,0.0,0.0,0.0,0.0,0.0,0.0,0.0,0.0224,0.0224,0.0112,0.0673,0.1905,0.3918,0.3917,0.4583,0.6705,0.7041,0.7709,0.9268,0.7814,0.7922,1.0143,1.0582,1.0692,1.0692,1.0692,1.0692,1.0692,1.0692,1.0692,1.0692,1.0692,1.0692,1.0692,1.0692,1.0692,-0.7723,-0.7593,-0.7529,-0.769,0.0,0.0,0.0,0.0,0.0,0.0,0.0,0.0,0.0,0.0,-0.2774,-0.1614,-0.1461,-0.1491,-0.1522,-0.1552,-0.1495,-0.1344,-0.1364,-0.1483,-0.1493,-0.1305,-0.0975,-0.0521,-0.0525,-0.0104,0.0606,0.2219,0.333,0.3932,0.4438,0.4541,0.3932,0.4236,0.4537,0.4832,0.6052,0.6667,0.6673,0.6779,0.5555,0.3425,0.2622,0.2119,0.1917,0.1717,0.1617,0.1617,0.1617,0.1415,0.1111,0.1111,0.0303,-0.0908,-0.0908,-0.1412,-0.2017,-0.2017,-0.2017,-0.2017,-0.2017,-0.1713,-0.1512,-0.1915,-0.1009,0.0,0.0,0.0,0.0,0.0,0.0,0.0,0.0,0.0,0.0,0.0,0.0,0.0,0.0,0.0,0.0,0.0,0.0785,0.1794,0.2577,0.3471,0.4364,0.5256,0.5699,0.6253,0.6811,0.6478,0.67,0.8033,0.9251,1.0139,1.0692,1.0139,1.0139,1.0692,1.0135,1.0135,1.0692,1.0692,1.0692,1.0692,1.0692,1.0692,-0.8178,-0.8019,-0.7943,0.0,0.0,0.0,0.0,0.0,0.0,0.0,0.0,0.0,0.0,0.0,0.0,0.0,-0.1916,-0.1863,-0.1521,-0.1552,-0.1594,-0.1655,-0.1688,-0.1817,-0.1827,-0.1766,-0.1651,-0.1156,-0.1059,-0.063,0.0202,0.0202,0.0504,0.1108,0.1713,0.1914,0.141,0.1612,0.1914,0.2318,0.3531,0.4951,0.638,0.6388,0.4857,0.2119,0.101,0.0505,0.0606,0.1111,0.1314,0.1314,0.1516,0.0808,-0.0303,-0.1111,-0.2018,-0.2723,-0.343,-0.3935,-0.4236,-0.4236,-0.4236,-0.4236,-0.4236,-0.4236,-0.4236,-0.4437,-0.3426,-0.2116,-0.1411,-0.0611,-0.0103,-0.0412,-0.0522,-0.0425,-0.0107,0.0,0.0,0.0,0.0,0.0,0.0,0.0,0.0,0.0,0.0673,0.1345,0.1457,0.2463,0.3466,0.4137,0.4582,0.5027,0.5361,0.5031,0.5256,0.6366,0.7587,0.8696,0.9801,0.9247,0.9251,0.9805,0.9251,0.9251,0.9805,0.9805,0.9805,0.9805,0.9805,1.0025,-0.9003,-0.9,-0.9211,0.0,0.0,0.0,0.0,0.0,0.0,0.0,0.0,-0.5719,-0.5719,0.0,0.0,-0.3045,-0.2918,-0.2606,-0.1616,-0.1552,-0.1594,-0.1654,-0.1686,-0.1715,-0.1746,-0.1777,-0.177,-0.1709,-0.16,-0.1576,-0.1621,-0.1617,-0.1617,-0.1617,-0.1617,-0.1314,-0.0808,-0.1314,-0.1314,-0.0808,-0.0808,0.1717,0.639,0.639,0.4045,0.0,0.0,0.0,0.0,0.0606,0.0808,0.0808,0.1314,-0.0101,-0.2725,-0.5468,-0.5056,-0.3527,-0.566,-0.6377,-0.6377,-0.6377,-0.6377,-0.6377,-0.6377,-0.6377,-0.6478,-0.7083,-0.7184,-0.6667,-0.4624,-0.2114,-0.0303,-0.1415,-0.164,-0.135,-0.0208,-0.0,-0.0,-0.0,0.0,0.0,0.0,0.0,0.0,0.0,0.0,0.0224,0.0782,0.0894,0.1786,0.3904,0.3799,0.4026,0.525,0.3696,0.3586,0.5588,0.581,0.6475,0.7919,0.8029,0.8029,0.8029,0.8029,0.8029,0.8029,0.8029,0.8029,0.8029,0.8029,0.8472,-1.0045,-0.9837,0.0,0.0,0.0,0.0,0.0,0.0,0.0,0.0,0.0,-0.652,-0.5808,0.0,0.0,-0.4024,-0.3913,-0.3514,-0.2609,-0.2563,-0.233,-0.1693,-0.1624,-0.1662,-0.1713,-0.1745,-0.1755,-0.1737,-0.1717,-0.1689,-0.1651,-0.1628,-0.1617,-0.1617,-0.1617,-0.1516,-0.1314,-0.1516,-0.1516,-0.1314,-0.1314,-0.0202,0.1919,0.1919,0.1212,0.0,0.0,0.0,0.0,0.0202,0.0202,-0.0,-0.293,-0.4552,-0.5264,-0.6075,-0.5967,-0.555,-0.6163,-0.6358,-0.6448,-0.6448,-0.6448,-0.6448,-0.6448,-0.6448,-0.6448,-0.6853,-0.7166,-0.7272,-0.6648,-0.6044,-0.5242,-0.3623,-0.2426,-0.1529,-0.1239,-0.0837,-0.0425,-0.0109,0.0,0.0,0.0,0.0,0.0,0.0,0.0,0.0112,0.0224,0.0224,0.0896,0.2352,0.2353,0.2465,0.28,0.2354,0.2467,0.3586,0.3586,0.4698,0.7249,0.7149,0.7371,0.8029,0.7371,0.7371,0.8029,0.8029,0.8029,0.8029,0.8029,0.7916,-1.087,-1.061,0.0,0.0,0.0,0.0,0.0,0.0,0.0,0.0,0.0,-0.6962,-0.6343,-0.6251,0.0,-0.5003,-0.4876,-0.4567,-0.3595,-0.3174,-0.2751,-0.2227,-0.1876,-0.1622,-0.1682,-0.1714,-0.1737,-0.1748,-0.1721,-0.1692,-0.1664,-0.1633,-0.1617,-0.1617,-0.1617,-0.1617,-0.1617,-0.1617,-0.1617,-0.1617,-0.1617,-0.1212,-0.0606,-0.0404,-0.0303,-0.0303,-0.0505,-0.0505,-0.0404,-0.101,-0.1312,-0.1514,-0.4142,-0.5665,-0.638,-0.6374,-0.6364,-0.6353,-0.6353,-0.6445,-0.6437,-0.6539,-0.6539,-0.6539,-0.6637,-0.6736,-0.6736,-0.7042,-0.7353,-0.7563,-0.7656,-0.7862,-0.7459,-0.5229,-0.4021,-0.3026,-0.1837,-0.134,-0.1044,-0.0747,-0.0434,-0.0329,-0.0,0.0,0.0,0.0,0.0,0.0,0.0,0.0,0.0336,0.1346,0.1683,0.1795,0.1795,0.1795,0.1908,0.2356,0.2581,0.3474,0.5254,0.5704,0.6151,0.6927,0.649,0.649,0.6927,0.6927,0.6927,0.6927,0.6927,0.6813,-1.1558,0.0,0.0,0.0,0.0,0.0,0.0,0.0,-0.8719,-0.854,0.0,-0.7228,-0.7139,-0.7139,-0.6786,-0.5985,-0.5808,-0.5486,-0.4582,-0.3682,-0.3157,-0.3033,-0.2221,-0.1686,-0.1751,-0.1682,-0.1819,-0.1853,-0.183,-0.1803,-0.1776,-0.1641,-0.1624,-0.1621,-0.1621,-0.162,-0.1617,-0.1617,-0.1617,-0.1617,-0.1617,-0.1617,-0.1617,-0.1111,-0.0808,-0.0808,-0.1415,-0.1414,-0.1313,-0.2726,-0.3432,-0.3533,-0.3627,-0.4738,-0.6464,-0.6461,-0.645,-0.6437,-0.6437,-0.6437,-0.6437,-0.6742,-0.6842,-0.6842,-0.7138,-0.7238,-0.7238,-0.7543,-0.7646,-0.7643,-0.7942,-0.8038,-0.764,-0.6439,-0.6039,-0.5231,-0.2615,-0.1937,-0.1859,-0.166,-0.1278,-0.0763,-0.0219,-0.0111,-0.0112,-0.0,0.0,0.0,0.0,0.0,0.0224,0.0785,0.1458,0.1795,0.1795,0.1795,0.1795,0.1795,0.2356,0.2693,0.2693,0.381,0.4706,0.5268,0.5382,0.5382,0.5382,0.5382,0.5382,0.5382,0.5382,0.5487,0.0,-1.2298,0.0,0.0,0.0,0.0,0.0,-1.1837,-1.0366,-0.9065,-0.8456,-0.8017,-0.7228,-0.7139,-0.7051,-0.6874,-0.6786,-0.6438,-0.5573,-0.522,-0.4538,-0.3063,-0.2709,-0.238,-0.1883,-0.1946,-0.2102,-0.2354,-0.2163,-0.2172,-0.2381,-0.1915,-0.1779,-0.196,-0.1755,-0.1641,-0.1617,-0.1617,-0.1617,-0.1617,-0.1617,-0.1617,-0.1617,-0.1516,-0.1212,-0.0808,-0.1415,-0.2524,-0.3935,-0.434,-0.5247,-0.6358,-0.655,-0.6853,-0.726,-0.7048,-0.6942,-0.6742,-0.6939,-0.6939,-0.6742,-0.7039,-0.7138,-0.7138,-0.7138,-0.7238,-0.7238,-0.7543,-0.7646,-0.7643,-0.7942,-0.8038,-0.7939,-0.764,-0.6936,-0.6134,-0.5529,-0.4738,-0.3656,-0.1961,-0.1562,-0.148,-0.1415,-0.0987,-0.0552,-0.0112,0.0,0.0,0.0,0.0,0.0,0.0224,0.1121,0.1795,0.1795,0.1795,0.1795,0.1795,0.1908,0.2244,0.2693,0.381,0.4592,0.4704,0.5156,0.5382,0.5382,0.5382,0.5382,0.5382,0.4929,0.4704,0.0,0.0,0.0,0.0,0.0,0.0,-1.3503,-1.296,-1.2095,-1.0712,-0.941,-0.8368,-0.8017,-0.7489,-0.7139,-0.7139,-0.7139,-0.6962,-0.6428,-0.5985,-0.5206,-0.3723,-0.3276,-0.2778,-0.193,-0.2087,-0.2247,-0.2415,-0.246,-0.2484,-0.2593,-0.2249,-0.2227,-0.2313,-0.2208,-0.2086,-0.2047,-0.2046,-0.1936,-0.1819,-0.1819,-0.202,-0.2321,-0.1818,-0.1716,-0.2017,-0.2422,-0.3429,-0.4834,-0.5238,-0.5842,-0.6648,-0.7147,-0.7347,-0.7347,-0.7241,-0.7138,-0.7039,-0.773,-0.7925,-0.7925,-0.8715,-0.8913,-0.8814,-0.8421,-0.8715,-0.8913,-0.8038,-0.8137,-0.8432,-0.8137,-0.8038,-0.8038,-0.8038,-0.7537,-0.7036,-0.6537,-0.5932,-0.5041,-0.3461,-0.2776,-0.2291,-0.1805,-0.1513,-0.099,-0.0112,0.0,0.0,0.0,0.0,0.0,0.0,0.0561,0.1121,0.1795,0.1795,0.1795,0.1795,0.1795,0.1908,0.2244,0.3139,0.3811,0.4033,0.4372,0.4484,0.4484,0.4819,0.4931,0.4931,0.4931,0.4594,0.0,0.0,0.0,0.0,0.0,0.0,-1.3659,-1.3652,-1.3392,-1.2443,-1.0626,-0.9065,-0.8978,-0.8101,-0.7404,-0.7231,-0.7228,-0.7228,-0.7228,-0.6609,-0.5716,-0.4732,-0.4113,-0.345,-0.2632,-0.2599,-0.277,-0.3071,-0.2829,-0.2765,-0.2995,-0.2783,-0.2676,-0.2677,-0.2781,-0.2754,-0.249,-0.2696,-0.2672,-0.2323,-0.2524,-0.2925,-0.3525,-0.2622,-0.2622,-0.3525,-0.3828,-0.4429,-0.5127,-0.5829,-0.6132,-0.6431,-0.7036,-0.7338,-0.7338,-0.7338,-0.7437,-0.7633,-0.8612,-0.9004,-0.93,-1.0485,-1.0877,-1.0779,-1.0096,-1.0489,-1.0877,-0.9019,-0.9217,-0.9706,-0.8825,-0.8432,-0.8233,-0.8233,-0.8137,-0.7739,-0.6836,-0.6637,-0.6334,-0.5327,-0.4289,-0.3211,-0.2078,-0.1818,-0.143,-0.0447,-0.0112,0.0,0.0,0.0,0.0,0.0,0.0,0.0449,0.1458,0.1683,0.1795,0.1795,0.1795,0.1795,0.1795,0.2244,0.2805,0.3251,0.3586,0.3811,0.3923,0.437,0.4704,0.4704,0.5043,0.4707,0.0,0.0,0.0,0.0,0.0,0.0,0.0,0.0,-1.3476,0.0,-1.2443,-1.1058,-0.9492,-0.9061,-0.8715,-0.794,-0.7764,-0.7764,-0.7764,-0.7676,-0.7224,-0.6239,-0.6062,-0.5722,-0.5041,-0.4291,-0.433,-0.5606,-0.3975,-0.3375,-0.4667,-0.3375,-0.2726,-0.3054,-0.3807,-0.3639,-0.249,-0.3522,-0.3998,-0.3725,-0.4427,-0.4828,-0.4929,-0.4526,-0.4423,-0.4624,-0.4626,-0.5227,-0.6234,-0.6334,-0.6936,-0.7739,-0.7839,-0.7939,-0.7939,-0.7939,-0.8329,-0.9019,-0.941,-0.9998,-1.0583,-1.0974,-1.117,-1.117,-1.0979,-1.1072,-1.117,-1.0881,-1.0877,-1.0974,-1.0783,-1.0096,-0.941,-0.941,-0.8627,-0.7939,-0.7839,-0.7739,-0.7437,-0.6434,-0.541,-0.4364,-0.3277,-0.2371,-0.1757,-0.1566,-0.0673,0.0,0.0,0.0,0.0,0.0,0.0,0.0112,0.0224,0.1234,0.1795,0.1795,0.1795,0.1795,0.1795,0.1907,0.1908,0.2019,0.3585,0.4594,0.5156,0.5268,0.5268,0.5268,0.4817,0.448,-1.4338,0.0,0.0,0.0,0.0,0.0,-1.4042,0.0,-1.3737,-1.3737,-1.3392,-1.2699,-1.1214,-1.0005,-0.9061,-0.8719,-0.8201,-0.7944,-0.7944,-0.7944,-0.7492,-0.6505,-0.6505,-0.6331,-0.5447,-0.5228,-0.5364,-0.6048,-0.5284,-0.5152,-0.5807,-0.5285,-0.5126,-0.5237,-0.5556,-0.5489,-0.4934,-0.5298,-0.5424,-0.5127,-0.5327,-0.5627,-0.6129,-0.5927,-0.5827,-0.5729,-0.5729,-0.6331,-0.7338,-0.7338,-0.7537,-0.8038,-0.8038,-0.8333,-0.8924,-0.8924,-0.9509,-1.0386,-1.1072,-1.156,-1.195,-1.2732,-1.2926,-1.2829,-1.2242,-1.2441,-1.2732,-1.1565,-1.1658,-1.195,-1.1365,-1.0881,-1.0391,-0.9899,-0.9312,-0.8726,-0.8333,-0.8137,-0.764,-0.6637,-0.6073,-0.5426,-0.4382,-0.3929,-0.3243,-0.1983,-0.1335,-0.0784,-0.0112,0.0,0.0,0.0,0.0,0.0,0.0,0.0449,0.1121,0.1795,0.1795,0.1795,0.1795,0.1795,0.1908,0.2244,0.2802,0.3138,0.3363,0.3701,0.3926,0.3926,0.3923,0.3811,0.0,0.0,0.0,0.0,0.0,0.0,0.0,0.0,-1.4412,0.0,-1.4075,-1.3822,-1.2942,-1.1305,-1.0014,-0.9753,-0.8982,-0.8376,-0.8376,-0.8204,-0.776,-0.7041,-0.7132,-0.6959,-0.6248,-0.6152,-0.635,-0.6765,-0.6415,-0.6404,-0.6856,-0.676,-0.6797,-0.6859,-0.7186,-0.7124,-0.679,-0.6841,-0.6718,-0.6526,-0.6526,-0.6825,-0.7428,-0.7329,-0.7229,-0.7033,-0.6836,-0.7238,-0.8038,-0.8038,-0.8038,-0.8038,-0.8333,-0.8924,-0.9608,-0.9899,-1.0681,-1.1658,-1.2436,-1.2926,-1.3221,-1.4004,-1.4298,-1.41,-1.3318,-1.3709,-1.4004,-1.2436,-1.2538,-1.2926,-1.2145,-1.1755,-1.1463,-1.0877,-1.0391,-0.9706,-0.8528,-0.8137,-0.7739,-0.6936,-0.6836,-0.6472,-0.546,-0.5435,-0.4782,-0.2935,-0.2534,-0.1892,-0.0672,-0.0336,-0.0224,-0.0,0.0,0.0,0.0,0.0,0.0336,0.1234,0.1683,0.1795,0.1795,0.1795,0.202,0.2469,0.202,0.1907,0.2243,0.2692,0.2917,0.2917,0.3363,0.3253,0.0,0.0,0.0,0.0,0.0,0.0,0.0,0.0,0.0,-1.5311,-1.4664,-1.4088,-1.3997,-1.3215,-1.2272,-1.1322,-1.0376,-0.9772,-0.9772,-0.9082,-0.8568,-0.8476,-0.8476,-0.8476,-0.8476,-0.7591,-0.7481,-0.8548,-0.7047,-0.6573,-0.7717,-0.696,-0.6623,-0.6853,-0.8047,-0.7981,-0.679,-0.7569,-0.7932,-0.7922,-0.863,-0.9034,-0.9034,-0.8829,-0.8726,-0.8627,-0.8137,-0.7939,-0.8038,-0.8038,-0.8038,-0.8137,-0.9118,-0.9509,-0.9706,-1.0779,-1.1755,-1.263,-1.2727,-1.3414,-1.4202,-1.4292,-1.4298,-1.4298,-1.4202,-1.4298,-1.4298,-1.4196,-1.4196,-1.4196,-1.41,-1.3414,-1.2635,-1.2926,-1.2047,-1.0583,-0.8432,-0.8038,-0.7939,-0.7939,-0.7939,-0.7585,-0.6594,-0.6416,-0.6078,-0.5098,-0.447,-0.351,-0.1896,-0.1229,-0.0671,-0.0112,0.0,0.0,0.0,0.0,0.0,0.0112,0.1121,0.1795,0.1795,0.1795,0.1795,0.1795,0.1795,0.2355,0.3475,0.3587,0.3587,0.3587,0.3587,0.3253,0.0,0.0,0.0,0.0,0.0,-1.6329,-1.6691,-1.6276,-1.5789,-1.5433,-1.5151,-1.4741,-1.4166,-1.3307,-1.2619,-1.2272,-1.1413,-1.0549,-0.9946,-0.9602,-0.9257,-0.8656,-0.8568,-0.8568,-0.8568,-0.8296,-0.8278,-0.8808,-0.8336,-0.8241,-0.8844,-0.8714,-0.8706,-0.882,-0.9347,-0.9429,-0.9057,-0.9237,-0.932,-0.932,-0.9624,-0.9529,-0.9236,-0.9133,-0.8928,-0.8825,-0.9312,-0.9019,-0.8336,-0.8825,-0.9019,-0.9118,-1.0194,-1.0974,-1.1653,-1.2047,-1.2829,-1.3709,-1.3709,-1.4004,-1.4298,-1.4298,-1.4298,-1.4298,-1.4298,-1.4298,-1.4298,-1.4298,-1.4298,-1.4298,-1.4298,-1.41,-1.3908,-1.3414,-1.2635,-1.1658,-1.0681,-0.941,-0.8432,-0.8333,-0.8237,-0.8052,-0.7503,-0.7588,-0.7297,-0.6298,-0.6053,-0.5698,-0.5018,-0.2904,-0.1341,-0.1231,-0.0784,-0.0449,-0.0,0.0,0.0,0.0,0.0449,0.0785,0.1234,0.157,0.1795,0.1795,0.1795,0.2019,0.2467,0.2467,0.2467,0.2467,0.1793,0.1458,0.0,0.0,0.0,0.0,0.0,-1.7089,-1.7471,0.0,-1.6596,-1.63,-1.5801,-1.5228,-1.4748,-1.3893,-1.3215,-1.3222,-1.2357,-1.158,-1.1058,-1.0458,-0.9859,-0.9345,-0.8999,-0.8828,-0.8828,-0.8828,-0.8874,-0.8991,-0.9084,0.0,-0.9354,-0.9645,-0.9762,-0.988,-1.0006,-1.0117,-1.0205,-1.0016,-0.992,-0.9821,-0.992,-0.9727,-0.9335,-0.9335,-0.9426,-0.9608,-1.0293,-0.9899,-0.9019,-0.9899,-1.0194,-1.0194,-1.1268,-1.2145,-1.2732,-1.3119,-1.3709,-1.4298,-1.4298,-1.4298,-1.4298,-1.4298,-1.4298,-1.4298,-1.4298,-1.4298,-1.4298,-1.4394,-1.4394,-1.449,-1.4592,-1.4783,-1.4777,-1.4196,-1.3511,-1.2926,-1.263,-1.0877,-0.9316,-0.9118,-0.8726,-0.8333,-0.8233,-0.8223,-0.8034,-0.7443,-0.7364,-0.7277,-0.6748,-0.4897,-0.3128,-0.19,-0.1455,-0.1009,-0.0673,-0.0224,0.0,0.0,0.0,0.0224,0.0561,0.1009,0.1346,0.1458,0.157,0.1458,0.1234,0.157,0.1795,0.1795,0.0785,0.0112,0.0,0.0,0.0,0.0,0.0,0.0,-1.8368,0.0,-1.7744,-1.7983,-1.6683,-1.5553,-1.565,-1.4977,-1.4398,-1.4166,-1.3307,-1.2784,-1.3014,-1.1483,-1.0463,-1.0549,-0.9864,-0.9345,-0.9262,-0.9262,-0.9262,-0.9262,-0.9255,-0.9262,-0.9359,-0.9453,-0.962,-0.9876,-0.988,-0.988,-0.9884,-1.0008,-0.992,-0.9628,-0.992,-0.992,-0.9628,-0.9628,-1.0207,-1.1268,-1.0974,-1.0587,-1.0194,-1.1268,-1.1463,-1.1365,-1.2339,-1.2732,-1.2829,-1.3908,-1.4298,-1.4298,-1.4298,-1.4298,-1.4298,-1.4298,-1.4298,-1.4298,-1.4298,-1.4298,-1.4394,-1.4592,-1.4688,-1.4783,-1.5083,-1.5267,-1.5452,-1.5172,-1.4688,-1.4292,-1.4004,-1.2145,-1.0489,-1.0391,-0.9312,-0.8528,-0.8726,-0.8333,-0.8192,-0.8653,-0.8591,-0.8104,-0.7061,-0.7073,-0.5804,-0.2346,-0.19,-0.1902,-0.1906,-0.0785,-0.0,-0.0,0.0,0.0,0.0,-0.0112,0.0112,0.0673,0.0897,0.0673,-0.0112,0.1121,0.1795,0.1683,0.0785,-0.056,-1.8008,0.0,0.0,0.0,0.0,0.0,0.0,0.0,-1.8018,-1.8011,-1.7595,-1.7037,-1.6078,-1.5711,-1.5304,-1.4657,-1.4321,-1.3971,-1.3366,-1.2851,-1.2083,-1.0717,-1.0381,-1.0033,-0.9345,-0.9262,-0.9262,0.0,-0.9353,-0.9453,-0.9638,-0.9957,-1.0151,-1.0192,-1.0067,-1.0062,-1.0201,-1.0216,-1.0216,-1.0216,-1.0216,-1.0609,-1.0998,-1.089,-1.1272,-1.2339,-1.3028,-1.3125,-1.2829,-1.2926,-1.2829,-1.2635,-1.3709,-1.4004,-1.3902,-1.4202,-1.4298,-1.4298,-1.4298,-1.4298,-1.4298,-1.4298,-1.4298,-1.4298,-1.4298,-1.4298,-1.4394,-1.4592,-1.4688,-1.4783,-1.5261,-1.5452,-1.5547,-1.5547,-1.5445,-1.535,-1.5255,-1.419,-1.2732,-1.0974,-1.0391,-0.9805,-0.892,-0.8726,-0.8585,-0.8649,-0.871,-0.8522,-0.8243,-0.7437,-0.661,-0.5688,-0.4914,-0.4131,-0.3574,-0.2124,-0.0895,-0.0,0.0,0.0,0.0,-0.3366,-0.5168,-0.4942,-0.3474,-0.2798,-0.3023,-0.0448,0.0449,-0.0224,-0.1121,-0.2129,0.0,0.0,0.0,0.0,0.0,0.0,-1.8193,-1.8361,-1.8521,0.0,-1.836,-1.8057,-1.7382,-1.669,-1.6049,-1.5636,-1.5235,-1.4824,-1.4223,-1.3795,-1.3197,-1.2174,-1.1408,-1.0722,-1.0207,-0.9777,-0.9607,-0.9607,-0.954,-0.9637,-0.982,-1.0127,-1.0288,-1.038,-1.0276,-1.0173,-1.0384,-1.0371,-1.0413,-1.0413,-1.0797,-1.1282,-1.177,-1.1955,-1.2533,-1.3596,-1.4094,-1.4484,-1.4675,-1.4478,-1.4286,-1.4004,-1.4496,-1.4592,-1.449,-1.4298,-1.4298,-1.4298,-1.4298,-1.4298,-1.4298,-1.4298,-1.4298,-1.4298,-1.4298,-1.4298,-1.4394,-1.479,-1.4981,-1.5261,-1.554,-1.5635,-1.5635,-1.5737,-1.5832,-1.5832,-1.5832,-1.535,-1.4382,-1.2635,-1.1853,-1.1072,-0.9998,-0.9608,-0.9351,-0.8858,-0.8733,-0.866,-0.8584,-0.8021,-0.7563,-0.7141,-0.648,-0.5695,-0.4799,-0.4131,-0.3128,-0.1563,-0.1453,-0.1455,-0.1456,-0.4148,-0.6179,-0.7203,-0.527,-0.4142,-0.4142,-0.1903,-0.1232,-0.1792,-0.2128,-0.2688,0.0,0.0,0.0,0.0,0.0,0.0,-1.8206,-1.8591,-1.8912,0.0,-1.8957,-1.8761,-1.8885,-1.7649,-1.6632,-1.6698,-1.5982,-1.534,-1.5173,-1.4391,-1.3964,-1.4055,-1.2601,-1.1494,-1.1322,-1.0641,-1.0125,-1.0038,-0.98,-0.9705,-0.9877,-1.0108,-1.0307,-1.0373,-1.04,-1.0413,-1.0413,-1.0413,-1.0507,-1.0605,-1.1473,-1.2047,-1.2334,-1.292,-1.3794,-1.4854,-1.458,-1.4968,-1.5832,-1.5832,-1.5547,-1.5083,-1.4885,-1.4688,-1.4688,-1.4394,-1.4298,-1.4298,-1.4298,-1.4298,-1.4298,-1.4394,-1.4394,-1.4298,-1.4388,-1.4394,-1.449,-1.507,-1.5547,-1.5832,-1.592,-1.5927,-1.5832,-1.5832,-1.5832,-1.5832,-1.5832,-1.5832,-1.554,-1.4682,-1.3414,-1.2242,-1.1463,-1.0877,-1.0096,-0.9118,-0.8855,-0.8702,-0.8543,-0.8591,-0.8307,-0.7343,-0.7257,-0.6927,-0.5917,-0.6371,-0.5924,-0.4244,-0.4019,-0.3911,-0.4029,-0.4029,-0.5041,-0.7192,-0.5491,-0.4477,-0.4364,-0.3356,-0.3019,-0.3244,-0.2686,-0.28,0.0,0.0,0.0,0.0,0.0,0.0,-1.8174,-1.8134,-1.8309,0.0,-1.8937,-1.9033,-1.8742,-1.8285,-1.7683,-1.6862,-1.6139,-1.5575,-1.534,-1.5166,-1.4824,-1.4139,-1.3795,-1.2948,-1.1408,-1.1154,-1.0722,-1.0038,-1.0112,-1.0154,-1.0239,-1.0594,-1.0628,-1.0473,-1.0626,-1.0609,-1.0413,-1.0609,-1.1086,-1.1955,-1.1965,-1.2931,-1.4657,-1.4286,-1.4777,-1.5927,-1.5635,-1.5635,-1.5832,-1.5832,-1.5635,-1.5356,-1.5172,-1.4885,-1.4688,-1.4394,-1.4298,-1.4298,-1.4298,-1.4298,-1.4388,-1.4962,-1.4771,-1.4394,-1.5057,-1.4968,-1.4873,-1.619,-1.6197,-1.6021,-1.6763,-1.6393,-1.5832,-1.5832,-1.5832,-1.5832,-1.5832,-1.5832,-1.573,-1.554,-1.4675,-1.3613,-1.2533,-1.1658,-1.0877,-1.0194,-0.9549,-0.8948,-0.8395,-0.8654,-0.8697,-0.8412,-0.8533,-0.8491,-0.8266,-0.7487,-0.7271,-0.7841,-0.6374,-0.5817,-0.6502,-0.6837,-0.7062,-0.7184,-0.6829,-0.6596,-0.6596,-0.4923,-0.4142,-0.4254,-0.3586,-0.3474,0.0,0.0,0.0,-2.136,0.0,0.0,0.0,-1.9273,-1.8993,-1.9211,-1.9429,-1.9561,-1.9533,-1.9075,-1.8487,-1.7802,-1.6935,-1.6214,-1.5839,-1.5514,-1.5257,-1.4824,-1.4398,-1.3711,-1.2772,-1.226,-1.1832,-1.1402,-1.1429,-1.1377,-1.0964,-1.1747,-1.1713,-1.07,-1.1371,-1.1668,-1.157,-1.157,-1.215,-1.3301,-1.3596,-1.4274,-1.5432,-1.5439,-1.5737,-1.6224,-1.5927,-1.5832,-1.5832,-1.5832,-1.573,-1.5642,-1.5267,-1.5077,-1.5064,-1.449,-1.4394,-1.449,-1.4394,-1.458,-1.4867,-1.5242,-1.5439,-1.5439,-1.5439,-1.5527,-1.5893,-1.7289,-1.749,-1.7311,-1.7326,-1.6951,-1.6393,-1.592,-1.5832,-1.5832,-1.5832,-1.5832,-1.5832,-1.5832,-1.535,-1.4675,-1.3709,-1.3119,-1.2247,-1.0779,-1.0297,-0.9681,-0.8856,-0.8745,-0.8779,-0.8897,-0.8886,-0.8855,-0.893,-0.838,-0.8162,-0.8618,-0.7823,-0.7376,-0.7613,-0.7616,-0.7504,-0.7168,-0.716,-0.7154,-0.7154,-0.604,-0.5371,-0.5371,-0.4814,-0.448,0.0,0.0,0.0,0.0,0.0,-2.1177,0.0,0.0,0.0,-1.9949,-1.9948,0.0,0.0,0.0,0.0,0.0,0.0,0.0,0.0,-1.5718,0.0,-1.5506,-1.4824,-1.4314,-1.4139,-1.3275,-1.2674,-1.2674,-1.2674,-1.2422,-1.185,-1.2808,-1.2808,-1.1482,-1.2353,-1.2973,-1.3017,-1.2823,-1.3301,-1.4555,-1.5127,-1.5514,-1.5812,-1.6298,-1.64,-1.6218,-1.5927,-1.5832,-1.5832,-1.5832,-1.5832,-1.5737,-1.5363,-1.5267,-1.5445,-1.4682,-1.4496,-1.4688,-1.4586,-1.4867,-1.5432,-1.5717,-1.6379,-1.6763,-1.6096,-1.6358,-1.7095,-1.8395,-1.878,-1.8703,-1.8064,-1.7598,-1.7138,-1.6298,-1.592,-1.5832,-1.5832,-1.5832,-1.5832,-1.5832,-1.5832,-1.554,-1.4777,-1.4394,-1.3613,-1.1653,-1.1072,-1.0547,-0.9512,-0.906,-0.8873,-0.9019,-0.8783,-0.876,-0.8882,-0.892,-0.8826,-0.8598,-0.8598,-0.8488,-0.8156,-0.7826,-0.7493,-0.7154,-0.7154,-0.7154,-0.7154,-0.6707,-0.6374,-0.6262,-0.5706,-0.5371,0.0,0.0,0.0,0.0,-2.3384,0.0,0.0,0.0,-2.0765,-2.0063,0.0,0.0,0.0,0.0,0.0,0.0,0.0,0.0,-1.5836,-1.5896,-1.6004,-1.6004,-1.559,-1.4999,-1.4391,-1.3366,-1.2674,-1.2674,-1.2674,-1.2687,-1.2546,-1.2895,-1.3076,-1.3156,-1.3501,-1.3838,-1.4076,-1.4076,-1.4555,-1.5609,-1.5425,-1.6001,-1.7044,-1.6501,-1.6407,-1.6494,-1.6021,-1.5832,-1.5832,-1.5832,-1.5832,-1.5737,-1.5547,-1.5445,-1.5445,-1.4879,-1.4688,-1.4783,-1.5153,-1.5343,-1.5622,-1.703,-1.7777,-1.8064,-1.7591,-1.7762,-1.8488,-1.9695,-1.9422,-1.8972,-1.9795,-1.8611,-1.7232,-1.7145,-1.6487,-1.5832,-1.5832,-1.5832,-1.5832,-1.5832,-1.5832,-1.573,-1.5635,-1.4873,-1.4094,-1.359,-1.2139,-1.0984,-1.0323,-0.9581,-0.8991,-0.8724,-0.8762,-0.8716,-0.8733,-0.8862,-0.8937,-0.8826,-0.8826,-0.8712,-0.8484,-0.7937,-0.7493,-0.7154,-0.7154,-0.7154,-0.7154,-0.7154,-0.6818,-0.6262,-0.5706,-0.5371,0.0,0.0,0.0,0.0,0.0,0.0,-2.3429,0.0,-2.1176,0.0,0.0,0.0,0.0,0.0,0.0,0.0,-1.9201,0.0,0.0,0.0,-1.6632,0.0,0.0,0.0,-1.5235,-1.472,-1.4378,-1.4307,-1.4378,-1.4203,-1.3535,-1.4249,-1.4278,-1.3568,-1.4283,-1.4839,-1.5127,-1.5127,-1.5704,-1.6662,-1.6567,-1.6763,-1.716,-1.6784,-1.6595,-1.6588,-1.6211,-1.6028,-1.6028,-1.5832,-1.5832,-1.5825,-1.573,-1.5635,-1.5642,-1.5077,-1.5166,-1.5534,-1.5629,-1.6103,-1.6936,-1.7978,-1.835,-1.8527,-1.908,-1.9255,-1.9513,-2.0718,-2.0808,-2.0439,-2.0348,-1.9704,-1.888,-1.8334,-1.7412,-1.6669,-1.6669,-1.6204,-1.5832,-1.5832,-1.5832,-1.5832,-1.5832,-1.5445,-1.4962,-1.428,-1.3511,-1.2732,-1.1853,-1.0757,-0.9962,-0.9872,-0.9183,-0.8831,-0.8703,-0.8852,-0.894,-0.894,-0.894,-0.8823,-0.8484,-0.8045,-0.7715,-0.7493,-0.7268,-0.7154,-0.7154,-0.7154,-0.7043,-0.6818,-0.6596,-0.6485,-2.5816,0.0,0.0,0.0,0.0,0.0,0.0,0.0,0.0,0.0,0.0,0.0,0.0,0.0,0.0,0.0,0.0,-1.969,0.0,-1.784,0.0,0.0,0.0,0.0,0.0,-1.5824,-1.5748,-1.559,-1.5748,-1.5484,-1.4734,-1.5382,-1.5389,-1.4257,-1.5084,-1.5752,-1.606,-1.6135,-1.656,-1.7326,-1.7326,-1.7239,-1.7066,-1.7065,-1.6964,-1.669,-1.6497,-1.6395,-1.6218,-1.6028,-1.6021,-1.6204,-1.6204,-1.6386,-1.6567,-1.5825,-1.6103,-1.6835,-1.6749,-1.7498,-1.8527,-1.9004,-1.918,-1.9255,-2.0184,-2.0456,-2.0538,-2.1463,-2.1741,-2.1553,-2.0898,-2.0529,-2.0158,-1.9338,-1.8427,-1.7598,-1.7326,-1.677,-1.6109,-1.5825,-1.5832,-1.5832,-1.5832,-1.5832,-1.554,-1.4777,-1.449,-1.4004,-1.3221,-1.1755,-1.0739,-1.0689,-0.9666,-0.8912,-0.8745,-0.8896,-0.8893,-0.8937,-0.894,-0.8823,-0.8484,-0.8266,-0.8045,-0.7715,-0.749,-0.7268,-0.7268,-0.7265,-0.7154,-0.7154,-0.7154,-0.7154,0.0,0.0,0.0,-2.6465,0.0,0.0,0.0,0.0,-2.4779,0.0,0.0,0.0,0.0,0.0,0.0,0.0,0.0,0.0,0.0,0.0,0.0,0.0,0.0,0.0,0.0,-1.6087,-1.6087,0.0,-1.6087,-1.6087,-1.6004,-1.5839,-1.5821,-1.6063,-1.6301,-1.6543,-1.6865,-1.7079,-1.7232,-1.7326,-1.7326,-1.7326,-1.7246,-1.7383,-1.7266,-1.6994,-1.7007,-1.6773,-1.6224,-1.6224,-1.6588,-1.7232,-1.7232,-1.7878,-1.8511,-1.7304,-1.7483,-1.8395,-1.8864,-1.9629,-2.0201,-2.0201,-2.0555,-2.0907,-2.0997,-2.1275,-2.1642,-2.1731,-2.1741,-2.1731,-2.1651,-2.0997,-2.0249,-2.0249,-1.9521,-1.8519,-1.7512,-1.7232,-1.6951,-1.6015,-1.5832,-1.5832,-1.5832,-1.5832,-1.5825,-1.573,-1.4968,-1.4298,-1.4292,-1.2242,-1.0783,-1.0788,-0.9782,-0.9054,-0.8909,-0.9058,-0.8994,-0.893,-0.894,-0.8823,-0.8484,-0.8484,-0.8374,-0.8045,-0.7715,-0.7607,-0.7607,-0.7379,-0.7154,-0.7154,-0.7154,-0.7154,0.0,0.0,-2.5606,-2.6314,0.0,0.0,0.0,0.0,0.0,0.0,0.0,0.0,0.0,0.0,0.0,0.0,0.0,0.0,0.0,0.0,0.0,0.0,0.0,0.0,0.0,0.0,0.0,0.0,-1.6245,0.0,-1.6095,-1.5824,-1.589,-1.6219,-1.6088,-1.6323,-1.685,-1.696,-1.7121,-1.7326,-1.7326,-1.7326,-1.734,-1.7574,-1.8037,-1.8581,-1.7669,-1.7934,-1.8926,-1.7688,-1.7684,-1.8503,-1.8326,-1.888,-1.9704,-1.8603,-1.8603,-1.9155,-1.972,-2.0102,-2.0292,-2.0292,-2.0645,-2.0997,-2.0997,-2.1365,-2.1741,-2.1741,-2.1741,-2.1741,-2.1741,-2.1454,-2.1266,-2.1266,-2.0529,-1.9704,-1.9338,-1.8241,-1.7232,-1.6864,-1.6298,-1.5832,-1.5832,-1.5832,-1.5832,-1.5832,-1.554,-1.5255,-1.5255,-1.3992,-1.2732,-1.1853,-1.0966,-1.001,-0.916,-0.9093,-0.8988,-0.893,-0.894,-0.8826,-0.8712,-0.8598,-0.8484,-0.8374,-0.8045,-0.7826,-0.7607,-0.7493,-0.7379,-0.7154,-0.7154,-0.7154,-2.6465,-2.6025,0.0,-2.6314,-2.5652,0.0,-2.6233,0.0,0.0,0.0,0.0,0.0,0.0,0.0,0.0,0.0,0.0,0.0,0.0,-1.9972,0.0,0.0,0.0,0.0,0.0,0.0,-1.6484,-1.6335,-1.6402,-1.6566,0.0,-1.6468,-1.657,-1.7032,-1.693,-1.686,-1.7032,-1.7535,-1.7758,-1.7704,-1.8087,-1.8326,-1.8342,-1.869,-1.9209,-1.987,-1.9161,-1.9431,-2.0416,-1.9151,-1.9076,-1.9588,-1.9513,-1.9977,-2.0718,-1.9704,-1.9712,-2.0357,-2.0645,-2.0835,-2.0835,-2.0835,-2.1006,-2.1266,-2.1266,-2.1454,-2.1768,-2.1906,-2.1841,-2.1768,-2.1906,-2.1841,-2.1741,-2.1741,-2.1275,-2.0718,-2.0348,-1.9247,-1.8149,-1.7419,-1.677,-1.6204,-1.5832,-1.5832,-1.5832,-1.5832,-1.5832,-1.5832,-1.5832,-1.4968,-1.4004,-1.3119,-1.1885,-1.051,-0.9173,-0.9061,-0.9075,-0.8852,-0.891,-0.894,-0.894,-0.8712,-0.8598,-0.8598,-0.8377,-0.8045,-0.7937,-0.7826,-0.7601,-0.7487,-0.7487,-0.7379]}]]